<?xml version='1.0' encoding='UTF-8'?><gpx version="1.1" creator="JPX - https://github.com/jenetics/jpx" xmlns="http://www.topografix.com/GPX/1/1"><trk><trkseg><trkpt lat="46.2420796" lon="8.3126017"><ele>837.0</ele><time>2026-05-01T12:10:07.412Z</time></trkpt><trkpt lat="46.2421273" lon="8.3127364"><ele>837.0</ele><time>2026-05-01T12:10:24.435Z</time></trkpt><trkpt lat="46.242138" lon="8.3128715"><ele>837.0</ele><time>2026-05-01T12:10:50.991Z</time></trkpt><trkpt lat="46.2421829" lon="8.312796"><ele>837.0</ele><time>2026-05-01T12:11:37.983Z</time></trkpt><trkpt lat="46.2422165" lon="8.3127141"><ele>837.0</ele><time>2026-05-01T12:11:42.993Z</time></trkpt><trkpt lat="46.2421569" lon="8.3128192"><ele>837.0</ele><time>2026-05-01T12:12:07.986Z</time></trkpt><trkpt lat="46.2421489" lon="8.3129173"><ele>837.0</ele><time>2026-05-01T12:12:18.987Z</time></trkpt><trkpt lat="46.2421553" lon="8.312813"><ele>837.0</ele><time>2026-05-01T12:12:48.995Z</time></trkpt><trkpt lat="46.242149" lon="8.3129146"><ele>837.0</ele><time>2026-05-01T12:13:03.991Z</time></trkpt><trkpt lat="46.2420913" lon="8.3129534"><ele>837.0</ele><time>2026-05-01T12:14:12.002Z</time></trkpt><trkpt lat="46.2420082" lon="8.3130067"><ele>837.0</ele><time>2026-05-01T12:14:15.006Z</time></trkpt><trkpt lat="46.241939" lon="8.3130337"><ele>837.0</ele><time>2026-05-01T12:14:17.007Z</time></trkpt><trkpt lat="46.2418591" lon="8.3130864"><ele>834.6666666666666</ele><time>2026-05-01T12:14:19.025Z</time></trkpt><trkpt lat="46.2417583" lon="8.3131524"><ele>832.3333333333333</ele><time>2026-05-01T12:14:21.002Z</time></trkpt><trkpt lat="46.2417014" lon="8.3131961"><ele>830.0</ele><time>2026-05-01T12:14:22.01Z</time></trkpt><trkpt lat="46.2416567" lon="8.3132715"><ele>827.6666666666666</ele><time>2026-05-01T12:14:23.001Z</time></trkpt><trkpt lat="46.2415778" lon="8.3133604"><ele>825.3333333333333</ele><time>2026-05-01T12:14:25Z</time></trkpt><trkpt lat="46.2415029" lon="8.3134037"><ele>823.0</ele><time>2026-05-01T12:14:26.993Z</time></trkpt><trkpt lat="46.2414413" lon="8.3134255"><ele>822.5714285714286</ele><time>2026-05-01T12:14:29.989Z</time></trkpt><trkpt lat="46.2413785" lon="8.3133773"><ele>822.1428571428571</ele><time>2026-05-01T12:14:33.974Z</time></trkpt><trkpt lat="46.2413378" lon="8.3132498"><ele>821.7142857142858</ele><time>2026-05-01T12:14:36.987Z</time></trkpt><trkpt lat="46.2412968" lon="8.313164"><ele>821.2857142857142</ele><time>2026-05-01T12:14:38.989Z</time></trkpt><trkpt lat="46.2412655" lon="8.3130772"><ele>820.8571428571428</ele><time>2026-05-01T12:14:40.997Z</time></trkpt><trkpt lat="46.2412234" lon="8.3130082"><ele>820.4285714285714</ele><time>2026-05-01T12:14:43.006Z</time></trkpt><trkpt lat="46.2411607" lon="8.3129561"><ele>820.0</ele><time>2026-05-01T12:14:45Z</time></trkpt><trkpt lat="46.2410795" lon="8.3129337"><ele>822.1666666666666</ele><time>2026-05-01T12:14:46.994Z</time></trkpt><trkpt lat="46.2409975" lon="8.3129369"><ele>824.3333333333333</ele><time>2026-05-01T12:14:48.989Z</time></trkpt><trkpt lat="46.2409117" lon="8.3129583"><ele>826.5</ele><time>2026-05-01T12:14:50.976Z</time></trkpt><trkpt lat="46.2408171" lon="8.3129898"><ele>828.6666666666667</ele><time>2026-05-01T12:14:52.976Z</time></trkpt><trkpt lat="46.2407272" lon="8.3130278"><ele>830.8333333333334</ele><time>2026-05-01T12:14:54.98Z</time></trkpt><trkpt lat="46.2406486" lon="8.313056"><ele>833.0</ele><time>2026-05-01T12:14:56.979Z</time></trkpt><trkpt lat="46.2405714" lon="8.3130584"><ele>833.5000000000001</ele><time>2026-05-01T12:14:58.985Z</time></trkpt><trkpt lat="46.2404884" lon="8.3130679"><ele>834.0</ele><time>2026-05-01T12:15:00.988Z</time></trkpt><trkpt lat="46.2404043" lon="8.3130875"><ele>834.5</ele><time>2026-05-01T12:15:02.991Z</time></trkpt><trkpt lat="46.2403153" lon="8.3131079"><ele>835.0</ele><time>2026-05-01T12:15:04.992Z</time></trkpt><trkpt lat="46.2402308" lon="8.3131055"><ele>835.5000000000001</ele><time>2026-05-01T12:15:06.986Z</time></trkpt><trkpt lat="46.2401517" lon="8.3131143"><ele>836.0</ele><time>2026-05-01T12:15:08.986Z</time></trkpt><trkpt lat="46.2400758" lon="8.3131226"><ele>836.0000000000001</ele><time>2026-05-01T12:15:10.994Z</time></trkpt><trkpt lat="46.2400113" lon="8.3131167"><ele>836.0</ele><time>2026-05-01T12:15:12.993Z</time></trkpt><trkpt lat="46.2399186" lon="8.3130889"><ele>836.0</ele><time>2026-05-01T12:15:15.994Z</time></trkpt><trkpt lat="46.2398369" lon="8.3130444"><ele>836.0</ele><time>2026-05-01T12:15:18.991Z</time></trkpt><trkpt lat="46.239753" lon="8.3129956"><ele>836.0000000000001</ele><time>2026-05-01T12:15:21.981Z</time></trkpt><trkpt lat="46.23967" lon="8.3129731"><ele>836.0</ele><time>2026-05-01T12:15:24.979Z</time></trkpt><trkpt lat="46.2396058" lon="8.3129527"><ele>836.0</ele><time>2026-05-01T12:15:26.983Z</time></trkpt><trkpt lat="46.2395529" lon="8.3129022"><ele>836.0</ele><time>2026-05-01T12:15:28.982Z</time></trkpt><trkpt lat="46.2394973" lon="8.3128532"><ele>836.0</ele><time>2026-05-01T12:15:31.992Z</time></trkpt><trkpt lat="46.239437" lon="8.3127886"><ele>836.0</ele><time>2026-05-01T12:15:35Z</time></trkpt><trkpt lat="46.2393494" lon="8.3127467"><ele>836.0</ele><time>2026-05-01T12:15:37.993Z</time></trkpt><trkpt lat="46.2392825" lon="8.3127374"><ele>836.0</ele><time>2026-05-01T12:15:39.989Z</time></trkpt><trkpt lat="46.2392182" lon="8.3127266"><ele>836.0</ele><time>2026-05-01T12:15:41.993Z</time></trkpt><trkpt lat="46.2391255" lon="8.3126854"><ele>836.0</ele><time>2026-05-01T12:15:44.992Z</time></trkpt><trkpt lat="46.2390535" lon="8.3126657"><ele>836.0</ele><time>2026-05-01T12:15:46.993Z</time></trkpt><trkpt lat="46.2389808" lon="8.3126373"><ele>836.0</ele><time>2026-05-01T12:15:48.994Z</time></trkpt><trkpt lat="46.2389039" lon="8.3126089"><ele>836.0</ele><time>2026-05-01T12:15:50.995Z</time></trkpt><trkpt lat="46.2388317" lon="8.3125938"><ele>836.0</ele><time>2026-05-01T12:15:52.989Z</time></trkpt><trkpt lat="46.2387621" lon="8.3125888"><ele>836.0</ele><time>2026-05-01T12:15:54.996Z</time></trkpt><trkpt lat="46.2386988" lon="8.3125777"><ele>836.0</ele><time>2026-05-01T12:15:56.988Z</time></trkpt><trkpt lat="46.2386067" lon="8.3125674"><ele>837.5000000000001</ele><time>2026-05-01T12:15:59.984Z</time></trkpt><trkpt lat="46.2385416" lon="8.3125683"><ele>839.0</ele><time>2026-05-01T12:16:01.983Z</time></trkpt><trkpt lat="46.2384775" lon="8.3125623"><ele>840.5</ele><time>2026-05-01T12:16:03.98Z</time></trkpt><trkpt lat="46.2383882" lon="8.3125565"><ele>842.0</ele><time>2026-05-01T12:16:06.978Z</time></trkpt><trkpt lat="46.2383027" lon="8.3125538"><ele>843.5000000000001</ele><time>2026-05-01T12:16:09.972Z</time></trkpt><trkpt lat="46.2382158" lon="8.3125608"><ele>845.0</ele><time>2026-05-01T12:16:12.976Z</time></trkpt><trkpt lat="46.2381334" lon="8.3125718"><ele>846.8333333333334</ele><time>2026-05-01T12:16:15.966Z</time></trkpt><trkpt lat="46.2380392" lon="8.3125913"><ele>848.6666666666667</ele><time>2026-05-01T12:16:18.97Z</time></trkpt><trkpt lat="46.2379693" lon="8.3126043"><ele>850.5</ele><time>2026-05-01T12:16:20.971Z</time></trkpt><trkpt lat="46.2379009" lon="8.3126143"><ele>852.3333333333333</ele><time>2026-05-01T12:16:22.985Z</time></trkpt><trkpt lat="46.2378345" lon="8.3126304"><ele>854.1666666666666</ele><time>2026-05-01T12:16:24.968Z</time></trkpt><trkpt lat="46.2377715" lon="8.3126593"><ele>856.0</ele><time>2026-05-01T12:16:26.969Z</time></trkpt><trkpt lat="46.2376878" lon="8.3127135"><ele>856.0000000000001</ele><time>2026-05-01T12:16:29.971Z</time></trkpt><trkpt lat="46.2376231" lon="8.3127717"><ele>856.0</ele><time>2026-05-01T12:16:31.97Z</time></trkpt><trkpt lat="46.2375528" lon="8.3128062"><ele>856.0</ele><time>2026-05-01T12:16:33.968Z</time></trkpt><trkpt lat="46.2374955" lon="8.3128569"><ele>856.0</ele><time>2026-05-01T12:16:35.964Z</time></trkpt><trkpt lat="46.2374244" lon="8.312887"><ele>856.0</ele><time>2026-05-01T12:16:38.973Z</time></trkpt><trkpt lat="46.237462" lon="8.3128082"><ele>856.0000000000001</ele><time>2026-05-01T12:16:43.969Z</time></trkpt><trkpt lat="46.2375271" lon="8.3127899"><ele>856.0</ele><time>2026-05-01T12:16:46.972Z</time></trkpt><trkpt lat="46.2375888" lon="8.3127557"><ele>855.9999999999999</ele><time>2026-05-01T12:16:48.974Z</time></trkpt><trkpt lat="46.2376526" lon="8.3127492"><ele>856.0</ele><time>2026-05-01T12:16:50.971Z</time></trkpt><trkpt lat="46.2377146" lon="8.3127333"><ele>856.0</ele><time>2026-05-01T12:16:52.967Z</time></trkpt><trkpt lat="46.2378" lon="8.3126912"><ele>856.0</ele><time>2026-05-01T12:16:55.973Z</time></trkpt><trkpt lat="46.2378763" lon="8.3126508"><ele>855.9999999999999</ele><time>2026-05-01T12:16:58.968Z</time></trkpt><trkpt lat="46.2379562" lon="8.3126158"><ele>856.0</ele><time>2026-05-01T12:17:01.97Z</time></trkpt><trkpt lat="46.2380287" lon="8.3125576"><ele>855.9999999999999</ele><time>2026-05-01T12:17:04.968Z</time></trkpt><trkpt lat="46.238083" lon="8.3125081"><ele>856.0</ele><time>2026-05-01T12:17:06.97Z</time></trkpt><trkpt lat="46.2381615" lon="8.3124518"><ele>856.0</ele><time>2026-05-01T12:17:09.967Z</time></trkpt><trkpt lat="46.2382441" lon="8.3124029"><ele>856.0</ele><time>2026-05-01T12:17:12.978Z</time></trkpt><trkpt lat="46.2382986" lon="8.3123558"><ele>855.9999999999999</ele><time>2026-05-01T12:17:14.973Z</time></trkpt><trkpt lat="46.2383814" lon="8.3123011"><ele>856.0</ele><time>2026-05-01T12:17:17.977Z</time></trkpt><trkpt lat="46.238456" lon="8.3122279"><ele>857.1666666666666</ele><time>2026-05-01T12:17:20.982Z</time></trkpt><trkpt lat="46.2385237" lon="8.3121334"><ele>858.3333333333333</ele><time>2026-05-01T12:17:23.977Z</time></trkpt><trkpt lat="46.2385764" lon="8.3120779"><ele>859.5</ele><time>2026-05-01T12:17:25.981Z</time></trkpt><trkpt lat="46.2386493" lon="8.3120016"><ele>860.6666666666667</ele><time>2026-05-01T12:17:28.98Z</time></trkpt><trkpt lat="46.2387237" lon="8.3119331"><ele>861.8333333333334</ele><time>2026-05-01T12:17:31.98Z</time></trkpt><trkpt lat="46.2387864" lon="8.3118888"><ele>863.0</ele><time>2026-05-01T12:17:33.983Z</time></trkpt><trkpt lat="46.2388492" lon="8.3118581"><ele>863.0000000000001</ele><time>2026-05-01T12:17:35.985Z</time></trkpt><trkpt lat="46.2389382" lon="8.3118197"><ele>863.0</ele><time>2026-05-01T12:17:38.983Z</time></trkpt><trkpt lat="46.2390357" lon="8.3118172"><ele>863.0</ele><time>2026-05-01T12:17:41.988Z</time></trkpt><trkpt lat="46.2390993" lon="8.3118048"><ele>863.0</ele><time>2026-05-01T12:17:43.99Z</time></trkpt><trkpt lat="46.2391504" lon="8.3117425"><ele>863.0000000000001</ele><time>2026-05-01T12:17:45.984Z</time></trkpt><trkpt lat="46.2391836" lon="8.3116336"><ele>863.0</ele><time>2026-05-01T12:17:47.989Z</time></trkpt><trkpt lat="46.2391765" lon="8.3115171"><ele>863.0000000000001</ele><time>2026-05-01T12:17:49.986Z</time></trkpt><trkpt lat="46.2391243" lon="8.311442"><ele>863.0</ele><time>2026-05-01T12:17:53.983Z</time></trkpt><trkpt lat="46.23903" lon="8.3114524"><ele>863.0</ele><time>2026-05-01T12:17:56.008Z</time></trkpt><trkpt lat="46.2389391" lon="8.3114679"><ele>863.0</ele><time>2026-05-01T12:17:57.993Z</time></trkpt><trkpt lat="46.2388685" lon="8.311488"><ele>863.0000000000001</ele><time>2026-05-01T12:17:59.989Z</time></trkpt><trkpt lat="46.238795" lon="8.3115033"><ele>863.0</ele><time>2026-05-01T12:18:02Z</time></trkpt><trkpt lat="46.2387282" lon="8.3115072"><ele>863.0000000000001</ele><time>2026-05-01T12:18:03.99Z</time></trkpt><trkpt lat="46.2386626" lon="8.3114972"><ele>863.0</ele><time>2026-05-01T12:18:05.995Z</time></trkpt><trkpt lat="46.2385956" lon="8.3114862"><ele>863.0</ele><time>2026-05-01T12:18:07.986Z</time></trkpt><trkpt lat="46.2385377" lon="8.3114501"><ele>863.0</ele><time>2026-05-01T12:18:09.991Z</time></trkpt><trkpt lat="46.2384575" lon="8.3114212"><ele>863.0000000000001</ele><time>2026-05-01T12:18:13.002Z</time></trkpt><trkpt lat="46.2383898" lon="8.3113508"><ele>863.0</ele><time>2026-05-01T12:18:15.991Z</time></trkpt><trkpt lat="46.2383158" lon="8.31126"><ele>863.7142857142858</ele><time>2026-05-01T12:18:18.989Z</time></trkpt><trkpt lat="46.2382693" lon="8.3111947"><ele>864.4285714285714</ele><time>2026-05-01T12:18:20.986Z</time></trkpt><trkpt lat="46.2382295" lon="8.3111199"><ele>865.1428571428571</ele><time>2026-05-01T12:18:22.985Z</time></trkpt><trkpt lat="46.2381804" lon="8.3110544"><ele>865.8571428571429</ele><time>2026-05-01T12:18:24.991Z</time></trkpt><trkpt lat="46.2381383" lon="8.3109739"><ele>866.5714285714286</ele><time>2026-05-01T12:18:27.01Z</time></trkpt><trkpt lat="46.2380939" lon="8.310903"><ele>867.2857142857143</ele><time>2026-05-01T12:18:28.988Z</time></trkpt><trkpt lat="46.238058" lon="8.3108257"><ele>868.0</ele><time>2026-05-01T12:18:30.994Z</time></trkpt><trkpt lat="46.2380134" lon="8.3107555"><ele>868.4285714285714</ele><time>2026-05-01T12:18:32.989Z</time></trkpt><trkpt lat="46.2379644" lon="8.3106887"><ele>868.8571428571429</ele><time>2026-05-01T12:18:34.985Z</time></trkpt><trkpt lat="46.2379167" lon="8.3106161"><ele>869.2857142857142</ele><time>2026-05-01T12:18:36.986Z</time></trkpt><trkpt lat="46.2378692" lon="8.3105322"><ele>869.7142857142858</ele><time>2026-05-01T12:18:38.993Z</time></trkpt><trkpt lat="46.2378335" lon="8.310446"><ele>870.1428571428571</ele><time>2026-05-01T12:18:40.991Z</time></trkpt><trkpt lat="46.2377871" lon="8.3103596"><ele>870.5714285714286</ele><time>2026-05-01T12:18:42.993Z</time></trkpt><trkpt lat="46.2377369" lon="8.3102843"><ele>871.0</ele><time>2026-05-01T12:18:44.982Z</time></trkpt><trkpt lat="46.2376783" lon="8.3102093"><ele>871.3333333333333</ele><time>2026-05-01T12:18:46.996Z</time></trkpt><trkpt lat="46.2376163" lon="8.310121"><ele>871.6666666666666</ele><time>2026-05-01T12:18:48.989Z</time></trkpt><trkpt lat="46.2375725" lon="8.3100513"><ele>872.0</ele><time>2026-05-01T12:18:50.989Z</time></trkpt><trkpt lat="46.2375238" lon="8.3099838"><ele>872.3333333333333</ele><time>2026-05-01T12:37:40.999Z</time></trkpt><trkpt lat="46.2374543" lon="8.3098963"><ele>872.6666666666666</ele><time>2026-05-01T12:37:45.997Z</time></trkpt><trkpt lat="46.2373917" lon="8.3098575"><ele>873.0</ele><time>2026-05-01T12:37:48.001Z</time></trkpt><trkpt lat="46.2373131" lon="8.3098355"><ele>871.0</ele><time>2026-05-01T12:37:50.004Z</time></trkpt><trkpt lat="46.237229" lon="8.3098309"><ele>869.0</ele><time>2026-05-01T12:37:52.006Z</time></trkpt><trkpt lat="46.2371572" lon="8.3098303"><ele>867.0</ele><time>2026-05-01T12:37:54.001Z</time></trkpt><trkpt lat="46.2370738" lon="8.3098478"><ele>865.0</ele><time>2026-05-01T12:37:57.007Z</time></trkpt><trkpt lat="46.2369893" lon="8.3098617"><ele>863.0</ele><time>2026-05-01T12:38:00.026Z</time></trkpt><trkpt lat="46.2368986" lon="8.3098459"><ele>861.0</ele><time>2026-05-01T12:38:03.006Z</time></trkpt><trkpt lat="46.2368383" lon="8.3097828"><ele>861.8333333333334</ele><time>2026-05-01T12:38:04.992Z</time></trkpt><trkpt lat="46.2367854" lon="8.3097156"><ele>862.6666666666667</ele><time>2026-05-01T12:38:06.994Z</time></trkpt><trkpt lat="46.2367371" lon="8.3095989"><ele>863.5</ele><time>2026-05-01T12:38:09.986Z</time></trkpt><trkpt lat="46.2367011" lon="8.309506"><ele>864.3333333333334</ele><time>2026-05-01T12:38:11.988Z</time></trkpt><trkpt lat="46.2366671" lon="8.3094118"><ele>865.1666666666667</ele><time>2026-05-01T12:38:13.975Z</time></trkpt><trkpt lat="46.2366087" lon="8.3093207"><ele>866.0</ele><time>2026-05-01T12:38:15.995Z</time></trkpt><trkpt lat="46.2365771" lon="8.3092125"><ele>866.0</ele><time>2026-05-01T12:38:17.987Z</time></trkpt><trkpt lat="46.2365604" lon="8.3090853"><ele>865.9999999999999</ele><time>2026-05-01T12:38:19.997Z</time></trkpt><trkpt lat="46.2365954" lon="8.3089458"><ele>865.9999999999999</ele><time>2026-05-01T12:38:22.004Z</time></trkpt><trkpt lat="46.2366341" lon="8.3088134"><ele>866.0</ele><time>2026-05-01T12:38:23.999Z</time></trkpt><trkpt lat="46.2366827" lon="8.308694"><ele>866.0</ele><time>2026-05-01T12:38:25.998Z</time></trkpt><trkpt lat="46.2367151" lon="8.3085628"><ele>866.0</ele><time>2026-05-01T12:38:28.002Z</time></trkpt><trkpt lat="46.2367572" lon="8.3084397"><ele>865.9999999999999</ele><time>2026-05-01T12:38:30.003Z</time></trkpt><trkpt lat="46.2367931" lon="8.3083093"><ele>865.9999999999999</ele><time>2026-05-01T12:38:32.001Z</time></trkpt><trkpt lat="46.2368178" lon="8.3081791"><ele>866.0</ele><time>2026-05-01T12:38:33.995Z</time></trkpt><trkpt lat="46.236833" lon="8.3080427"><ele>866.0</ele><time>2026-05-01T12:38:36.001Z</time></trkpt><trkpt lat="46.2368545" lon="8.3079189"><ele>866.0</ele><time>2026-05-01T12:38:38.002Z</time></trkpt><trkpt lat="46.2368707" lon="8.3077832"><ele>865.9999999999999</ele><time>2026-05-01T12:38:39.994Z</time></trkpt><trkpt lat="46.2369104" lon="8.3076618"><ele>865.9999999999999</ele><time>2026-05-01T12:38:41.994Z</time></trkpt><trkpt lat="46.2369335" lon="8.3075181"><ele>866.0</ele><time>2026-05-01T12:38:43.993Z</time></trkpt><trkpt lat="46.2369709" lon="8.307385"><ele>866.0</ele><time>2026-05-01T12:38:45.988Z</time></trkpt><trkpt lat="46.2370292" lon="8.3072677"><ele>868.1999999999999</ele><time>2026-05-01T12:38:47.991Z</time></trkpt><trkpt lat="46.2370801" lon="8.3071483"><ele>870.3999999999999</ele><time>2026-05-01T12:38:49.992Z</time></trkpt><trkpt lat="46.2371395" lon="8.3070372"><ele>872.6</ele><time>2026-05-01T12:38:51.996Z</time></trkpt><trkpt lat="46.2372259" lon="8.3069302"><ele>874.8</ele><time>2026-05-01T12:38:53.995Z</time></trkpt><trkpt lat="46.2372726" lon="8.3067965"><ele>877.0</ele><time>2026-05-01T12:38:55.986Z</time></trkpt><trkpt lat="46.2372313" lon="8.3066981"><ele>876.9999999999999</ele><time>2026-05-01T12:38:58.979Z</time></trkpt><trkpt lat="46.237119" lon="8.3066739"><ele>877.0</ele><time>2026-05-01T12:39:00.975Z</time></trkpt><trkpt lat="46.2369984" lon="8.3066966"><ele>877.0</ele><time>2026-05-01T12:39:02.979Z</time></trkpt><trkpt lat="46.2369316" lon="8.306718"><ele>877.0</ele><time>2026-05-01T12:39:03.978Z</time></trkpt><trkpt lat="46.2368673" lon="8.3067296"><ele>876.9999999999999</ele><time>2026-05-01T12:39:04.974Z</time></trkpt><trkpt lat="46.2367979" lon="8.3067169"><ele>877.0</ele><time>2026-05-01T12:39:05.974Z</time></trkpt><trkpt lat="46.2367087" lon="8.3066528"><ele>877.0</ele><time>2026-05-01T12:39:07.974Z</time></trkpt><trkpt lat="46.2366203" lon="8.3065868"><ele>877.0</ele><time>2026-05-01T12:39:09.978Z</time></trkpt><trkpt lat="46.2365211" lon="8.3065278"><ele>877.0</ele><time>2026-05-01T12:39:11.98Z</time></trkpt><trkpt lat="46.236411" lon="8.3064926"><ele>877.0</ele><time>2026-05-01T12:39:13.98Z</time></trkpt><trkpt lat="46.2363088" lon="8.306455"><ele>877.0</ele><time>2026-05-01T12:39:15.976Z</time></trkpt><trkpt lat="46.236215" lon="8.306363"><ele>876.2</ele><time>2026-05-01T12:39:17.98Z</time></trkpt><trkpt lat="46.2361607" lon="8.3062514"><ele>875.4000000000001</ele><time>2026-05-01T12:39:19.978Z</time></trkpt><trkpt lat="46.2361035" lon="8.3061544"><ele>874.5999999999999</ele><time>2026-05-01T12:39:21.978Z</time></trkpt><trkpt lat="46.2360382" lon="8.3060504"><ele>873.8</ele><time>2026-05-01T12:39:23.978Z</time></trkpt><trkpt lat="46.2359734" lon="8.305941"><ele>873.0</ele><time>2026-05-01T12:39:25.981Z</time></trkpt><trkpt lat="46.2358896" lon="8.3058615"><ele>873.0</ele><time>2026-05-01T12:39:27.982Z</time></trkpt><trkpt lat="46.2358173" lon="8.3057589"><ele>873.0</ele><time>2026-05-01T12:39:29.973Z</time></trkpt><trkpt lat="46.2357563" lon="8.305642"><ele>873.0</ele><time>2026-05-01T12:39:31.975Z</time></trkpt><trkpt lat="46.2356849" lon="8.3055598"><ele>873.0</ele><time>2026-05-01T12:39:33.979Z</time></trkpt><trkpt lat="46.2356011" lon="8.3054926"><ele>873.0</ele><time>2026-05-01T12:39:35.991Z</time></trkpt><trkpt lat="46.235544" lon="8.3053692"><ele>871.4</ele><time>2026-05-01T12:39:37.99Z</time></trkpt><trkpt lat="46.2354915" lon="8.3052342"><ele>869.8</ele><time>2026-05-01T12:39:39.987Z</time></trkpt><trkpt lat="46.2354208" lon="8.3051291"><ele>868.2</ele><time>2026-05-01T12:39:41.99Z</time></trkpt><trkpt lat="46.2353651" lon="8.3049977"><ele>866.6</ele><time>2026-05-01T12:39:43.991Z</time></trkpt><trkpt lat="46.2353017" lon="8.3048661"><ele>865.0</ele><time>2026-05-01T12:39:45.993Z</time></trkpt><trkpt lat="46.2352339" lon="8.3047413"><ele>868.6</ele><time>2026-05-01T12:39:47.998Z</time></trkpt><trkpt lat="46.2351686" lon="8.3046216"><ele>872.2</ele><time>2026-05-01T12:39:49.991Z</time></trkpt><trkpt lat="46.2351023" lon="8.3045071"><ele>875.8</ele><time>2026-05-01T12:39:51.99Z</time></trkpt><trkpt lat="46.2350433" lon="8.3044"><ele>879.4</ele><time>2026-05-01T12:39:53.983Z</time></trkpt><trkpt lat="46.2350127" lon="8.3042843"><ele>883.0</ele><time>2026-05-01T12:39:55.984Z</time></trkpt><trkpt lat="46.2349699" lon="8.304144"><ele>883.0</ele><time>2026-05-01T12:39:57.982Z</time></trkpt><trkpt lat="46.2349149" lon="8.3040065"><ele>883.0</ele><time>2026-05-01T12:39:59.987Z</time></trkpt><trkpt lat="46.2348608" lon="8.3038755"><ele>883.0</ele><time>2026-05-01T12:40:01.993Z</time></trkpt><trkpt lat="46.234798" lon="8.3037427"><ele>883.0</ele><time>2026-05-01T12:40:04.01Z</time></trkpt><trkpt lat="46.2347461" lon="8.3036058"><ele>883.0</ele><time>2026-05-01T12:40:05.99Z</time></trkpt><trkpt lat="46.2346954" lon="8.303472"><ele>884.4999999999999</ele><time>2026-05-01T12:40:07.982Z</time></trkpt><trkpt lat="46.23466" lon="8.3033574"><ele>886.0</ele><time>2026-05-01T12:40:09.986Z</time></trkpt><trkpt lat="46.2346251" lon="8.3032681"><ele>887.5</ele><time>2026-05-01T12:40:11.99Z</time></trkpt><trkpt lat="46.2345823" lon="8.3031734"><ele>889.0</ele><time>2026-05-01T12:40:13.982Z</time></trkpt><trkpt lat="46.2345278" lon="8.3030891"><ele>890.4999999999999</ele><time>2026-05-01T12:40:16.983Z</time></trkpt><trkpt lat="46.2344615" lon="8.3030755"><ele>892.0</ele><time>2026-05-01T12:40:18.986Z</time></trkpt><trkpt lat="46.2343695" lon="8.3031374"><ele>892.0</ele><time>2026-05-01T12:40:20.988Z</time></trkpt><trkpt lat="46.234282" lon="8.3032863"><ele>892.0</ele><time>2026-05-01T12:40:22.985Z</time></trkpt><trkpt lat="46.2342449" lon="8.3033676"><ele>892.0</ele><time>2026-05-01T12:40:23.981Z</time></trkpt><trkpt lat="46.2342164" lon="8.3034547"><ele>892.0</ele><time>2026-05-01T12:40:24.983Z</time></trkpt><trkpt lat="46.2341766" lon="8.3036303"><ele>892.0</ele><time>2026-05-01T12:40:26.985Z</time></trkpt><trkpt lat="46.2341614" lon="8.3037234"><ele>891.9999999999999</ele><time>2026-05-01T12:40:27.979Z</time></trkpt><trkpt lat="46.2341535" lon="8.3038156"><ele>892.0</ele><time>2026-05-01T12:40:28.983Z</time></trkpt><trkpt lat="46.2341335" lon="8.3039756"><ele>892.0</ele><time>2026-05-01T12:40:30.98Z</time></trkpt><trkpt lat="46.2341488" lon="8.3041254"><ele>892.0</ele><time>2026-05-01T12:40:32.979Z</time></trkpt><trkpt lat="46.2341439" lon="8.3042587"><ele>891.9999999999999</ele><time>2026-05-01T12:40:34.993Z</time></trkpt><trkpt lat="46.2341257" lon="8.3043482"><ele>892.0</ele><time>2026-05-01T12:40:35.974Z</time></trkpt><trkpt lat="46.2340828" lon="8.3045093"><ele>890.4000000000001</ele><time>2026-05-01T12:40:37.972Z</time></trkpt><trkpt lat="46.234036" lon="8.3046486"><ele>888.8000000000001</ele><time>2026-05-01T12:40:39.979Z</time></trkpt><trkpt lat="46.2339992" lon="8.3047801"><ele>887.2</ele><time>2026-05-01T12:40:41.978Z</time></trkpt><trkpt lat="46.2339587" lon="8.3049016"><ele>885.6</ele><time>2026-05-01T12:40:43.983Z</time></trkpt><trkpt lat="46.2339019" lon="8.3050091"><ele>884.0</ele><time>2026-05-01T12:40:45.983Z</time></trkpt><trkpt lat="46.2338696" lon="8.3051196"><ele>884.8333333333334</ele><time>2026-05-01T12:40:47.978Z</time></trkpt><trkpt lat="46.2338244" lon="8.3052177"><ele>885.6666666666667</ele><time>2026-05-01T12:40:49.968Z</time></trkpt><trkpt lat="46.2337696" lon="8.305312"><ele>886.5</ele><time>2026-05-01T12:40:51.967Z</time></trkpt><trkpt lat="46.2337245" lon="8.3053932"><ele>887.3333333333333</ele><time>2026-05-01T12:40:53.959Z</time></trkpt><trkpt lat="46.2336721" lon="8.3054584"><ele>888.1666666666666</ele><time>2026-05-01T12:40:54.962Z</time></trkpt><trkpt lat="46.2336232" lon="8.3055478"><ele>889.0</ele><time>2026-05-01T12:40:56.975Z</time></trkpt><trkpt lat="46.2335728" lon="8.3056567"><ele>888.9999999999999</ele><time>2026-05-01T12:40:58.988Z</time></trkpt><trkpt lat="46.2335199" lon="8.3057514"><ele>889.0</ele><time>2026-05-01T12:41:00.988Z</time></trkpt><trkpt lat="46.2334712" lon="8.3058206"><ele>889.0</ele><time>2026-05-01T12:41:02.989Z</time></trkpt><trkpt lat="46.2334168" lon="8.3059005"><ele>889.0</ele><time>2026-05-01T12:41:04.991Z</time></trkpt><trkpt lat="46.233368" lon="8.3059925"><ele>888.9999999999999</ele><time>2026-05-01T12:41:06.994Z</time></trkpt><trkpt lat="46.2333256" lon="8.3060805"><ele>889.0</ele><time>2026-05-01T12:41:08.99Z</time></trkpt><trkpt lat="46.2332855" lon="8.3061681"><ele>888.9999999999999</ele><time>2026-05-01T12:41:10.997Z</time></trkpt><trkpt lat="46.2332357" lon="8.3062354"><ele>889.0</ele><time>2026-05-01T12:41:12.996Z</time></trkpt><trkpt lat="46.2331821" lon="8.3063048"><ele>889.0</ele><time>2026-05-01T12:41:14.993Z</time></trkpt><trkpt lat="46.233123" lon="8.3063892"><ele>889.0</ele><time>2026-05-01T12:41:16.999Z</time></trkpt><trkpt lat="46.2330787" lon="8.3064863"><ele>888.9999999999999</ele><time>2026-05-01T12:41:18.999Z</time></trkpt><trkpt lat="46.2330335" lon="8.3065736"><ele>889.0</ele><time>2026-05-01T12:41:20.998Z</time></trkpt><trkpt lat="46.2329853" lon="8.3066581"><ele>889.1666666666666</ele><time>2026-05-01T12:41:22.999Z</time></trkpt><trkpt lat="46.2329366" lon="8.3067465"><ele>889.3333333333333</ele><time>2026-05-01T12:41:25.003Z</time></trkpt><trkpt lat="46.2328768" lon="8.3068407"><ele>889.5</ele><time>2026-05-01T12:41:27Z</time></trkpt><trkpt lat="46.2328199" lon="8.3069203"><ele>889.6666666666667</ele><time>2026-05-01T12:41:29.002Z</time></trkpt><trkpt lat="46.2327635" lon="8.3070096"><ele>889.8333333333334</ele><time>2026-05-01T12:41:31.001Z</time></trkpt><trkpt lat="46.2327026" lon="8.307102"><ele>890.0</ele><time>2026-05-01T12:41:33.003Z</time></trkpt><trkpt lat="46.2326292" lon="8.3071557"><ele>890.0000000000001</ele><time>2026-05-01T12:41:35.009Z</time></trkpt><trkpt lat="46.2325565" lon="8.307188"><ele>890.0</ele><time>2026-05-01T12:41:37.028Z</time></trkpt><trkpt lat="46.2324808" lon="8.3071905"><ele>890.0</ele><time>2026-05-01T12:41:39.007Z</time></trkpt><trkpt lat="46.2323982" lon="8.3071944"><ele>890.0</ele><time>2026-05-01T12:41:41.007Z</time></trkpt><trkpt lat="46.2323099" lon="8.3072007"><ele>890.0000000000001</ele><time>2026-05-01T12:41:43.009Z</time></trkpt><trkpt lat="46.2322228" lon="8.3072051"><ele>890.0</ele><time>2026-05-01T12:41:45.006Z</time></trkpt><trkpt lat="46.2321408" lon="8.3072154"><ele>890.5000000000001</ele><time>2026-05-01T12:41:47.005Z</time></trkpt><trkpt lat="46.2320606" lon="8.3072327"><ele>891.0</ele><time>2026-05-01T12:41:49Z</time></trkpt><trkpt lat="46.2319718" lon="8.3072423"><ele>891.5</ele><time>2026-05-01T12:41:51.002Z</time></trkpt><trkpt lat="46.2318853" lon="8.3072537"><ele>892.0</ele><time>2026-05-01T12:41:53.005Z</time></trkpt><trkpt lat="46.2317873" lon="8.3072678"><ele>892.5000000000001</ele><time>2026-05-01T12:41:54.992Z</time></trkpt><trkpt lat="46.2316976" lon="8.3072724"><ele>893.0</ele><time>2026-05-01T12:41:57.002Z</time></trkpt><trkpt lat="46.2316008" lon="8.3072792"><ele>893.4</ele><time>2026-05-01T12:41:59.004Z</time></trkpt><trkpt lat="46.2315016" lon="8.3073042"><ele>893.8</ele><time>2026-05-01T12:42:01.003Z</time></trkpt><trkpt lat="46.2314012" lon="8.3073417"><ele>894.2</ele><time>2026-05-01T12:42:03.001Z</time></trkpt><trkpt lat="46.231301" lon="8.3073947"><ele>894.6</ele><time>2026-05-01T12:42:05.002Z</time></trkpt><trkpt lat="46.2312091" lon="8.3074574"><ele>895.0</ele><time>2026-05-01T12:42:07.004Z</time></trkpt><trkpt lat="46.2311221" lon="8.3075284"><ele>895.0</ele><time>2026-05-01T12:42:08.995Z</time></trkpt><trkpt lat="46.2310533" lon="8.3076132"><ele>895.0</ele><time>2026-05-01T12:42:10.997Z</time></trkpt><trkpt lat="46.2309823" lon="8.3077114"><ele>895.0</ele><time>2026-05-01T12:42:13.003Z</time></trkpt><trkpt lat="46.230896" lon="8.3078033"><ele>895.0</ele><time>2026-05-01T12:42:14.999Z</time></trkpt><trkpt lat="46.2308064" lon="8.307877"><ele>895.0</ele><time>2026-05-01T12:42:16.994Z</time></trkpt><trkpt lat="46.2307207" lon="8.307914"><ele>894.9999999999999</ele><time>2026-05-01T12:42:18.994Z</time></trkpt><trkpt lat="46.2306356" lon="8.3079451"><ele>895.0</ele><time>2026-05-01T12:42:20.992Z</time></trkpt><trkpt lat="46.2305488" lon="8.3079754"><ele>895.0</ele><time>2026-05-01T12:42:22.991Z</time></trkpt><trkpt lat="46.2304721" lon="8.3079741"><ele>895.0</ele><time>2026-05-01T12:42:25.001Z</time></trkpt><trkpt lat="46.2303819" lon="8.3079629"><ele>894.9999999999999</ele><time>2026-05-01T12:42:26.998Z</time></trkpt><trkpt lat="46.2303029" lon="8.3079589"><ele>895.0</ele><time>2026-05-01T12:42:28.996Z</time></trkpt><trkpt lat="46.2302031" lon="8.3079652"><ele>895.0</ele><time>2026-05-01T12:42:30.998Z</time></trkpt><trkpt lat="46.2301188" lon="8.3079593"><ele>895.0</ele><time>2026-05-01T12:42:32.998Z</time></trkpt><trkpt lat="46.2300421" lon="8.3079254"><ele>895.0</ele><time>2026-05-01T12:42:35.005Z</time></trkpt><trkpt lat="46.2299704" lon="8.3078753"><ele>895.0</ele><time>2026-05-01T12:42:37.004Z</time></trkpt><trkpt lat="46.2299023" lon="8.3078386"><ele>895.0</ele><time>2026-05-01T12:42:39.001Z</time></trkpt><trkpt lat="46.2298422" lon="8.3078011"><ele>895.0</ele><time>2026-05-01T12:42:41.007Z</time></trkpt><trkpt lat="46.2297862" lon="8.3077523"><ele>895.0</ele><time>2026-05-01T12:42:43.011Z</time></trkpt><trkpt lat="46.2298433" lon="8.3076598"><ele>895.0</ele><time>2026-05-01T12:42:46Z</time></trkpt><trkpt lat="46.2298881" lon="8.3075743"><ele>895.0</ele><time>2026-05-01T12:42:48.003Z</time></trkpt><trkpt lat="46.2299205" lon="8.3074911"><ele>895.0</ele><time>2026-05-01T12:42:50.002Z</time></trkpt><trkpt lat="46.2299322" lon="8.307399"><ele>895.0</ele><time>2026-05-01T12:42:52.007Z</time></trkpt><trkpt lat="46.2299189" lon="8.307301"><ele>895.0</ele><time>2026-05-01T12:42:54Z</time></trkpt><trkpt lat="46.229891" lon="8.3072123"><ele>895.0</ele><time>2026-05-01T12:42:55.992Z</time></trkpt><trkpt lat="46.229837" lon="8.3071547"><ele>895.0</ele><time>2026-05-01T12:42:59.004Z</time></trkpt><trkpt lat="46.2297677" lon="8.3071312"><ele>896.4999999999999</ele><time>2026-05-01T12:43:00.995Z</time></trkpt><trkpt lat="46.2296838" lon="8.3070913"><ele>898.0</ele><time>2026-05-01T12:43:02.995Z</time></trkpt><trkpt lat="46.2295963" lon="8.3070751"><ele>899.5</ele><time>2026-05-01T12:43:04.999Z</time></trkpt><trkpt lat="46.2295184" lon="8.3070821"><ele>901.0</ele><time>2026-05-01T12:43:06.997Z</time></trkpt><trkpt lat="46.2294518" lon="8.3070736"><ele>902.4999999999999</ele><time>2026-05-01T12:43:09.024Z</time></trkpt><trkpt lat="46.2293843" lon="8.3070614"><ele>904.0</ele><time>2026-05-01T12:43:11.003Z</time></trkpt><trkpt lat="46.2293176" lon="8.3070441"><ele>903.9999999999999</ele><time>2026-05-01T12:43:13.007Z</time></trkpt><trkpt lat="46.2292489" lon="8.3069766"><ele>904.0</ele><time>2026-05-01T12:43:15.997Z</time></trkpt><trkpt lat="46.2291839" lon="8.3069468"><ele>904.0</ele><time>2026-05-01T12:43:19.006Z</time></trkpt><trkpt lat="46.2291123" lon="8.3068726"><ele>904.0</ele><time>2026-05-01T12:43:23.01Z</time></trkpt><trkpt lat="46.2290536" lon="8.3068234"><ele>903.9999999999999</ele><time>2026-05-01T12:43:26.009Z</time></trkpt><trkpt lat="46.2289998" lon="8.3067399"><ele>904.0</ele><time>2026-05-01T12:43:30.012Z</time></trkpt><trkpt lat="46.2290367" lon="8.3066529"><ele>904.0</ele><time>2026-05-01T12:43:34.007Z</time></trkpt><trkpt lat="46.229102" lon="8.3066216"><ele>904.0</ele><time>2026-05-01T12:43:37.007Z</time></trkpt><trkpt lat="46.2291693" lon="8.3066179"><ele>904.0</ele><time>2026-05-01T12:43:40.027Z</time></trkpt><trkpt lat="46.2292366" lon="8.3066028"><ele>904.0</ele><time>2026-05-01T12:43:43.011Z</time></trkpt><trkpt lat="46.2293036" lon="8.3065873"><ele>904.0</ele><time>2026-05-01T12:43:46.006Z</time></trkpt><trkpt lat="46.229373" lon="8.3065801"><ele>904.0</ele><time>2026-05-01T12:43:49.006Z</time></trkpt><trkpt lat="46.2294432" lon="8.3065486"><ele>904.0</ele><time>2026-05-01T12:43:52.009Z</time></trkpt><trkpt lat="46.229516" lon="8.3065186"><ele>904.0</ele><time>2026-05-01T12:43:55Z</time></trkpt><trkpt lat="46.2295849" lon="8.3064791"><ele>904.0</ele><time>2026-05-01T12:43:58.004Z</time></trkpt><trkpt lat="46.2296468" lon="8.3064245"><ele>904.0</ele><time>2026-05-01T12:44:01.009Z</time></trkpt><trkpt lat="46.229709" lon="8.3063883"><ele>904.0</ele><time>2026-05-01T12:44:04.014Z</time></trkpt><trkpt lat="46.229771" lon="8.3063446"><ele>904.0</ele><time>2026-05-01T12:44:07.017Z</time></trkpt><trkpt lat="46.2298162" lon="8.3062725"><ele>904.0</ele><time>2026-05-01T12:44:10.017Z</time></trkpt><trkpt lat="46.2298247" lon="8.306169"><ele>904.0</ele><time>2026-05-01T12:44:13.025Z</time></trkpt><trkpt lat="46.229806" lon="8.306079"><ele>905.7142857142858</ele><time>2026-05-01T12:44:15.021Z</time></trkpt><trkpt lat="46.2297707" lon="8.3060012"><ele>907.4285714285713</ele><time>2026-05-01T12:44:17.021Z</time></trkpt><trkpt lat="46.2296989" lon="8.3059697"><ele>909.1428571428571</ele><time>2026-05-01T12:44:20.016Z</time></trkpt><trkpt lat="46.2296208" lon="8.3059614"><ele>910.8571428571429</ele><time>2026-05-01T12:44:23.023Z</time></trkpt><trkpt lat="46.2295423" lon="8.3059249"><ele>912.5714285714287</ele><time>2026-05-01T12:44:27.016Z</time></trkpt><trkpt lat="46.2294873" lon="8.3058745"><ele>914.2857142857142</ele><time>2026-05-01T12:44:30.01Z</time></trkpt><trkpt lat="46.2294313" lon="8.3058025"><ele>916.0</ele><time>2026-05-01T12:44:34.015Z</time></trkpt><trkpt lat="46.2293897" lon="8.3057237"><ele>916.0</ele><time>2026-05-01T12:44:38.016Z</time></trkpt><trkpt lat="46.2293517" lon="8.3056339"><ele>916.0</ele><time>2026-05-01T12:44:42.021Z</time></trkpt><trkpt lat="46.2293012" lon="8.3055661"><ele>916.0</ele><time>2026-05-01T12:44:45.004Z</time></trkpt><trkpt lat="46.2292467" lon="8.3055016"><ele>916.0</ele><time>2026-05-01T12:44:48.005Z</time></trkpt><trkpt lat="46.2291889" lon="8.305456"><ele>916.0</ele><time>2026-05-01T12:44:51.003Z</time></trkpt><trkpt lat="46.2291078" lon="8.3054323"><ele>916.0</ele><time>2026-05-01T12:44:54.003Z</time></trkpt><trkpt lat="46.2290333" lon="8.3054467"><ele>916.0</ele><time>2026-05-01T12:44:57.003Z</time></trkpt><trkpt lat="46.2289517" lon="8.3054714"><ele>917.1666666666666</ele><time>2026-05-01T12:45:00.001Z</time></trkpt><trkpt lat="46.2288707" lon="8.3055047"><ele>918.3333333333333</ele><time>2026-05-01T12:45:03.002Z</time></trkpt><trkpt lat="46.2287979" lon="8.3055549"><ele>919.5</ele><time>2026-05-01T12:45:06.006Z</time></trkpt><trkpt lat="46.2287277" lon="8.3056248"><ele>920.6666666666667</ele><time>2026-05-01T12:45:09.003Z</time></trkpt><trkpt lat="46.2286599" lon="8.3056799"><ele>921.8333333333334</ele><time>2026-05-01T12:45:13.014Z</time></trkpt><trkpt lat="46.2285963" lon="8.3057586"><ele>923.0</ele><time>2026-05-01T12:45:17.005Z</time></trkpt><trkpt lat="46.2285199" lon="8.305757"><ele>923.0</ele><time>2026-05-01T12:45:21.003Z</time></trkpt><trkpt lat="46.228462" lon="8.3057109"><ele>923.0</ele><time>2026-05-01T12:45:24.009Z</time></trkpt><trkpt lat="46.2284192" lon="8.3056437"><ele>923.0</ele><time>2026-05-01T12:45:27.009Z</time></trkpt><trkpt lat="46.2283558" lon="8.3055666"><ele>923.0</ele><time>2026-05-01T12:45:31Z</time></trkpt><trkpt lat="46.2282916" lon="8.3055199"><ele>923.0</ele><time>2026-05-01T12:45:33.995Z</time></trkpt><trkpt lat="46.2282326" lon="8.3054636"><ele>923.0</ele><time>2026-05-01T12:45:37.003Z</time></trkpt><trkpt lat="46.2281737" lon="8.3054106"><ele>923.0</ele><time>2026-05-01T12:45:40.003Z</time></trkpt><trkpt lat="46.2281119" lon="8.3053435"><ele>924.5000000000001</ele><time>2026-05-01T12:45:44.025Z</time></trkpt><trkpt lat="46.2280607" lon="8.3052592"><ele>926.0</ele><time>2026-05-01T12:45:48.005Z</time></trkpt><trkpt lat="46.2280142" lon="8.305163"><ele>927.5</ele><time>2026-05-01T12:45:52.001Z</time></trkpt><trkpt lat="46.2279729" lon="8.3050903"><ele>929.0</ele><time>2026-05-01T12:45:54.997Z</time></trkpt><trkpt lat="46.2279329" lon="8.3050185"><ele>930.5000000000001</ele><time>2026-05-01T12:45:58.005Z</time></trkpt><trkpt lat="46.227876" lon="8.30493"><ele>932.0</ele><time>2026-05-01T12:46:02.003Z</time></trkpt><trkpt lat="46.2278329" lon="8.3048301"><ele>934.2857142857143</ele><time>2026-05-01T12:46:06.002Z</time></trkpt><trkpt lat="46.2278006" lon="8.3047311"><ele>936.5714285714284</ele><time>2026-05-01T12:46:09.999Z</time></trkpt><trkpt lat="46.2277728" lon="8.3046353"><ele>938.8571428571428</ele><time>2026-05-01T12:46:14.004Z</time></trkpt><trkpt lat="46.2277371" lon="8.3045567"><ele>941.1428571428571</ele><time>2026-05-01T12:46:18.002Z</time></trkpt><trkpt lat="46.2276821" lon="8.3044724"><ele>943.4285714285713</ele><time>2026-05-01T12:46:22.002Z</time></trkpt><trkpt lat="46.2276414" lon="8.3043957"><ele>945.7142857142856</ele><time>2026-05-01T12:46:25.003Z</time></trkpt><trkpt lat="46.2275981" lon="8.3043296"><ele>947.9999999999999</ele><time>2026-05-01T12:46:28Z</time></trkpt><trkpt lat="46.2275481" lon="8.3042378"><ele>948.0</ele><time>2026-05-01T12:46:31.995Z</time></trkpt><trkpt lat="46.2275096" lon="8.3041567"><ele>948.0</ele><time>2026-05-01T12:46:36.985Z</time></trkpt><trkpt lat="46.2275672" lon="8.3040648"><ele>948.0</ele><time>2026-05-01T12:46:38.979Z</time></trkpt><trkpt lat="46.2274861" lon="8.304012"><ele>948.0</ele><time>2026-05-01T12:46:43.974Z</time></trkpt><trkpt lat="46.2274229" lon="8.3039486"><ele>948.0</ele><time>2026-05-01T12:46:46.02Z</time></trkpt><trkpt lat="46.2273636" lon="8.303895"><ele>948.0</ele><time>2026-05-01T12:46:48.986Z</time></trkpt><trkpt lat="46.2273163" lon="8.3038301"><ele>949.5714285714284</ele><time>2026-05-01T12:46:52.985Z</time></trkpt><trkpt lat="46.2272596" lon="8.3037831"><ele>951.1428571428571</ele><time>2026-05-01T12:46:56.992Z</time></trkpt><trkpt lat="46.2272157" lon="8.3036996"><ele>952.7142857142857</ele><time>2026-05-01T12:47:00.992Z</time></trkpt><trkpt lat="46.2271536" lon="8.3036295"><ele>954.2857142857142</ele><time>2026-05-01T12:47:03.984Z</time></trkpt><trkpt lat="46.2270907" lon="8.3035759"><ele>955.8571428571429</ele><time>2026-05-01T12:47:07.987Z</time></trkpt><trkpt lat="46.2270174" lon="8.3035338"><ele>957.4285714285714</ele><time>2026-05-01T12:47:11.987Z</time></trkpt><trkpt lat="46.2269593" lon="8.303476"><ele>959.0</ele><time>2026-05-01T12:47:14.99Z</time></trkpt><trkpt lat="46.2269045" lon="8.3033953"><ele>959.0</ele><time>2026-05-01T12:47:17.992Z</time></trkpt><trkpt lat="46.2268484" lon="8.3033422"><ele>959.0</ele><time>2026-05-01T12:47:20.988Z</time></trkpt><trkpt lat="46.2267693" lon="8.303294"><ele>959.0</ele><time>2026-05-01T12:47:23.985Z</time></trkpt><trkpt lat="46.226711" lon="8.3032034"><ele>959.0</ele><time>2026-05-01T12:47:27.977Z</time></trkpt><trkpt lat="46.2267235" lon="8.3031139"><ele>959.0</ele><time>2026-05-01T12:47:31.981Z</time></trkpt><trkpt lat="46.2267872" lon="8.3031084"><ele>959.0</ele><time>2026-05-01T12:47:36.982Z</time></trkpt><trkpt lat="46.2268445" lon="8.3031522"><ele>959.0</ele><time>2026-05-01T12:47:40.986Z</time></trkpt><trkpt lat="46.2269197" lon="8.3031679"><ele>959.0</ele><time>2026-05-01T12:47:43.987Z</time></trkpt><trkpt lat="46.2269918" lon="8.3031808"><ele>959.0</ele><time>2026-05-01T12:47:47.982Z</time></trkpt><trkpt lat="46.2270634" lon="8.3031807"><ele>959.0</ele><time>2026-05-01T12:47:51.987Z</time></trkpt><trkpt lat="46.2271368" lon="8.3031418"><ele>959.0</ele><time>2026-05-01T12:47:55.983Z</time></trkpt><trkpt lat="46.2272038" lon="8.3031364"><ele>959.0</ele><time>2026-05-01T12:47:59.982Z</time></trkpt><trkpt lat="46.2272751" lon="8.3031334"><ele>959.0</ele><time>2026-05-01T12:48:02.979Z</time></trkpt><trkpt lat="46.2273497" lon="8.3031594"><ele>959.0</ele><time>2026-05-01T12:48:06.981Z</time></trkpt><trkpt lat="46.2274265" lon="8.3031432"><ele>960.5714285714286</ele><time>2026-05-01T12:48:09.983Z</time></trkpt><trkpt lat="46.2274982" lon="8.3031343"><ele>962.1428571428571</ele><time>2026-05-01T12:48:12.984Z</time></trkpt><trkpt lat="46.2275736" lon="8.3031474"><ele>963.7142857142858</ele><time>2026-05-01T12:48:17.991Z</time></trkpt><trkpt lat="46.2276502" lon="8.3031272"><ele>965.2857142857143</ele><time>2026-05-01T12:48:20.977Z</time></trkpt><trkpt lat="46.2277168" lon="8.3031351"><ele>966.8571428571429</ele><time>2026-05-01T12:48:23.971Z</time></trkpt><trkpt lat="46.2277813" lon="8.3031595"><ele>968.4285714285716</ele><time>2026-05-01T12:48:27.971Z</time></trkpt><trkpt lat="46.2278533" lon="8.3031638"><ele>970.0000000000001</ele><time>2026-05-01T12:48:31.973Z</time></trkpt><trkpt lat="46.227917" lon="8.3031757"><ele>970.0000000000001</ele><time>2026-05-01T12:48:34.978Z</time></trkpt><trkpt lat="46.2279816" lon="8.3031856"><ele>970.0</ele><time>2026-05-01T12:48:37.982Z</time></trkpt><trkpt lat="46.2280415" lon="8.3032274"><ele>970.0000000000001</ele><time>2026-05-01T12:48:41.982Z</time></trkpt><trkpt lat="46.2281149" lon="8.3032517"><ele>970.0000000000001</ele><time>2026-05-01T12:48:44.979Z</time></trkpt><trkpt lat="46.2282044" lon="8.3032444"><ele>970.0</ele><time>2026-05-01T12:48:47.988Z</time></trkpt><trkpt lat="46.2282733" lon="8.3031908"><ele>970.0000000000001</ele><time>2026-05-01T12:48:49.996Z</time></trkpt><trkpt lat="46.2283176" lon="8.3031207"><ele>970.0000000000001</ele><time>2026-05-01T12:48:51.996Z</time></trkpt><trkpt lat="46.2283624" lon="8.3030084"><ele>973.3333333333333</ele><time>2026-05-01T12:48:54.985Z</time></trkpt><trkpt lat="46.2283631" lon="8.3028971"><ele>976.6666666666666</ele><time>2026-05-01T12:48:57.982Z</time></trkpt><trkpt lat="46.2283229" lon="8.3028268"><ele>980.0</ele><time>2026-05-01T12:48:59.98Z</time></trkpt><trkpt lat="46.2282492" lon="8.3027991"><ele>983.3333333333333</ele><time>2026-05-01T12:49:02.98Z</time></trkpt><trkpt lat="46.2281644" lon="8.3027512"><ele>986.6666666666666</ele><time>2026-05-01T12:49:05.989Z</time></trkpt><trkpt lat="46.2280853" lon="8.3026893"><ele>990.0</ele><time>2026-05-01T12:49:08.989Z</time></trkpt><trkpt lat="46.2280558" lon="8.3025854"><ele>990.0</ele><time>2026-05-01T12:49:12.995Z</time></trkpt><trkpt lat="46.2280357" lon="8.3024836"><ele>990.0</ele><time>2026-05-01T12:49:16.989Z</time></trkpt><trkpt lat="46.2281088" lon="8.3024651"><ele>990.0</ele><time>2026-05-01T12:49:22.965Z</time></trkpt><trkpt lat="46.2281838" lon="8.3025463"><ele>990.0</ele><time>2026-05-01T12:49:25.97Z</time></trkpt><trkpt lat="46.2282657" lon="8.3025803"><ele>990.0</ele><time>2026-05-01T12:49:27.95Z</time></trkpt><trkpt lat="46.2283424" lon="8.302549"><ele>990.0</ele><time>2026-05-01T12:49:29.956Z</time></trkpt><trkpt lat="46.2284019" lon="8.3025064"><ele>990.7142857142856</ele><time>2026-05-01T12:49:32.965Z</time></trkpt><trkpt lat="46.2284435" lon="8.3024044"><ele>991.4285714285713</ele><time>2026-05-01T12:49:37.975Z</time></trkpt><trkpt lat="46.2285115" lon="8.3023804"><ele>992.1428571428571</ele><time>2026-05-01T12:49:41.979Z</time></trkpt><trkpt lat="46.2285879" lon="8.3023759"><ele>992.8571428571428</ele><time>2026-05-01T12:49:46.986Z</time></trkpt><trkpt lat="46.2286575" lon="8.3023553"><ele>993.5714285714284</ele><time>2026-05-01T12:49:51.985Z</time></trkpt><trkpt lat="46.228725" lon="8.3023409"><ele>994.2857142857143</ele><time>2026-05-01T12:49:57.974Z</time></trkpt><trkpt lat="46.2287998" lon="8.302311"><ele>995.0</ele><time>2026-05-01T12:50:01.983Z</time></trkpt><trkpt lat="46.2288528" lon="8.3022317"><ele>994.0</ele><time>2026-05-01T12:50:04.98Z</time></trkpt><trkpt lat="46.2289225" lon="8.3022216"><ele>993.0</ele><time>2026-05-01T12:50:09.989Z</time></trkpt><trkpt lat="46.2289964" lon="8.3022311"><ele>992.0</ele><time>2026-05-01T12:50:12.999Z</time></trkpt><trkpt lat="46.2290748" lon="8.3022604"><ele>991.0</ele><time>2026-05-01T12:50:15.99Z</time></trkpt><trkpt lat="46.2291508" lon="8.3023004"><ele>990.0</ele><time>2026-05-01T12:50:18.995Z</time></trkpt><trkpt lat="46.2292278" lon="8.3023096"><ele>989.0</ele><time>2026-05-01T12:50:22.006Z</time></trkpt><trkpt lat="46.2292879" lon="8.3022768"><ele>988.0</ele><time>2026-05-01T12:50:24.986Z</time></trkpt><trkpt lat="46.229351" lon="8.3022176"><ele>992.0</ele><time>2026-05-01T12:50:28.986Z</time></trkpt><trkpt lat="46.2294191" lon="8.3021875"><ele>996.0</ele><time>2026-05-01T12:50:32.979Z</time></trkpt><trkpt lat="46.2295007" lon="8.3021871"><ele>1000.0</ele><time>2026-05-01T12:50:36.993Z</time></trkpt><trkpt lat="46.2295579" lon="8.3021427"><ele>1004.0</ele><time>2026-05-01T12:50:40.985Z</time></trkpt><trkpt lat="46.229574" lon="8.3020309"><ele>1008.0</ele><time>2026-05-01T12:50:43.984Z</time></trkpt><trkpt lat="46.2295764" lon="8.3019144"><ele>1012.0</ele><time>2026-05-01T12:50:46.987Z</time></trkpt><trkpt lat="46.2295332" lon="8.3018309"><ele>1016.0</ele><time>2026-05-01T12:50:49.977Z</time></trkpt><trkpt lat="46.2294543" lon="8.3018212"><ele>1016.0000000000001</ele><time>2026-05-01T12:50:53.006Z</time></trkpt><trkpt lat="46.2293799" lon="8.3018082"><ele>1016.0</ele><time>2026-05-01T12:50:56.981Z</time></trkpt><trkpt lat="46.2293102" lon="8.3017782"><ele>1016.0</ele><time>2026-05-01T12:50:59.99Z</time></trkpt><trkpt lat="46.2292408" lon="8.3017346"><ele>1016.0</ele><time>2026-05-01T12:51:03.986Z</time></trkpt><trkpt lat="46.2291724" lon="8.3017287"><ele>1016.0000000000001</ele><time>2026-05-01T12:51:08.995Z</time></trkpt><trkpt lat="46.2290929" lon="8.3017013"><ele>1016.0</ele><time>2026-05-01T12:51:13.988Z</time></trkpt><trkpt lat="46.2290204" lon="8.3016636"><ele>1016.4285714285714</ele><time>2026-05-01T12:51:16.988Z</time></trkpt><trkpt lat="46.2289433" lon="8.3016317"><ele>1016.8571428571429</ele><time>2026-05-01T12:51:19.985Z</time></trkpt><trkpt lat="46.2288866" lon="8.3015791"><ele>1017.2857142857143</ele><time>2026-05-01T12:51:22.985Z</time></trkpt><trkpt lat="46.2288279" lon="8.3015291"><ele>1017.7142857142858</ele><time>2026-05-01T12:51:27.971Z</time></trkpt><trkpt lat="46.2287511" lon="8.3015158"><ele>1018.1428571428571</ele><time>2026-05-01T12:51:32.975Z</time></trkpt><trkpt lat="46.2286861" lon="8.3015181"><ele>1018.5714285714287</ele><time>2026-05-01T12:51:35.979Z</time></trkpt><trkpt lat="46.2286431" lon="8.3014429"><ele>1019.0000000000001</ele><time>2026-05-01T12:51:38.989Z</time></trkpt><trkpt lat="46.228564" lon="8.3014207"><ele>1021.1666666666667</ele><time>2026-05-01T12:51:42.982Z</time></trkpt><trkpt lat="46.2284851" lon="8.3013835"><ele>1023.3333333333334</ele><time>2026-05-01T12:51:45.982Z</time></trkpt><trkpt lat="46.2284442" lon="8.3013038"><ele>1025.5</ele><time>2026-05-01T12:51:49.984Z</time></trkpt><trkpt lat="46.2283944" lon="8.3012314"><ele>1027.6666666666667</ele><time>2026-05-01T12:51:54Z</time></trkpt><trkpt lat="46.2283226" lon="8.3012002"><ele>1029.8333333333333</ele><time>2026-05-01T12:51:56.983Z</time></trkpt><trkpt lat="46.2282522" lon="8.3011603"><ele>1032.0</ele><time>2026-05-01T12:51:59.991Z</time></trkpt><trkpt lat="46.2281657" lon="8.3011328"><ele>1031.1666666666667</ele><time>2026-05-01T12:52:03.991Z</time></trkpt><trkpt lat="46.2280961" lon="8.3011056"><ele>1030.3333333333333</ele><time>2026-05-01T12:52:07.989Z</time></trkpt><trkpt lat="46.2280482" lon="8.3010358"><ele>1029.5</ele><time>2026-05-01T12:52:11.987Z</time></trkpt><trkpt lat="46.227982" lon="8.3009911"><ele>1028.6666666666665</ele><time>2026-05-01T12:52:16.965Z</time></trkpt><trkpt lat="46.2279172" lon="8.3009921"><ele>1027.8333333333333</ele><time>2026-05-01T12:52:21.966Z</time></trkpt><trkpt lat="46.2278054" lon="8.3009468"><ele>1027.0</ele><time>2026-05-01T12:52:23.961Z</time></trkpt><trkpt lat="46.2277532" lon="8.3008669"><ele>1027.0</ele><time>2026-05-01T12:52:25.99Z</time></trkpt><trkpt lat="46.2276974" lon="8.3007983"><ele>1027.0</ele><time>2026-05-01T12:52:28.995Z</time></trkpt><trkpt lat="46.2276706" lon="8.300686"><ele>1027.0</ele><time>2026-05-01T12:52:32.995Z</time></trkpt><trkpt lat="46.227636" lon="8.3005906"><ele>1027.0</ele><time>2026-05-01T12:52:37.005Z</time></trkpt><trkpt lat="46.2275991" lon="8.3005002"><ele>1027.0</ele><time>2026-05-01T12:52:41.003Z</time></trkpt><trkpt lat="46.227572" lon="8.3004143"><ele>1027.0</ele><time>2026-05-01T12:52:44.994Z</time></trkpt><trkpt lat="46.2276096" lon="8.3003297"><ele>1027.0</ele><time>2026-05-01T12:52:49.989Z</time></trkpt><trkpt lat="46.2276806" lon="8.3003028"><ele>1029.5714285714287</ele><time>2026-05-01T12:52:53.994Z</time></trkpt><trkpt lat="46.2277531" lon="8.3002872"><ele>1032.1428571428573</ele><time>2026-05-01T12:52:57.993Z</time></trkpt><trkpt lat="46.2278286" lon="8.3003216"><ele>1034.7142857142858</ele><time>2026-05-01T12:53:01.999Z</time></trkpt><trkpt lat="46.2278898" lon="8.3003666"><ele>1037.2857142857142</ele><time>2026-05-01T12:53:05.998Z</time></trkpt><trkpt lat="46.2279698" lon="8.3003559"><ele>1039.8571428571427</ele><time>2026-05-01T12:53:09.999Z</time></trkpt><trkpt lat="46.2280412" lon="8.3003211"><ele>1042.4285714285713</ele><time>2026-05-01T12:53:13.994Z</time></trkpt><trkpt lat="46.2281027" lon="8.3002665"><ele>1045.0</ele><time>2026-05-01T12:53:16.996Z</time></trkpt><trkpt lat="46.2281702" lon="8.300212"><ele>1045.0</ele><time>2026-05-01T12:53:20.008Z</time></trkpt><trkpt lat="46.2282441" lon="8.3001948"><ele>1045.0</ele><time>2026-05-01T12:53:24.003Z</time></trkpt><trkpt lat="46.2283134" lon="8.3001667"><ele>1045.0</ele><time>2026-05-01T12:53:28.005Z</time></trkpt><trkpt lat="46.2283746" lon="8.3001374"><ele>1045.0</ele><time>2026-05-01T12:53:30.994Z</time></trkpt><trkpt lat="46.2284406" lon="8.30014"><ele>1045.0</ele><time>2026-05-01T12:53:34.996Z</time></trkpt><trkpt lat="46.2285082" lon="8.3001344"><ele>1045.0</ele><time>2026-05-01T12:53:37.998Z</time></trkpt><trkpt lat="46.228574" lon="8.3001109"><ele>1045.0</ele><time>2026-05-01T12:53:41Z</time></trkpt><trkpt lat="46.2286346" lon="8.3000635"><ele>1045.0</ele><time>2026-05-01T12:53:44Z</time></trkpt><trkpt lat="46.2287074" lon="8.3000077"><ele>1045.0</ele><time>2026-05-01T12:53:48.003Z</time></trkpt><trkpt lat="46.2287867" lon="8.2999564"><ele>1045.0</ele><time>2026-05-01T12:53:52.003Z</time></trkpt><trkpt lat="46.2288643" lon="8.2999332"><ele>1045.0</ele><time>2026-05-01T12:53:56Z</time></trkpt><trkpt lat="46.2289317" lon="8.2999303"><ele>1045.0</ele><time>2026-05-01T12:53:59.998Z</time></trkpt><trkpt lat="46.2290054" lon="8.2999532"><ele>1045.0</ele><time>2026-05-01T12:54:04.001Z</time></trkpt><trkpt lat="46.2290776" lon="8.299976"><ele>1045.857142857143</ele><time>2026-05-01T12:54:07.994Z</time></trkpt><trkpt lat="46.2291548" lon="8.2999979"><ele>1046.7142857142856</ele><time>2026-05-01T12:54:11.994Z</time></trkpt><trkpt lat="46.2292383" lon="8.2999978"><ele>1047.5714285714284</ele><time>2026-05-01T12:54:16Z</time></trkpt><trkpt lat="46.2293054" lon="8.2999994"><ele>1048.4285714285713</ele><time>2026-05-01T12:54:18.995Z</time></trkpt><trkpt lat="46.2293708" lon="8.2999988"><ele>1049.2857142857142</ele><time>2026-05-01T12:54:23.003Z</time></trkpt><trkpt lat="46.2294444" lon="8.2999849"><ele>1050.142857142857</ele><time>2026-05-01T12:54:27.004Z</time></trkpt><trkpt lat="46.2295173" lon="8.2999842"><ele>1051.0</ele><time>2026-05-01T12:54:30.002Z</time></trkpt><trkpt lat="46.2295915" lon="8.2999766"><ele>1051.0</ele><time>2026-05-01T12:54:33.001Z</time></trkpt><trkpt lat="46.2296524" lon="8.2999314"><ele>1051.0</ele><time>2026-05-01T12:54:36.014Z</time></trkpt><trkpt lat="46.2296979" lon="8.2998392"><ele>1051.0</ele><time>2026-05-01T12:54:38.999Z</time></trkpt><trkpt lat="46.2297395" lon="8.2997313"><ele>1051.0</ele><time>2026-05-01T12:54:42.003Z</time></trkpt><trkpt lat="46.2297735" lon="8.2996197"><ele>1051.0</ele><time>2026-05-01T12:54:45.001Z</time></trkpt><trkpt lat="46.2298089" lon="8.299519"><ele>1051.0</ele><time>2026-05-01T12:54:48.004Z</time></trkpt><trkpt lat="46.2298426" lon="8.2994348"><ele>1052.5714285714287</ele><time>2026-05-01T12:56:07.018Z</time></trkpt><trkpt lat="46.2298627" lon="8.2993477"><ele>1054.142857142857</ele><time>2026-05-01T12:56:12.01Z</time></trkpt><trkpt lat="46.2298809" lon="8.2992595"><ele>1055.7142857142858</ele><time>2026-05-01T12:56:15.01Z</time></trkpt><trkpt lat="46.2299099" lon="8.2991582"><ele>1057.2857142857142</ele><time>2026-05-01T12:56:19.001Z</time></trkpt><trkpt lat="46.2299537" lon="8.2990823"><ele>1058.857142857143</ele><time>2026-05-01T12:56:23.011Z</time></trkpt><trkpt lat="46.2300123" lon="8.2990104"><ele>1060.4285714285716</ele><time>2026-05-01T12:56:27.002Z</time></trkpt><trkpt lat="46.2300682" lon="8.2989273"><ele>1062.0</ele><time>2026-05-01T12:56:31.006Z</time></trkpt><trkpt lat="46.2301204" lon="8.2988754"><ele>1063.142857142857</ele><time>2026-05-01T12:56:34.008Z</time></trkpt><trkpt lat="46.2301728" lon="8.2988098"><ele>1064.2857142857144</ele><time>2026-05-01T12:56:38.016Z</time></trkpt><trkpt lat="46.2302162" lon="8.2987405"><ele>1065.4285714285716</ele><time>2026-05-01T12:56:42.009Z</time></trkpt><trkpt lat="46.2302505" lon="8.2986422"><ele>1066.5714285714287</ele><time>2026-05-01T12:56:46.012Z</time></trkpt><trkpt lat="46.2302942" lon="8.2985695"><ele>1067.7142857142858</ele><time>2026-05-01T12:56:50.013Z</time></trkpt><trkpt lat="46.2303363" lon="8.2984768"><ele>1068.857142857143</ele><time>2026-05-01T12:56:53.998Z</time></trkpt><trkpt lat="46.2303932" lon="8.2984174"><ele>1070.0</ele><time>2026-05-01T12:56:58.007Z</time></trkpt><trkpt lat="46.2304373" lon="8.2983348"><ele>1070.0</ele><time>2026-05-01T12:57:02.012Z</time></trkpt><trkpt lat="46.2304826" lon="8.2982596"><ele>1070.0</ele><time>2026-05-01T12:57:06.012Z</time></trkpt><trkpt lat="46.2305428" lon="8.2981807"><ele>1070.0</ele><time>2026-05-01T12:57:09.999Z</time></trkpt><trkpt lat="46.2305851" lon="8.298107"><ele>1070.0</ele><time>2026-05-01T12:57:13.006Z</time></trkpt><trkpt lat="46.2306332" lon="8.2980482"><ele>1070.0</ele><time>2026-05-01T12:57:16.003Z</time></trkpt><trkpt lat="46.230702" lon="8.2979812"><ele>1070.0</ele><time>2026-05-01T12:57:20.009Z</time></trkpt><trkpt lat="46.2307649" lon="8.2979196"><ele>1070.0</ele><time>2026-05-01T12:57:24.01Z</time></trkpt><trkpt lat="46.2308139" lon="8.2978505"><ele>1071.6666666666667</ele><time>2026-05-01T12:57:27.01Z</time></trkpt><trkpt lat="46.2308582" lon="8.2977622"><ele>1073.3333333333335</ele><time>2026-05-01T12:57:30.003Z</time></trkpt><trkpt lat="46.2309113" lon="8.2976691"><ele>1075.0</ele><time>2026-05-01T12:57:34.012Z</time></trkpt><trkpt lat="46.2309651" lon="8.2976001"><ele>1076.6666666666667</ele><time>2026-05-01T12:57:36.994Z</time></trkpt><trkpt lat="46.2310274" lon="8.2975483"><ele>1078.3333333333333</ele><time>2026-05-01T12:57:40Z</time></trkpt><trkpt lat="46.2310885" lon="8.2974879"><ele>1080.0</ele><time>2026-05-01T12:57:42.993Z</time></trkpt><trkpt lat="46.2311634" lon="8.2974326"><ele>1080.0</ele><time>2026-05-01T12:57:46.992Z</time></trkpt><trkpt lat="46.2312035" lon="8.2973584"><ele>1080.0</ele><time>2026-05-01T12:57:49.968Z</time></trkpt><trkpt lat="46.2312957" lon="8.2974085"><ele>1080.0</ele><time>2026-05-01T12:57:54.969Z</time></trkpt><trkpt lat="46.2313646" lon="8.2974718"><ele>1080.0</ele><time>2026-05-01T12:57:57.968Z</time></trkpt><trkpt lat="46.2314415" lon="8.2974324"><ele>1080.0</ele><time>2026-05-01T12:58:00.969Z</time></trkpt><trkpt lat="46.2314784" lon="8.2973479"><ele>1080.0</ele><time>2026-05-01T12:58:03.978Z</time></trkpt><trkpt lat="46.2315089" lon="8.29725"><ele>1080.3333333333333</ele><time>2026-05-01T12:58:07.979Z</time></trkpt><trkpt lat="46.2315798" lon="8.2973233"><ele>1080.6666666666667</ele><time>2026-05-01T12:58:12.986Z</time></trkpt><trkpt lat="46.2316515" lon="8.2972925"><ele>1081.0</ele><time>2026-05-01T12:58:14.969Z</time></trkpt><trkpt lat="46.2317171" lon="8.2972092"><ele>1081.3333333333335</ele><time>2026-05-01T12:58:17.97Z</time></trkpt><trkpt lat="46.2317666" lon="8.2972701"><ele>1081.6666666666667</ele><time>2026-05-01T12:58:23.979Z</time></trkpt><trkpt lat="46.2317207" lon="8.2971646"><ele>1082.0</ele><time>2026-05-01T12:58:30.971Z</time></trkpt><trkpt lat="46.2316854" lon="8.2970454"><ele>1083.8333333333335</ele><time>2026-05-01T12:58:32.967Z</time></trkpt><trkpt lat="46.231654" lon="8.2969236"><ele>1085.6666666666667</ele><time>2026-05-01T12:58:34.977Z</time></trkpt><trkpt lat="46.2316176" lon="8.2968442"><ele>1087.5</ele><time>2026-05-01T12:58:36.976Z</time></trkpt><trkpt lat="46.231559" lon="8.2967683"><ele>1089.3333333333333</ele><time>2026-05-01T12:58:39.977Z</time></trkpt><trkpt lat="46.2314903" lon="8.2967287"><ele>1091.1666666666665</ele><time>2026-05-01T12:58:42.978Z</time></trkpt><trkpt lat="46.2314232" lon="8.2966948"><ele>1093.0</ele><time>2026-05-01T12:58:46.978Z</time></trkpt><trkpt lat="46.2313477" lon="8.2966724"><ele>1093.0</ele><time>2026-05-01T12:58:50.979Z</time></trkpt><trkpt lat="46.2312994" lon="8.2966129"><ele>1093.0</ele><time>2026-05-01T12:58:53.982Z</time></trkpt><trkpt lat="46.2312381" lon="8.2965574"><ele>1093.0</ele><time>2026-05-01T12:58:56.983Z</time></trkpt><trkpt lat="46.231174" lon="8.2965232"><ele>1093.0</ele><time>2026-05-01T12:58:59.973Z</time></trkpt><trkpt lat="46.2311188" lon="8.2964704"><ele>1093.0</ele><time>2026-05-01T12:59:02.973Z</time></trkpt><trkpt lat="46.2310682" lon="8.2964006"><ele>1093.0</ele><time>2026-05-01T12:59:05.978Z</time></trkpt><trkpt lat="46.2310343" lon="8.296315"><ele>1093.0</ele><time>2026-05-01T12:59:08.989Z</time></trkpt><trkpt lat="46.231024" lon="8.29621"><ele>1095.8333333333333</ele><time>2026-05-01T12:59:13.995Z</time></trkpt><trkpt lat="46.230987" lon="8.2961033"><ele>1098.6666666666665</ele><time>2026-05-01T12:59:18.995Z</time></trkpt><trkpt lat="46.2309507" lon="8.2960058"><ele>1101.5</ele><time>2026-05-01T12:59:23.003Z</time></trkpt><trkpt lat="46.2308998" lon="8.2959113"><ele>1104.3333333333333</ele><time>2026-05-01T12:59:27.001Z</time></trkpt><trkpt lat="46.2308644" lon="8.2958258"><ele>1107.1666666666667</ele><time>2026-05-01T12:59:31.003Z</time></trkpt><trkpt lat="46.2308079" lon="8.2957734"><ele>1110.0</ele><time>2026-05-01T12:59:35Z</time></trkpt><trkpt lat="46.2307233" lon="8.29573"><ele>1110.0000000000002</ele><time>2026-05-01T12:59:39.001Z</time></trkpt><trkpt lat="46.2306501" lon="8.2956964"><ele>1110.0</ele><time>2026-05-01T12:59:42.001Z</time></trkpt><trkpt lat="46.2305958" lon="8.2956459"><ele>1110.0</ele><time>2026-05-01T12:59:44.999Z</time></trkpt><trkpt lat="46.2306082" lon="8.2957634"><ele>1110.0</ele><time>2026-05-01T12:59:58.986Z</time></trkpt><trkpt lat="46.2306777" lon="8.2957986"><ele>1110.0</ele><time>2026-05-01T13:00:03.987Z</time></trkpt><trkpt lat="46.2307441" lon="8.2957962"><ele>1110.0000000000002</ele><time>2026-05-01T13:00:07.985Z</time></trkpt><trkpt lat="46.2308135" lon="8.2957766"><ele>1110.0</ele><time>2026-05-01T13:00:12.99Z</time></trkpt><trkpt lat="46.2308756" lon="8.2957492"><ele>1110.0000000000002</ele><time>2026-05-01T13:00:15.98Z</time></trkpt><trkpt lat="46.2309449" lon="8.295803"><ele>1110.0</ele><time>2026-05-01T13:00:19.994Z</time></trkpt><trkpt lat="46.2310208" lon="8.2958052"><ele>1110.0</ele><time>2026-05-01T13:00:23.991Z</time></trkpt><trkpt lat="46.2310879" lon="8.2958045"><ele>1110.0</ele><time>2026-05-01T13:00:28.997Z</time></trkpt><trkpt lat="46.2311568" lon="8.2958227"><ele>1110.0</ele><time>2026-05-01T13:00:32.993Z</time></trkpt><trkpt lat="46.2312297" lon="8.2958232"><ele>1110.0000000000002</ele><time>2026-05-01T13:00:36Z</time></trkpt><trkpt lat="46.231298" lon="8.2958197"><ele>1110.0</ele><time>2026-05-01T13:00:39.003Z</time></trkpt><trkpt lat="46.2313712" lon="8.2958101"><ele>1110.0</ele><time>2026-05-01T13:00:42.002Z</time></trkpt><trkpt lat="46.2314549" lon="8.2958058"><ele>1110.0</ele><time>2026-05-01T13:00:46.017Z</time></trkpt><trkpt lat="46.2315151" lon="8.2957403"><ele>1110.0</ele><time>2026-05-01T13:00:49.007Z</time></trkpt><trkpt lat="46.2315443" lon="8.2956592"><ele>1110.0</ele><time>2026-05-01T13:00:50.999Z</time></trkpt><trkpt lat="46.2315308" lon="8.2955401"><ele>1110.0</ele><time>2026-05-01T13:00:53.994Z</time></trkpt><trkpt lat="46.2314714" lon="8.2954606"><ele>1110.0</ele><time>2026-05-01T13:00:56.996Z</time></trkpt><trkpt lat="46.2313972" lon="8.2954094"><ele>1112.857142857143</ele><time>2026-05-01T13:01:00.009Z</time></trkpt><trkpt lat="46.2313326" lon="8.2953882"><ele>1115.7142857142858</ele><time>2026-05-01T13:01:03.001Z</time></trkpt><trkpt lat="46.2312603" lon="8.2953471"><ele>1118.5714285714284</ele><time>2026-05-01T13:01:07.002Z</time></trkpt><trkpt lat="46.2311869" lon="8.295305"><ele>1121.4285714285716</ele><time>2026-05-01T13:01:10.999Z</time></trkpt><trkpt lat="46.23112" lon="8.2952572"><ele>1124.2857142857142</ele><time>2026-05-01T13:01:15.005Z</time></trkpt><trkpt lat="46.2310553" lon="8.2952127"><ele>1127.142857142857</ele><time>2026-05-01T13:01:19.002Z</time></trkpt><trkpt lat="46.2309944" lon="8.2951692"><ele>1130.0</ele><time>2026-05-01T13:01:21.999Z</time></trkpt><trkpt lat="46.23093" lon="8.2951315"><ele>1129.9999999999998</ele><time>2026-05-01T13:01:25.008Z</time></trkpt><trkpt lat="46.2308689" lon="8.2950924"><ele>1130.0</ele><time>2026-05-01T13:01:28Z</time></trkpt><trkpt lat="46.2308079" lon="8.2950639"><ele>1130.0</ele><time>2026-05-01T13:01:31.004Z</time></trkpt><trkpt lat="46.2307277" lon="8.2950264"><ele>1130.0</ele><time>2026-05-01T13:01:35.003Z</time></trkpt><trkpt lat="46.2306553" lon="8.2949985"><ele>1130.0</ele><time>2026-05-01T13:01:38.006Z</time></trkpt><trkpt lat="46.2305828" lon="8.2949797"><ele>1129.9999999999998</ele><time>2026-05-01T13:01:41.027Z</time></trkpt><trkpt lat="46.2305195" lon="8.294959"><ele>1130.0</ele><time>2026-05-01T13:01:44.002Z</time></trkpt><trkpt lat="46.2304384" lon="8.2949355"><ele>1130.2857142857142</ele><time>2026-05-01T13:01:48.009Z</time></trkpt><trkpt lat="46.230363" lon="8.2949165"><ele>1130.5714285714284</ele><time>2026-05-01T13:01:51.995Z</time></trkpt><trkpt lat="46.2302881" lon="8.2949017"><ele>1130.857142857143</ele><time>2026-05-01T13:01:56.002Z</time></trkpt><trkpt lat="46.2302147" lon="8.2948766"><ele>1131.142857142857</ele><time>2026-05-01T13:02:00Z</time></trkpt><trkpt lat="46.2301455" lon="8.2948677"><ele>1131.4285714285716</ele><time>2026-05-01T13:02:03Z</time></trkpt><trkpt lat="46.2300834" lon="8.2948506"><ele>1131.7142857142858</ele><time>2026-05-01T13:02:06.001Z</time></trkpt><trkpt lat="46.2300049" lon="8.2948262"><ele>1132.0</ele><time>2026-05-01T13:02:09.997Z</time></trkpt><trkpt lat="46.2299277" lon="8.2948073"><ele>1132.0</ele><time>2026-05-01T13:02:14.003Z</time></trkpt><trkpt lat="46.2298621" lon="8.2947754"><ele>1132.0</ele><time>2026-05-01T13:02:18.003Z</time></trkpt><trkpt lat="46.2297984" lon="8.2947343"><ele>1132.0</ele><time>2026-05-01T13:02:22Z</time></trkpt><trkpt lat="46.2297288" lon="8.2947028"><ele>1132.0</ele><time>2026-05-01T13:02:26.003Z</time></trkpt><trkpt lat="46.2296643" lon="8.2946334"><ele>1132.0</ele><time>2026-05-01T13:02:31.003Z</time></trkpt><trkpt lat="46.2296229" lon="8.2945543"><ele>1132.0</ele><time>2026-05-01T13:02:35.001Z</time></trkpt><trkpt lat="46.2295577" lon="8.294506"><ele>1132.0</ele><time>2026-05-01T13:02:39.004Z</time></trkpt><trkpt lat="46.229498" lon="8.2944604"><ele>1135.3333333333333</ele><time>2026-05-01T13:02:41.998Z</time></trkpt><trkpt lat="46.2294392" lon="8.2943979"><ele>1138.6666666666665</ele><time>2026-05-01T13:02:45.994Z</time></trkpt><trkpt lat="46.2294054" lon="8.2942948"><ele>1142.0</ele><time>2026-05-01T13:02:49.994Z</time></trkpt><trkpt lat="46.2293683" lon="8.2941829"><ele>1145.3333333333333</ele><time>2026-05-01T13:02:53.994Z</time></trkpt><trkpt lat="46.2293471" lon="8.2940846"><ele>1148.6666666666667</ele><time>2026-05-01T13:02:57.004Z</time></trkpt><trkpt lat="46.2293027" lon="8.2939849"><ele>1152.0</ele><time>2026-05-01T13:02:59.994Z</time></trkpt><trkpt lat="46.2292448" lon="8.2939276"><ele>1153.857142857143</ele><time>2026-05-01T13:03:03Z</time></trkpt><trkpt lat="46.2291738" lon="8.2938823"><ele>1155.7142857142858</ele><time>2026-05-01T13:03:06.995Z</time></trkpt><trkpt lat="46.2291108" lon="8.2938693"><ele>1157.5714285714284</ele><time>2026-05-01T13:03:10Z</time></trkpt><trkpt lat="46.2290378" lon="8.2938184"><ele>1159.4285714285716</ele><time>2026-05-01T13:03:14.006Z</time></trkpt><trkpt lat="46.229046" lon="8.2937115"><ele>1161.2857142857142</ele><time>2026-05-01T13:03:18.991Z</time></trkpt><trkpt lat="46.2291097" lon="8.2936887"><ele>1163.142857142857</ele><time>2026-05-01T13:03:27.969Z</time></trkpt><trkpt lat="46.2291564" lon="8.2936094"><ele>1165.0</ele><time>2026-05-01T13:03:31.97Z</time></trkpt><trkpt lat="46.2292288" lon="8.2935784"><ele>1165.0</ele><time>2026-05-01T13:03:34.967Z</time></trkpt><trkpt lat="46.229301" lon="8.29356"><ele>1165.0</ele><time>2026-05-01T13:03:37.963Z</time></trkpt><trkpt lat="46.2293512" lon="8.2934936"><ele>1165.0</ele><time>2026-05-01T13:03:39.957Z</time></trkpt><trkpt lat="46.2293839" lon="8.2933703"><ele>1165.0</ele><time>2026-05-01T13:03:41.975Z</time></trkpt><trkpt lat="46.2293969" lon="8.2931964"><ele>1165.0</ele><time>2026-05-01T13:03:43.968Z</time></trkpt><trkpt lat="46.2294283" lon="8.2930935"><ele>1165.0</ele><time>2026-05-01T13:03:44.981Z</time></trkpt><trkpt lat="46.2294541" lon="8.2929826"><ele>1168.4</ele><time>2026-05-01T13:03:45.969Z</time></trkpt><trkpt lat="46.2294825" lon="8.2928683"><ele>1171.8</ele><time>2026-05-01T13:03:46.97Z</time></trkpt><trkpt lat="46.2295057" lon="8.2927789"><ele>1175.2</ele><time>2026-05-01T13:03:47.966Z</time></trkpt><trkpt lat="46.2295451" lon="8.2926232"><ele>1178.6</ele><time>2026-05-01T13:03:49.968Z</time></trkpt><trkpt lat="46.2295814" lon="8.2925182"><ele>1182.0</ele><time>2026-05-01T13:03:51.975Z</time></trkpt><trkpt lat="46.229647" lon="8.2926596"><ele>1182.0</ele><time>2026-05-01T13:03:56.976Z</time></trkpt><trkpt lat="46.2296833" lon="8.2927526"><ele>1182.0</ele><time>2026-05-01T13:03:58.983Z</time></trkpt><trkpt lat="46.2297243" lon="8.2928518"><ele>1182.0</ele><time>2026-05-01T13:04:00.993Z</time></trkpt><trkpt lat="46.2297574" lon="8.2929522"><ele>1182.0</ele><time>2026-05-01T13:04:02.995Z</time></trkpt><trkpt lat="46.2297944" lon="8.2930307"><ele>1182.0</ele><time>2026-05-01T13:04:05Z</time></trkpt><trkpt lat="46.2298337" lon="8.2931065"><ele>1182.0</ele><time>2026-05-01T13:04:07.991Z</time></trkpt><trkpt lat="46.2298895" lon="8.2931614"><ele>1182.0</ele><time>2026-05-01T13:04:10.992Z</time></trkpt><trkpt lat="46.2299423" lon="8.2932368"><ele>1182.5714285714284</ele><time>2026-05-01T13:04:13.997Z</time></trkpt><trkpt lat="46.2300162" lon="8.2932784"><ele>1183.142857142857</ele><time>2026-05-01T13:04:17.996Z</time></trkpt><trkpt lat="46.2300947" lon="8.2932919"><ele>1183.7142857142858</ele><time>2026-05-01T13:04:21.997Z</time></trkpt><trkpt lat="46.2301645" lon="8.2932725"><ele>1184.2857142857142</ele><time>2026-05-01T13:04:25.995Z</time></trkpt><trkpt lat="46.2302225" lon="8.2932264"><ele>1184.857142857143</ele><time>2026-05-01T13:04:29Z</time></trkpt><trkpt lat="46.2302592" lon="8.2931418"><ele>1185.4285714285713</ele><time>2026-05-01T13:04:31.994Z</time></trkpt><trkpt lat="46.2303033" lon="8.2930593"><ele>1186.0</ele><time>2026-05-01T13:04:34.993Z</time></trkpt><trkpt lat="46.2303532" lon="8.2929985"><ele>1185.9999999999998</ele><time>2026-05-01T13:04:39.987Z</time></trkpt><trkpt lat="46.230416" lon="8.292947"><ele>1186.0</ele><time>2026-05-01T13:04:43.991Z</time></trkpt><trkpt lat="46.2304802" lon="8.2929213"><ele>1186.0</ele><time>2026-05-01T13:04:47.99Z</time></trkpt><trkpt lat="46.2305502" lon="8.2929561"><ele>1186.0</ele><time>2026-05-01T13:04:51.993Z</time></trkpt><trkpt lat="46.2306264" lon="8.2929875"><ele>1186.0</ele><time>2026-05-01T13:04:55.991Z</time></trkpt><trkpt lat="46.2306916" lon="8.2929383"><ele>1185.9999999999998</ele><time>2026-05-01T13:04:59.986Z</time></trkpt><trkpt lat="46.2307472" lon="8.2928643"><ele>1186.0</ele><time>2026-05-01T13:05:05.984Z</time></trkpt><trkpt lat="46.2308198" lon="8.2928178"><ele>1186.2857142857142</ele><time>2026-05-01T13:05:08.985Z</time></trkpt><trkpt lat="46.2308857" lon="8.2928135"><ele>1186.5714285714284</ele><time>2026-05-01T13:05:12.988Z</time></trkpt><trkpt lat="46.2309363" lon="8.2927465"><ele>1186.857142857143</ele><time>2026-05-01T13:05:16.99Z</time></trkpt><trkpt lat="46.2310073" lon="8.2926964"><ele>1187.142857142857</ele><time>2026-05-01T13:05:20.99Z</time></trkpt><trkpt lat="46.2310679" lon="8.292637"><ele>1187.4285714285716</ele><time>2026-05-01T13:05:23.984Z</time></trkpt><trkpt lat="46.2311324" lon="8.2925749"><ele>1187.7142857142858</ele><time>2026-05-01T13:05:27.994Z</time></trkpt><trkpt lat="46.2311984" lon="8.2925186"><ele>1188.0</ele><time>2026-05-01T13:05:32.993Z</time></trkpt><trkpt lat="46.2312641" lon="8.2925097"><ele>1188.0</ele><time>2026-05-01T13:05:35.996Z</time></trkpt><trkpt lat="46.2313342" lon="8.2924759"><ele>1188.0</ele><time>2026-05-01T13:05:38.99Z</time></trkpt><trkpt lat="46.2313998" lon="8.2924242"><ele>1188.0</ele><time>2026-05-01T13:05:42.995Z</time></trkpt><trkpt lat="46.2314685" lon="8.2924168"><ele>1188.0</ele><time>2026-05-01T13:05:46.997Z</time></trkpt><trkpt lat="46.2315354" lon="8.2924188"><ele>1188.0</ele><time>2026-05-01T13:05:50.988Z</time></trkpt><trkpt lat="46.2316005" lon="8.2924509"><ele>1188.0</ele><time>2026-05-01T13:05:54.995Z</time></trkpt><trkpt lat="46.231664" lon="8.2924576"><ele>1188.0</ele><time>2026-05-01T13:05:57.993Z</time></trkpt><trkpt lat="46.2317392" lon="8.2924834"><ele>1188.142857142857</ele><time>2026-05-01T13:06:01.99Z</time></trkpt><trkpt lat="46.2318205" lon="8.2924975"><ele>1188.2857142857144</ele><time>2026-05-01T13:06:05.993Z</time></trkpt><trkpt lat="46.2318904" lon="8.2924966"><ele>1188.4285714285716</ele><time>2026-05-01T13:06:09.994Z</time></trkpt><trkpt lat="46.2319578" lon="8.2925159"><ele>1188.5714285714287</ele><time>2026-05-01T13:06:13.994Z</time></trkpt><trkpt lat="46.2320354" lon="8.2925239"><ele>1188.7142857142858</ele><time>2026-05-01T13:06:19.007Z</time></trkpt><trkpt lat="46.2321021" lon="8.2925061"><ele>1188.857142857143</ele><time>2026-05-01T13:06:21.994Z</time></trkpt><trkpt lat="46.2321808" lon="8.2925172"><ele>1189.0</ele><time>2026-05-01T13:06:25.996Z</time></trkpt><trkpt lat="46.2322616" lon="8.2925001"><ele>1190.6666666666665</ele><time>2026-05-01T13:06:28.991Z</time></trkpt><trkpt lat="46.2323308" lon="8.2925233"><ele>1192.3333333333333</ele><time>2026-05-01T13:06:31.989Z</time></trkpt><trkpt lat="46.2324091" lon="8.2925015"><ele>1194.0</ele><time>2026-05-01T13:06:34.996Z</time></trkpt><trkpt lat="46.2324731" lon="8.2924786"><ele>1195.6666666666667</ele><time>2026-05-01T13:06:37.992Z</time></trkpt><trkpt lat="46.2325398" lon="8.2924227"><ele>1197.3333333333335</ele><time>2026-05-01T13:06:40.993Z</time></trkpt><trkpt lat="46.2326213" lon="8.2923626"><ele>1199.0</ele><time>2026-05-01T13:06:43.991Z</time></trkpt><trkpt lat="46.2326409" lon="8.2922737"><ele>1199.4285714285716</ele><time>2026-05-01T13:06:45.996Z</time></trkpt><trkpt lat="46.2326386" lon="8.2921796"><ele>1199.8571428571427</ele><time>2026-05-01T13:06:47.991Z</time></trkpt><trkpt lat="46.2326292" lon="8.2920844"><ele>1200.2857142857142</ele><time>2026-05-01T13:06:50.006Z</time></trkpt><trkpt lat="46.2325854" lon="8.2919969"><ele>1200.7142857142858</ele><time>2026-05-01T13:06:53.003Z</time></trkpt><trkpt lat="46.2325122" lon="8.2919245"><ele>1201.1428571428573</ele><time>2026-05-01T13:06:56.008Z</time></trkpt><trkpt lat="46.2324553" lon="8.2918638"><ele>1201.5714285714284</ele><time>2026-05-01T13:06:58.995Z</time></trkpt><trkpt lat="46.2323908" lon="8.2918133"><ele>1202.0</ele><time>2026-05-01T13:07:01.984Z</time></trkpt><trkpt lat="46.2323234" lon="8.2917538"><ele>1202.8333333333335</ele><time>2026-05-01T13:07:05.998Z</time></trkpt><trkpt lat="46.232244" lon="8.2917304"><ele>1203.6666666666667</ele><time>2026-05-01T13:07:09.987Z</time></trkpt><trkpt lat="46.2321654" lon="8.2917411"><ele>1204.5</ele><time>2026-05-01T13:07:13.001Z</time></trkpt><trkpt lat="46.2320967" lon="8.2917094"><ele>1205.3333333333333</ele><time>2026-05-01T13:07:15.991Z</time></trkpt><trkpt lat="46.2321165" lon="8.2916181"><ele>1206.1666666666665</ele><time>2026-05-01T13:07:21.012Z</time></trkpt><trkpt lat="46.2321826" lon="8.2915744"><ele>1207.0</ele><time>2026-05-01T13:07:24.996Z</time></trkpt><trkpt lat="46.2322409" lon="8.2914948"><ele>1207.6666666666665</ele><time>2026-05-01T13:07:28.997Z</time></trkpt><trkpt lat="46.2322749" lon="8.2914168"><ele>1208.3333333333333</ele><time>2026-05-01T13:07:32.003Z</time></trkpt><trkpt lat="46.2323326" lon="8.2913336"><ele>1209.0</ele><time>2026-05-01T13:07:36.006Z</time></trkpt><trkpt lat="46.2323688" lon="8.2912265"><ele>1209.6666666666667</ele><time>2026-05-01T13:07:40.006Z</time></trkpt><trkpt lat="46.2324128" lon="8.2911275"><ele>1210.3333333333335</ele><time>2026-05-01T13:07:43.992Z</time></trkpt><trkpt lat="46.232456" lon="8.2910576"><ele>1211.0</ele><time>2026-05-01T13:07:46.996Z</time></trkpt><trkpt lat="46.2325014" lon="8.2909598"><ele>1211.0</ele><time>2026-05-01T13:07:50.99Z</time></trkpt><trkpt lat="46.2325013" lon="8.2908439"><ele>1211.0</ele><time>2026-05-01T13:07:53.968Z</time></trkpt><trkpt lat="46.2325001" lon="8.2907068"><ele>1211.0</ele><time>2026-05-01T13:07:57.957Z</time></trkpt><trkpt lat="46.2325873" lon="8.2907619"><ele>1211.0</ele><time>2026-05-01T13:08:00.974Z</time></trkpt><trkpt lat="46.2326128" lon="8.2906643"><ele>1211.0</ele><time>2026-05-01T13:08:03.961Z</time></trkpt><trkpt lat="46.2326045" lon="8.290561"><ele>1211.0</ele><time>2026-05-01T13:08:05.968Z</time></trkpt><trkpt lat="46.2326493" lon="8.2904511"><ele>1212.0</ele><time>2026-05-01T13:08:12.973Z</time></trkpt><trkpt lat="46.232703" lon="8.2903673"><ele>1213.0</ele><time>2026-05-01T13:08:14.977Z</time></trkpt><trkpt lat="46.2327808" lon="8.2903282"><ele>1214.0</ele><time>2026-05-01T13:08:17.989Z</time></trkpt><trkpt lat="46.232847" lon="8.2903501"><ele>1215.0</ele><time>2026-05-01T13:08:19.982Z</time></trkpt><trkpt lat="46.2329176" lon="8.2903926"><ele>1216.0</ele><time>2026-05-01T13:08:21.973Z</time></trkpt><trkpt lat="46.2330161" lon="8.2903361"><ele>1217.0</ele><time>2026-05-01T13:08:23.959Z</time></trkpt><trkpt lat="46.233124" lon="8.2901941"><ele>1218.0</ele><time>2026-05-01T13:08:25.963Z</time></trkpt><trkpt lat="46.2331777" lon="8.2900811"><ele>1219.0</ele><time>2026-05-01T13:08:26.96Z</time></trkpt><trkpt lat="46.2331994" lon="8.289959"><ele>1220.0</ele><time>2026-05-01T13:08:28.956Z</time></trkpt><trkpt lat="46.2331594" lon="8.2900939"><ele>1221.0</ele><time>2026-05-01T13:08:31.968Z</time></trkpt><trkpt lat="46.2331955" lon="8.2902112"><ele>1222.0</ele><time>2026-05-01T13:08:33.973Z</time></trkpt><trkpt lat="46.2332716" lon="8.2902622"><ele>1222.0</ele><time>2026-05-01T13:08:36.984Z</time></trkpt><trkpt lat="46.2333319" lon="8.2903383"><ele>1222.0</ele><time>2026-05-01T13:08:40.985Z</time></trkpt><trkpt lat="46.233375" lon="8.2904187"><ele>1222.0</ele><time>2026-05-01T13:08:42.981Z</time></trkpt><trkpt lat="46.2334654" lon="8.2903837"><ele>1222.0</ele><time>2026-05-01T13:08:45.975Z</time></trkpt><trkpt lat="46.2335342" lon="8.2903315"><ele>1222.0</ele><time>2026-05-01T13:08:47.984Z</time></trkpt><trkpt lat="46.2336235" lon="8.2903067"><ele>1222.0</ele><time>2026-05-01T13:08:50.998Z</time></trkpt><trkpt lat="46.2336939" lon="8.2902432"><ele>1222.0000000000002</ele><time>2026-05-01T13:08:54.008Z</time></trkpt><trkpt lat="46.2337507" lon="8.2901908"><ele>1222.0</ele><time>2026-05-01T13:08:56.988Z</time></trkpt><trkpt lat="46.2338163" lon="8.2901929"><ele>1222.0</ele><time>2026-05-01T13:08:59.998Z</time></trkpt><trkpt lat="46.2338799" lon="8.2902321"><ele>1222.0</ele><time>2026-05-01T13:09:02.995Z</time></trkpt><trkpt lat="46.233935" lon="8.2902869"><ele>1222.0</ele><time>2026-05-01T13:09:05.989Z</time></trkpt><trkpt lat="46.2339887" lon="8.2903648"><ele>1222.0000000000002</ele><time>2026-05-01T13:09:09.001Z</time></trkpt><trkpt lat="46.234052" lon="8.2904719"><ele>1222.0</ele><time>2026-05-01T13:09:11.996Z</time></trkpt><trkpt lat="46.234113" lon="8.2905347"><ele>1222.4</ele><time>2026-05-01T13:09:13.996Z</time></trkpt><trkpt lat="46.2341833" lon="8.2905762"><ele>1222.8000000000002</ele><time>2026-05-01T13:09:15.991Z</time></trkpt><trkpt lat="46.2342591" lon="8.2906455"><ele>1223.2</ele><time>2026-05-01T13:09:17.997Z</time></trkpt><trkpt lat="46.2343321" lon="8.2907405"><ele>1223.6000000000001</ele><time>2026-05-01T13:09:19.987Z</time></trkpt><trkpt lat="46.2343883" lon="8.2908462"><ele>1224.0</ele><time>2026-05-01T13:09:21.991Z</time></trkpt><trkpt lat="46.2344794" lon="8.290955"><ele>1224.0</ele><time>2026-05-01T13:09:23.999Z</time></trkpt><trkpt lat="46.234538" lon="8.2909953"><ele>1224.0</ele><time>2026-05-01T13:09:25.009Z</time></trkpt><trkpt lat="46.2346016" lon="8.2910065"><ele>1224.0</ele><time>2026-05-01T13:09:26.001Z</time></trkpt><trkpt lat="46.2346665" lon="8.2909898"><ele>1224.0</ele><time>2026-05-01T13:09:26.998Z</time></trkpt><trkpt lat="46.2347288" lon="8.290957"><ele>1224.0</ele><time>2026-05-01T13:09:27.993Z</time></trkpt><trkpt lat="46.2348277" lon="8.2908662"><ele>1224.0</ele><time>2026-05-01T13:09:29.992Z</time></trkpt><trkpt lat="46.2349093" lon="8.2907879"><ele>1224.6666666666667</ele><time>2026-05-01T13:09:31.996Z</time></trkpt><trkpt lat="46.2349703" lon="8.2907224"><ele>1225.3333333333333</ele><time>2026-05-01T13:09:33.995Z</time></trkpt><trkpt lat="46.2350215" lon="8.2906665"><ele>1226.0</ele><time>2026-05-01T13:09:35.997Z</time></trkpt><trkpt lat="46.2350795" lon="8.2905871"><ele>1226.6666666666665</ele><time>2026-05-01T13:09:38.998Z</time></trkpt><trkpt lat="46.2351286" lon="8.2904994"><ele>1227.3333333333333</ele><time>2026-05-01T13:09:41.997Z</time></trkpt><trkpt lat="46.235165" lon="8.2903882"><ele>1228.0</ele><time>2026-05-01T13:09:44.995Z</time></trkpt><trkpt lat="46.235186" lon="8.2902866"><ele>1229.4285714285713</ele><time>2026-05-01T13:09:48.001Z</time></trkpt><trkpt lat="46.2352071" lon="8.2901774"><ele>1230.857142857143</ele><time>2026-05-01T13:09:50.99Z</time></trkpt><trkpt lat="46.2352338" lon="8.2900823"><ele>1232.2857142857142</ele><time>2026-05-01T13:09:53Z</time></trkpt><trkpt lat="46.2352642" lon="8.2899944"><ele>1233.7142857142858</ele><time>2026-05-01T13:09:56.026Z</time></trkpt><trkpt lat="46.2352607" lon="8.2898968"><ele>1235.142857142857</ele><time>2026-05-01T13:09:58.996Z</time></trkpt><trkpt lat="46.2352973" lon="8.2897942"><ele>1236.5714285714284</ele><time>2026-05-01T13:10:01.998Z</time></trkpt><trkpt lat="46.2353537" lon="8.2897361"><ele>1238.0</ele><time>2026-05-01T13:10:05.998Z</time></trkpt><trkpt lat="46.2353989" lon="8.2896689"><ele>1239.5714285714284</ele><time>2026-05-01T13:10:08.998Z</time></trkpt><trkpt lat="46.235437" lon="8.2895818"><ele>1241.142857142857</ele><time>2026-05-01T13:10:11.996Z</time></trkpt><trkpt lat="46.2355019" lon="8.2895213"><ele>1242.7142857142858</ele><time>2026-05-01T13:10:16.992Z</time></trkpt><trkpt lat="46.2355569" lon="8.2894619"><ele>1244.2857142857142</ele><time>2026-05-01T13:10:20.992Z</time></trkpt><trkpt lat="46.2356348" lon="8.2894386"><ele>1245.857142857143</ele><time>2026-05-01T13:10:24.984Z</time></trkpt><trkpt lat="46.2356994" lon="8.2894116"><ele>1247.4285714285713</ele><time>2026-05-01T13:10:28.98Z</time></trkpt><trkpt lat="46.2357727" lon="8.2893836"><ele>1249.0</ele><time>2026-05-01T13:10:33.979Z</time></trkpt><trkpt lat="46.2358267" lon="8.2893333"><ele>1249.4285714285713</ele><time>2026-05-01T13:10:36.984Z</time></trkpt><trkpt lat="46.2358922" lon="8.2893283"><ele>1249.857142857143</ele><time>2026-05-01T13:10:39.984Z</time></trkpt><trkpt lat="46.2359645" lon="8.2893432"><ele>1250.2857142857142</ele><time>2026-05-01T13:10:44.995Z</time></trkpt><trkpt lat="46.2360323" lon="8.2893258"><ele>1250.7142857142858</ele><time>2026-05-01T13:10:49.995Z</time></trkpt><trkpt lat="46.2361066" lon="8.2893618"><ele>1251.142857142857</ele><time>2026-05-01T13:10:53.989Z</time></trkpt><trkpt lat="46.2361807" lon="8.2893335"><ele>1251.5714285714284</ele><time>2026-05-01T13:10:57.004Z</time></trkpt><trkpt lat="46.2362645" lon="8.2893118"><ele>1252.0</ele><time>2026-05-01T13:10:59.985Z</time></trkpt><trkpt lat="46.2363314" lon="8.2893309"><ele>1252.0</ele><time>2026-05-01T13:11:02.993Z</time></trkpt><trkpt lat="46.236409" lon="8.2893068"><ele>1252.0</ele><time>2026-05-01T13:11:05.988Z</time></trkpt><trkpt lat="46.236477" lon="8.2892917"><ele>1252.0</ele><time>2026-05-01T13:11:08.996Z</time></trkpt><trkpt lat="46.2365484" lon="8.2892694"><ele>1252.0</ele><time>2026-05-01T13:11:13.994Z</time></trkpt><trkpt lat="46.2366297" lon="8.2892673"><ele>1252.0</ele><time>2026-05-01T13:11:17.991Z</time></trkpt><trkpt lat="46.2366952" lon="8.2892559"><ele>1252.0</ele><time>2026-05-01T13:11:20.991Z</time></trkpt><trkpt lat="46.2367729" lon="8.2892126"><ele>1252.857142857143</ele><time>2026-05-01T13:11:24.995Z</time></trkpt><trkpt lat="46.2368296" lon="8.2891584"><ele>1253.7142857142858</ele><time>2026-05-01T13:11:28.007Z</time></trkpt><trkpt lat="46.2369046" lon="8.2891389"><ele>1254.5714285714284</ele><time>2026-05-01T13:11:31.985Z</time></trkpt><trkpt lat="46.2369701" lon="8.289124"><ele>1255.4285714285716</ele><time>2026-05-01T13:11:34.977Z</time></trkpt><trkpt lat="46.2370305" lon="8.2891646"><ele>1256.2857142857144</ele><time>2026-05-01T13:11:37.974Z</time></trkpt><trkpt lat="46.2370891" lon="8.2891051"><ele>1257.142857142857</ele><time>2026-05-01T13:11:40.971Z</time></trkpt><trkpt lat="46.2371285" lon="8.2890218"><ele>1258.0</ele><time>2026-05-01T13:11:43.973Z</time></trkpt><trkpt lat="46.2371992" lon="8.289031"><ele>1258.0</ele><time>2026-05-01T13:11:49.973Z</time></trkpt><trkpt lat="46.2372568" lon="8.2889877"><ele>1258.0</ele><time>2026-05-01T13:11:53.972Z</time></trkpt><trkpt lat="46.2373036" lon="8.288891"><ele>1258.0</ele><time>2026-05-01T13:11:56.973Z</time></trkpt><trkpt lat="46.2373381" lon="8.2887835"><ele>1258.0</ele><time>2026-05-01T13:11:59.972Z</time></trkpt><trkpt lat="46.2374038" lon="8.2887997"><ele>1258.0</ele><time>2026-05-01T13:12:04.975Z</time></trkpt><trkpt lat="46.2374681" lon="8.288818"><ele>1258.0</ele><time>2026-05-01T13:12:09.981Z</time></trkpt><trkpt lat="46.2375311" lon="8.2888066"><ele>1258.0</ele><time>2026-05-01T13:12:14.985Z</time></trkpt><trkpt lat="46.237607" lon="8.2887855"><ele>1262.5714285714284</ele><time>2026-05-01T13:12:18.992Z</time></trkpt><trkpt lat="46.2376562" lon="8.2887216"><ele>1267.1428571428573</ele><time>2026-05-01T13:12:21.989Z</time></trkpt><trkpt lat="46.2377307" lon="8.2886891"><ele>1271.7142857142858</ele><time>2026-05-01T13:12:26.992Z</time></trkpt><trkpt lat="46.237804" lon="8.2886613"><ele>1276.2857142857142</ele><time>2026-05-01T13:12:30.013Z</time></trkpt><trkpt lat="46.2378778" lon="8.2886345"><ele>1280.8571428571427</ele><time>2026-05-01T13:12:33.993Z</time></trkpt><trkpt lat="46.2379518" lon="8.2886533"><ele>1285.4285714285716</ele><time>2026-05-01T13:12:37.981Z</time></trkpt><trkpt lat="46.2380161" lon="8.2886365"><ele>1290.0</ele><time>2026-05-01T13:12:40.987Z</time></trkpt><trkpt lat="46.2380662" lon="8.2885735"><ele>1290.0</ele><time>2026-05-01T13:12:42.989Z</time></trkpt><trkpt lat="46.2380992" lon="8.288488"><ele>1290.0</ele><time>2026-05-01T13:12:45.989Z</time></trkpt><trkpt lat="46.2380918" lon="8.2883777"><ele>1290.0</ele><time>2026-05-01T13:12:48.975Z</time></trkpt><trkpt lat="46.2380693" lon="8.2882818"><ele>1290.0</ele><time>2026-05-01T13:12:51.985Z</time></trkpt><trkpt lat="46.2379865" lon="8.2882313"><ele>1290.0</ele><time>2026-05-01T13:12:54.979Z</time></trkpt><trkpt lat="46.2379593" lon="8.2881356"><ele>1290.0</ele><time>2026-05-01T13:12:57.975Z</time></trkpt><trkpt lat="46.2379003" lon="8.2880747"><ele>1290.0</ele><time>2026-05-01T13:13:01.003Z</time></trkpt><trkpt lat="46.2378258" lon="8.2880831"><ele>1294.142857142857</ele><time>2026-05-01T13:13:02.982Z</time></trkpt><trkpt lat="46.2377513" lon="8.2880874"><ele>1298.2857142857142</ele><time>2026-05-01T13:13:06.984Z</time></trkpt><trkpt lat="46.2376787" lon="8.2880768"><ele>1302.4285714285713</ele><time>2026-05-01T13:13:09.982Z</time></trkpt><trkpt lat="46.2376062" lon="8.2880705"><ele>1306.5714285714284</ele><time>2026-05-01T13:13:14.986Z</time></trkpt><trkpt lat="46.2375362" lon="8.2880568"><ele>1310.7142857142858</ele><time>2026-05-01T13:13:18.99Z</time></trkpt><trkpt lat="46.237467" lon="8.2880463"><ele>1314.8571428571427</ele><time>2026-05-01T13:13:22.99Z</time></trkpt><trkpt lat="46.2374233" lon="8.2879766"><ele>1319.0</ele><time>2026-05-01T13:13:25.988Z</time></trkpt><trkpt lat="46.2373851" lon="8.2878788"><ele>1319.0</ele><time>2026-05-01T13:13:29.99Z</time></trkpt><trkpt lat="46.2373272" lon="8.2877857"><ele>1319.0</ele><time>2026-05-01T13:13:32.991Z</time></trkpt><trkpt lat="46.2372441" lon="8.2877589"><ele>1319.0</ele><time>2026-05-01T13:13:35.996Z</time></trkpt><trkpt lat="46.2373079" lon="8.2877886"><ele>1319.0</ele><time>2026-05-01T13:13:50.995Z</time></trkpt><trkpt lat="46.2373721" lon="8.2878125"><ele>1319.0</ele><time>2026-05-01T13:13:55Z</time></trkpt><trkpt lat="46.2374518" lon="8.2877709"><ele>1319.0</ele><time>2026-05-01T13:13:59.993Z</time></trkpt><trkpt lat="46.23752" lon="8.2877381"><ele>1319.0</ele><time>2026-05-01T13:14:04Z</time></trkpt><trkpt lat="46.2376112" lon="8.2877939"><ele>1319.0</ele><time>2026-05-01T13:14:07.985Z</time></trkpt><trkpt lat="46.2378258" lon="8.2880831"><ele>1319.0</ele><time>2026-05-01T13:13:02.982Z</time></trkpt><trkpt lat="46.2377513" lon="8.2880874"><ele>1318.9999999999998</ele><time>2026-05-01T13:13:06.984Z</time></trkpt><trkpt lat="46.2376787" lon="8.2880768"><ele>1319.0</ele><time>2026-05-01T13:13:09.982Z</time></trkpt><trkpt lat="46.2376062" lon="8.2880705"><ele>1319.0</ele><time>2026-05-01T13:13:14.986Z</time></trkpt><trkpt lat="46.2375362" lon="8.2880568"><ele>1319.0</ele><time>2026-05-01T13:13:18.99Z</time></trkpt><trkpt lat="46.237467" lon="8.2880463"><ele>1319.0</ele><time>2026-05-01T13:13:22.99Z</time></trkpt><trkpt lat="46.2374233" lon="8.2879766"><ele>1318.9999999999998</ele><time>2026-05-01T13:13:25.988Z</time></trkpt><trkpt lat="46.2373851" lon="8.2878788"><ele>1319.0</ele><time>2026-05-01T13:13:29.99Z</time></trkpt><trkpt lat="46.2373272" lon="8.2877857"><ele>1319.0</ele><time>2026-05-01T13:13:32.991Z</time></trkpt><trkpt lat="46.2372441" lon="8.2877589"><ele>1319.0</ele><time>2026-05-01T13:13:35.996Z</time></trkpt><trkpt lat="46.2373079" lon="8.2877886"><ele>1319.0</ele><time>2026-05-01T13:13:50.995Z</time></trkpt><trkpt lat="46.2373721" lon="8.2878125"><ele>1319.0</ele><time>2026-05-01T13:13:55Z</time></trkpt><trkpt lat="46.2374518" lon="8.2877709"><ele>1319.0</ele><time>2026-05-01T13:13:59.993Z</time></trkpt><trkpt lat="46.23752" lon="8.2877381"><ele>1319.0</ele><time>2026-05-01T13:14:04Z</time></trkpt><trkpt lat="46.2376112" lon="8.2877939"><ele>1319.0</ele><time>2026-05-01T13:14:07.985Z</time></trkpt><trkpt lat="46.2376875" lon="8.2877275"><ele>1319.0</ele><time>2026-05-01T13:14:09.992Z</time></trkpt><trkpt lat="46.2377626" lon="8.2877211"><ele>1319.0</ele><time>2026-05-01T13:14:13.998Z</time></trkpt><trkpt lat="46.2378318" lon="8.2877013"><ele>1319.0</ele><time>2026-05-01T13:14:17.998Z</time></trkpt><trkpt lat="46.2378757" lon="8.2875915"><ele>1319.0</ele><time>2026-05-01T13:14:21.997Z</time></trkpt><trkpt lat="46.2379185" lon="8.2875"><ele>1319.0</ele><time>2026-05-01T13:14:25.997Z</time></trkpt><trkpt lat="46.2379682" lon="8.2874044"><ele>1319.0</ele><time>2026-05-01T13:14:28.995Z</time></trkpt><trkpt lat="46.2380221" lon="8.2873236"><ele>1319.0</ele><time>2026-05-01T13:14:32.997Z</time></trkpt><trkpt lat="46.238067" lon="8.2872514"><ele>1319.0</ele><time>2026-05-01T13:14:35.993Z</time></trkpt><trkpt lat="46.2381316" lon="8.287186"><ele>1319.0</ele><time>2026-05-01T13:14:40Z</time></trkpt><trkpt lat="46.2381908" lon="8.2871176"><ele>1319.0</ele><time>2026-05-01T13:14:43.993Z</time></trkpt><trkpt lat="46.2382558" lon="8.2871348"><ele>1319.0</ele><time>2026-05-01T13:14:47.99Z</time></trkpt><trkpt lat="46.2383391" lon="8.2871166"><ele>1323.9999999999998</ele><time>2026-05-01T13:14:53.992Z</time></trkpt><trkpt lat="46.2384127" lon="8.2870996"><ele>1329.0</ele><time>2026-05-01T13:14:56.992Z</time></trkpt><trkpt lat="46.2384808" lon="8.2870924"><ele>1334.0</ele><time>2026-05-01T13:14:59.991Z</time></trkpt><trkpt lat="46.238567" lon="8.287092"><ele>1339.0</ele><time>2026-05-01T13:15:03.982Z</time></trkpt><trkpt lat="46.2386294" lon="8.2871052"><ele>1344.0</ele><time>2026-05-01T13:15:05.966Z</time></trkpt><trkpt lat="46.2387023" lon="8.2871028"><ele>1348.9999999999998</ele><time>2026-05-01T13:15:09.969Z</time></trkpt><trkpt lat="46.2387591" lon="8.2871579"><ele>1354.0</ele><time>2026-05-01T13:15:13.96Z</time></trkpt><trkpt lat="46.2388484" lon="8.2871472"><ele>1354.0</ele><time>2026-05-01T13:15:15.959Z</time></trkpt><trkpt lat="46.2389184" lon="8.2872106"><ele>1354.0</ele><time>2026-05-01T13:15:18.967Z</time></trkpt><trkpt lat="46.2390054" lon="8.2872245"><ele>1354.0</ele><time>2026-05-01T13:15:22.973Z</time></trkpt><trkpt lat="46.2390851" lon="8.2872363"><ele>1354.0</ele><time>2026-05-01T13:15:25.969Z</time></trkpt><trkpt lat="46.2391576" lon="8.2872282"><ele>1354.0</ele><time>2026-05-01T13:15:27.971Z</time></trkpt><trkpt lat="46.2392496" lon="8.2871901"><ele>1354.0</ele><time>2026-05-01T13:15:29.976Z</time></trkpt><trkpt lat="46.23931" lon="8.2871556"><ele>1354.5</ele><time>2026-05-01T13:15:31.97Z</time></trkpt><trkpt lat="46.2393771" lon="8.287095"><ele>1355.0</ele><time>2026-05-01T13:15:34.983Z</time></trkpt><trkpt lat="46.2394477" lon="8.287033"><ele>1355.5</ele><time>2026-05-01T13:15:37.966Z</time></trkpt><trkpt lat="46.2395364" lon="8.28698"><ele>1356.0</ele><time>2026-05-01T13:15:40.962Z</time></trkpt><trkpt lat="46.2395939" lon="8.2869279"><ele>1356.5</ele><time>2026-05-01T13:15:42.972Z</time></trkpt><trkpt lat="46.2396464" lon="8.28686"><ele>1357.0</ele><time>2026-05-01T13:15:44.963Z</time></trkpt><trkpt lat="46.2397294" lon="8.2867955"><ele>1356.8333333333333</ele><time>2026-05-01T13:15:47.958Z</time></trkpt><trkpt lat="46.2398019" lon="8.2867585"><ele>1356.6666666666665</ele><time>2026-05-01T13:15:51.957Z</time></trkpt><trkpt lat="46.2398724" lon="8.2867192"><ele>1356.5</ele><time>2026-05-01T13:15:54.951Z</time></trkpt><trkpt lat="46.2399121" lon="8.2866021"><ele>1356.3333333333333</ele><time>2026-05-01T13:15:56.955Z</time></trkpt><trkpt lat="46.2399547" lon="8.2865238"><ele>1356.1666666666667</ele><time>2026-05-01T13:15:58.956Z</time></trkpt><trkpt lat="46.2400163" lon="8.2864507"><ele>1356.0</ele><time>2026-05-01T13:16:00.959Z</time></trkpt><trkpt lat="46.2400737" lon="8.286346"><ele>1356.0</ele><time>2026-05-01T13:16:02.959Z</time></trkpt><trkpt lat="46.2401022" lon="8.2862081"><ele>1356.0</ele><time>2026-05-01T13:16:04.955Z</time></trkpt><trkpt lat="46.2401247" lon="8.2861105"><ele>1356.0</ele><time>2026-05-01T13:16:06.956Z</time></trkpt><trkpt lat="46.240161" lon="8.2860196"><ele>1356.0</ele><time>2026-05-01T13:16:08.959Z</time></trkpt><trkpt lat="46.2402074" lon="8.2859358"><ele>1356.0</ele><time>2026-05-01T13:16:11.961Z</time></trkpt><trkpt lat="46.2402553" lon="8.285819"><ele>1356.0</ele><time>2026-05-01T13:16:14.958Z</time></trkpt><trkpt lat="46.2403122" lon="8.2857551"><ele>1356.0</ele><time>2026-05-01T13:16:16.96Z</time></trkpt><trkpt lat="46.2403735" lon="8.2856821"><ele>1356.0</ele><time>2026-05-01T13:16:18.953Z</time></trkpt><trkpt lat="46.2404142" lon="8.2855788"><ele>1356.0</ele><time>2026-05-01T13:16:20.961Z</time></trkpt><trkpt lat="46.2404561" lon="8.2854758"><ele>1356.0</ele><time>2026-05-01T13:16:22.958Z</time></trkpt><trkpt lat="46.2404829" lon="8.28535"><ele>1356.0</ele><time>2026-05-01T13:16:24.955Z</time></trkpt><trkpt lat="46.2405149" lon="8.2852528"><ele>1356.0</ele><time>2026-05-01T13:16:26.957Z</time></trkpt><trkpt lat="46.2405192" lon="8.2851227"><ele>1357.5</ele><time>2026-05-01T13:16:28.957Z</time></trkpt><trkpt lat="46.2405294" lon="8.2850147"><ele>1359.0</ele><time>2026-05-01T13:16:30.959Z</time></trkpt><trkpt lat="46.240519" lon="8.2849017"><ele>1360.5</ele><time>2026-05-01T13:16:32.956Z</time></trkpt><trkpt lat="46.2405077" lon="8.2848055"><ele>1362.0</ele><time>2026-05-01T13:16:34.958Z</time></trkpt><trkpt lat="46.240546" lon="8.2847211"><ele>1363.5</ele><time>2026-05-01T13:16:36.98Z</time></trkpt><trkpt lat="46.2405539" lon="8.2846005"><ele>1365.0</ele><time>2026-05-01T13:16:38.962Z</time></trkpt><trkpt lat="46.2405534" lon="8.2844832"><ele>1366.6666666666667</ele><time>2026-05-01T13:16:40.959Z</time></trkpt><trkpt lat="46.2405546" lon="8.2843705"><ele>1368.3333333333333</ele><time>2026-05-01T13:16:42.958Z</time></trkpt><trkpt lat="46.2405508" lon="8.2842581"><ele>1370.0</ele><time>2026-05-01T13:16:45.961Z</time></trkpt><trkpt lat="46.24054" lon="8.2841651"><ele>1371.6666666666665</ele><time>2026-05-01T13:16:47.96Z</time></trkpt><trkpt lat="46.2405262" lon="8.2840583"><ele>1373.3333333333333</ele><time>2026-05-01T13:16:49.959Z</time></trkpt><trkpt lat="46.2405116" lon="8.2839307"><ele>1375.0</ele><time>2026-05-01T13:16:52.956Z</time></trkpt><trkpt lat="46.2404759" lon="8.2838398"><ele>1376.142857142857</ele><time>2026-05-01T13:16:55.955Z</time></trkpt><trkpt lat="46.2404971" lon="8.2837472"><ele>1377.2857142857142</ele><time>2026-05-01T13:16:58.953Z</time></trkpt><trkpt lat="46.2405034" lon="8.283633"><ele>1378.4285714285716</ele><time>2026-05-01T13:17:01.957Z</time></trkpt><trkpt lat="46.240489" lon="8.2835433"><ele>1379.5714285714284</ele><time>2026-05-01T13:17:03.958Z</time></trkpt><trkpt lat="46.2404381" lon="8.2834634"><ele>1380.7142857142858</ele><time>2026-05-01T13:17:06.956Z</time></trkpt><trkpt lat="46.2404442" lon="8.283343"><ele>1381.857142857143</ele><time>2026-05-01T13:17:10.965Z</time></trkpt><trkpt lat="46.2404524" lon="8.2832391"><ele>1383.0</ele><time>2026-05-01T13:17:13.962Z</time></trkpt><trkpt lat="46.2404636" lon="8.2831263"><ele>1382.2857142857144</ele><time>2026-05-01T13:17:16.965Z</time></trkpt><trkpt lat="46.24048" lon="8.283038"><ele>1381.5714285714287</ele><time>2026-05-01T13:17:18.963Z</time></trkpt><trkpt lat="46.2404757" lon="8.2829413"><ele>1380.857142857143</ele><time>2026-05-01T13:17:21.963Z</time></trkpt><trkpt lat="46.2405381" lon="8.2829645"><ele>1380.1428571428573</ele><time>2026-05-01T13:17:26.958Z</time></trkpt><trkpt lat="46.2406069" lon="8.2829967"><ele>1379.4285714285716</ele><time>2026-05-01T13:17:29.964Z</time></trkpt><trkpt lat="46.2406774" lon="8.2829889"><ele>1378.7142857142858</ele><time>2026-05-01T13:17:31.966Z</time></trkpt><trkpt lat="46.2407595" lon="8.2829482"><ele>1378.0</ele><time>2026-05-01T13:17:34.965Z</time></trkpt><trkpt lat="46.2408047" lon="8.282803"><ele>1378.0</ele><time>2026-05-01T13:19:16.961Z</time></trkpt><trkpt lat="46.240794" lon="8.2827099"><ele>1378.0</ele><time>2026-05-01T13:19:41.99Z</time></trkpt><trkpt lat="46.2407275" lon="8.2826502"><ele>1378.0</ele><time>2026-05-01T13:23:35.96Z</time></trkpt><trkpt lat="46.2407851" lon="8.2827018"><ele>1378.0</ele><time>2026-05-01T13:24:41.985Z</time></trkpt><trkpt lat="46.2407174" lon="8.282771"><ele>1378.0</ele><time>2026-05-01T13:25:55.967Z</time></trkpt><trkpt lat="46.2406408" lon="8.2828101"><ele>1378.0</ele><time>2026-05-01T13:26:00.968Z</time></trkpt><trkpt lat="46.2405502" lon="8.2828416"><ele>1378.7142857142858</ele><time>2026-05-01T13:26:14.97Z</time></trkpt><trkpt lat="46.240481" lon="8.2828684"><ele>1379.4285714285716</ele><time>2026-05-01T13:26:16.966Z</time></trkpt><trkpt lat="46.2404303" lon="8.2830027"><ele>1380.1428571428573</ele><time>2026-05-01T13:26:19.956Z</time></trkpt><trkpt lat="46.2403998" lon="8.2830859"><ele>1380.857142857143</ele><time>2026-05-01T13:26:20.957Z</time></trkpt><trkpt lat="46.2403735" lon="8.2831696"><ele>1381.5714285714287</ele><time>2026-05-01T13:26:21.956Z</time></trkpt><trkpt lat="46.2403423" lon="8.2832566"><ele>1382.2857142857144</ele><time>2026-05-01T13:26:22.961Z</time></trkpt><trkpt lat="46.2403056" lon="8.2833512"><ele>1383.0</ele><time>2026-05-01T13:26:23.98Z</time></trkpt><trkpt lat="46.2402829" lon="8.2834739"><ele>1383.0</ele><time>2026-05-01T13:26:24.958Z</time></trkpt><trkpt lat="46.2402657" lon="8.2835975"><ele>1383.0</ele><time>2026-05-01T13:26:25.96Z</time></trkpt><trkpt lat="46.2402548" lon="8.2837245"><ele>1383.0</ele><time>2026-05-01T13:26:26.954Z</time></trkpt><trkpt lat="46.2402586" lon="8.2838527"><ele>1383.0</ele><time>2026-05-01T13:26:27.97Z</time></trkpt><trkpt lat="46.2402599" lon="8.2839709"><ele>1383.0</ele><time>2026-05-01T13:26:28.962Z</time></trkpt><trkpt lat="46.2402636" lon="8.2840887"><ele>1383.0</ele><time>2026-05-01T13:26:29.956Z</time></trkpt><trkpt lat="46.2402729" lon="8.2842091"><ele>1381.6666666666667</ele><time>2026-05-01T13:26:30.959Z</time></trkpt><trkpt lat="46.2402829" lon="8.2843198"><ele>1380.3333333333333</ele><time>2026-05-01T13:26:31.952Z</time></trkpt><trkpt lat="46.240295" lon="8.2844372"><ele>1379.0</ele><time>2026-05-01T13:26:32.953Z</time></trkpt><trkpt lat="46.2403239" lon="8.2845493"><ele>1377.6666666666665</ele><time>2026-05-01T13:26:33.959Z</time></trkpt><trkpt lat="46.2403508" lon="8.2846338"><ele>1376.3333333333333</ele><time>2026-05-01T13:26:34.957Z</time></trkpt><trkpt lat="46.2403758" lon="8.2847948"><ele>1375.0</ele><time>2026-05-01T13:26:36.962Z</time></trkpt><trkpt lat="46.2403631" lon="8.284955"><ele>1373.0</ele><time>2026-05-01T13:26:38.959Z</time></trkpt><trkpt lat="46.2403352" lon="8.2851084"><ele>1371.0</ele><time>2026-05-01T13:26:40.956Z</time></trkpt><trkpt lat="46.2402907" lon="8.2852533"><ele>1369.0</ele><time>2026-05-01T13:26:42.957Z</time></trkpt><trkpt lat="46.2402359" lon="8.2853783"><ele>1367.0</ele><time>2026-05-01T13:26:44.959Z</time></trkpt><trkpt lat="46.2401962" lon="8.285452"><ele>1365.0</ele><time>2026-05-01T13:26:45.964Z</time></trkpt><trkpt lat="46.2401323" lon="8.2856031"><ele>1363.2</ele><time>2026-05-01T13:26:47.967Z</time></trkpt><trkpt lat="46.2400495" lon="8.285738"><ele>1361.4</ele><time>2026-05-01T13:26:49.964Z</time></trkpt><trkpt lat="46.2399675" lon="8.2858556"><ele>1359.6</ele><time>2026-05-01T13:26:51.969Z</time></trkpt><trkpt lat="46.2398816" lon="8.2859849"><ele>1357.8</ele><time>2026-05-01T13:26:53.97Z</time></trkpt><trkpt lat="46.2398339" lon="8.2860525"><ele>1356.0</ele><time>2026-05-01T13:26:54.982Z</time></trkpt><trkpt lat="46.2397947" lon="8.2861244"><ele>1356.1666666666667</ele><time>2026-05-01T13:26:55.971Z</time></trkpt><trkpt lat="46.2397572" lon="8.2862027"><ele>1356.3333333333333</ele><time>2026-05-01T13:26:56.964Z</time></trkpt><trkpt lat="46.2397161" lon="8.2862956"><ele>1356.5</ele><time>2026-05-01T13:26:57.962Z</time></trkpt><trkpt lat="46.2396736" lon="8.2863757"><ele>1356.6666666666665</ele><time>2026-05-01T13:26:58.955Z</time></trkpt><trkpt lat="46.2396388" lon="8.2864538"><ele>1356.8333333333333</ele><time>2026-05-01T13:26:59.959Z</time></trkpt><trkpt lat="46.2395978" lon="8.2865284"><ele>1357.0</ele><time>2026-05-01T13:27:00.967Z</time></trkpt><trkpt lat="46.2395182" lon="8.2866601"><ele>1357.0</ele><time>2026-05-01T13:27:02.966Z</time></trkpt><trkpt lat="46.2394672" lon="8.2867226"><ele>1357.0</ele><time>2026-05-01T13:27:03.965Z</time></trkpt><trkpt lat="46.2394118" lon="8.2867822"><ele>1357.0</ele><time>2026-05-01T13:27:04.963Z</time></trkpt><trkpt lat="46.2393502" lon="8.2868324"><ele>1357.0</ele><time>2026-05-01T13:27:05.967Z</time></trkpt><trkpt lat="46.2392903" lon="8.2868947"><ele>1357.0</ele><time>2026-05-01T13:27:06.963Z</time></trkpt><trkpt lat="46.2392318" lon="8.2869582"><ele>1357.0</ele><time>2026-05-01T13:27:07.965Z</time></trkpt><trkpt lat="46.2391688" lon="8.2870057"><ele>1357.0</ele><time>2026-05-01T13:27:08.974Z</time></trkpt><trkpt lat="46.2391046" lon="8.2870269"><ele>1357.0</ele><time>2026-05-01T13:27:09.967Z</time></trkpt><trkpt lat="46.2389857" lon="8.2870231"><ele>1357.0</ele><time>2026-05-01T13:27:11.98Z</time></trkpt><trkpt lat="46.2388632" lon="8.2869742"><ele>1357.0</ele><time>2026-05-01T13:27:13.979Z</time></trkpt><trkpt lat="46.2387929" lon="8.2869444"><ele>1357.0</ele><time>2026-05-01T13:27:14.975Z</time></trkpt><trkpt lat="46.2387226" lon="8.2869286"><ele>1357.0</ele><time>2026-05-01T13:27:15.971Z</time></trkpt><trkpt lat="46.2386482" lon="8.2869186"><ele>1356.5</ele><time>2026-05-01T13:27:16.971Z</time></trkpt><trkpt lat="46.2385716" lon="8.2869221"><ele>1356.0</ele><time>2026-05-01T13:27:17.976Z</time></trkpt><trkpt lat="46.2384921" lon="8.286931"><ele>1355.5</ele><time>2026-05-01T13:27:18.973Z</time></trkpt><trkpt lat="46.2384119" lon="8.2869464"><ele>1355.0</ele><time>2026-05-01T13:27:19.969Z</time></trkpt><trkpt lat="46.2383312" lon="8.2869604"><ele>1354.5</ele><time>2026-05-01T13:27:20.97Z</time></trkpt><trkpt lat="46.2382421" lon="8.2869666"><ele>1354.0</ele><time>2026-05-01T13:27:21.986Z</time></trkpt><trkpt lat="46.2381519" lon="8.2869701"><ele>1353.1666666666665</ele><time>2026-05-01T13:27:22.967Z</time></trkpt><trkpt lat="46.2380676" lon="8.2869897"><ele>1352.3333333333333</ele><time>2026-05-01T13:27:23.968Z</time></trkpt><trkpt lat="46.2379932" lon="8.2870294"><ele>1351.5</ele><time>2026-05-01T13:27:24.962Z</time></trkpt><trkpt lat="46.2379232" lon="8.287101"><ele>1350.6666666666667</ele><time>2026-05-01T13:27:25.982Z</time></trkpt><trkpt lat="46.2378578" lon="8.2871815"><ele>1349.8333333333335</ele><time>2026-05-01T13:27:26.966Z</time></trkpt><trkpt lat="46.2377826" lon="8.2872535"><ele>1349.0</ele><time>2026-05-01T13:27:27.97Z</time></trkpt><trkpt lat="46.2377012" lon="8.2873251"><ele>1341.75</ele><time>2026-05-01T13:27:28.972Z</time></trkpt><trkpt lat="46.2376107" lon="8.2874052"><ele>1334.5</ele><time>2026-05-01T13:27:29.967Z</time></trkpt><trkpt lat="46.23751" lon="8.2874942"><ele>1327.25</ele><time>2026-05-01T13:27:30.968Z</time></trkpt><trkpt lat="46.2374031" lon="8.2875788"><ele>1320.0</ele><time>2026-05-01T13:27:31.963Z</time></trkpt><trkpt lat="46.2372955" lon="8.2876577"><ele>1320.0</ele><time>2026-05-01T13:27:32.968Z</time></trkpt><trkpt lat="46.2372003" lon="8.287725"><ele>1320.0</ele><time>2026-05-01T13:27:33.964Z</time></trkpt><trkpt lat="46.237122" lon="8.2877777"><ele>1320.0</ele><time>2026-05-01T13:27:34.968Z</time></trkpt><trkpt lat="46.2370339" lon="8.2878545"><ele>1320.0</ele><time>2026-05-01T13:27:36.965Z</time></trkpt><trkpt lat="46.2371537" lon="8.2879488"><ele>1320.0</ele><time>2026-05-01T13:27:41.959Z</time></trkpt><trkpt lat="46.2372536" lon="8.2880145"><ele>1319.75</ele><time>2026-05-01T13:27:42.964Z</time></trkpt><trkpt lat="46.2373686" lon="8.2880892"><ele>1319.5</ele><time>2026-05-01T13:27:43.965Z</time></trkpt><trkpt lat="46.2374881" lon="8.2881744"><ele>1319.25</ele><time>2026-05-01T13:27:44.961Z</time></trkpt><trkpt lat="46.2375852" lon="8.2882481"><ele>1319.0</ele><time>2026-05-01T13:27:45.955Z</time></trkpt><trkpt lat="46.2376772" lon="8.2883092"><ele>1314.1666666666667</ele><time>2026-05-01T13:27:46.954Z</time></trkpt><trkpt lat="46.2377694" lon="8.2883488"><ele>1309.3333333333335</ele><time>2026-05-01T13:27:47.959Z</time></trkpt><trkpt lat="46.2378511" lon="8.2883866"><ele>1304.5</ele><time>2026-05-01T13:27:48.965Z</time></trkpt><trkpt lat="46.2379196" lon="8.288408"><ele>1299.6666666666667</ele><time>2026-05-01T13:27:49.963Z</time></trkpt><trkpt lat="46.2380259" lon="8.2884018"><ele>1294.8333333333333</ele><time>2026-05-01T13:27:51.969Z</time></trkpt><trkpt lat="46.2379386" lon="8.2884152"><ele>1290.0</ele><time>2026-05-01T13:28:01.958Z</time></trkpt><trkpt lat="46.2378772" lon="8.2884462"><ele>1290.0</ele><time>2026-05-01T13:28:02.963Z</time></trkpt><trkpt lat="46.2377948" lon="8.2884802"><ele>1290.0</ele><time>2026-05-01T13:28:03.966Z</time></trkpt><trkpt lat="46.237704" lon="8.2885049"><ele>1290.0</ele><time>2026-05-01T13:28:04.961Z</time></trkpt><trkpt lat="46.2376185" lon="8.2885275"><ele>1290.0</ele><time>2026-05-01T13:28:05.968Z</time></trkpt><trkpt lat="46.237541" lon="8.2885573"><ele>1290.0</ele><time>2026-05-01T13:28:06.974Z</time></trkpt><trkpt lat="46.2374671" lon="8.2885845"><ele>1290.0</ele><time>2026-05-01T13:28:07.966Z</time></trkpt><trkpt lat="46.2374007" lon="8.2886118"><ele>1290.0</ele><time>2026-05-01T13:28:08.969Z</time></trkpt><trkpt lat="46.2373385" lon="8.2886342"><ele>1290.0</ele><time>2026-05-01T13:28:09.968Z</time></trkpt><trkpt lat="46.2372206" lon="8.2886913"><ele>1290.0</ele><time>2026-05-01T13:28:11.971Z</time></trkpt><trkpt lat="46.2371464" lon="8.2887224"><ele>1290.0</ele><time>2026-05-01T13:28:12.97Z</time></trkpt><trkpt lat="46.2370566" lon="8.2887612"><ele>1290.0</ele><time>2026-05-01T13:28:13.971Z</time></trkpt><trkpt lat="46.236973" lon="8.2888048"><ele>1290.0</ele><time>2026-05-01T13:28:14.968Z</time></trkpt><trkpt lat="46.2368932" lon="8.2888561"><ele>1283.6</ele><time>2026-05-01T13:28:15.962Z</time></trkpt><trkpt lat="46.236812" lon="8.2889294"><ele>1277.2</ele><time>2026-05-01T13:28:16.964Z</time></trkpt><trkpt lat="46.2367285" lon="8.2890124"><ele>1270.8</ele><time>2026-05-01T13:28:17.962Z</time></trkpt><trkpt lat="46.2366471" lon="8.2890959"><ele>1264.4</ele><time>2026-05-01T13:28:18.971Z</time></trkpt><trkpt lat="46.2365645" lon="8.2891675"><ele>1258.0</ele><time>2026-05-01T13:28:19.976Z</time></trkpt><trkpt lat="46.2364768" lon="8.2892161"><ele>1256.5</ele><time>2026-05-01T13:28:20.968Z</time></trkpt><trkpt lat="46.2363783" lon="8.289232"><ele>1255.0</ele><time>2026-05-01T13:28:21.959Z</time></trkpt><trkpt lat="46.2362548" lon="8.2892408"><ele>1253.5</ele><time>2026-05-01T13:28:22.967Z</time></trkpt><trkpt lat="46.2361308" lon="8.2892451"><ele>1252.0</ele><time>2026-05-01T13:28:23.967Z</time></trkpt><trkpt lat="46.2360123" lon="8.28924"><ele>1252.0</ele><time>2026-05-01T13:28:24.972Z</time></trkpt><trkpt lat="46.2358971" lon="8.2892355"><ele>1252.0</ele><time>2026-05-01T13:28:25.968Z</time></trkpt><trkpt lat="46.2357851" lon="8.2892416"><ele>1252.0</ele><time>2026-05-01T13:28:26.967Z</time></trkpt><trkpt lat="46.2356773" lon="8.2892686"><ele>1252.0</ele><time>2026-05-01T13:28:27.995Z</time></trkpt><trkpt lat="46.2355782" lon="8.2893176"><ele>1252.0</ele><time>2026-05-01T13:28:28.97Z</time></trkpt><trkpt lat="46.2354821" lon="8.2893777"><ele>1251.4</ele><time>2026-05-01T13:28:29.973Z</time></trkpt><trkpt lat="46.2353932" lon="8.2894409"><ele>1250.8000000000002</ele><time>2026-05-01T13:28:30.973Z</time></trkpt><trkpt lat="46.2353128" lon="8.2895107"><ele>1250.2</ele><time>2026-05-01T13:28:31.967Z</time></trkpt><trkpt lat="46.2352442" lon="8.2895991"><ele>1249.6000000000001</ele><time>2026-05-01T13:28:32.964Z</time></trkpt><trkpt lat="46.2351764" lon="8.2897027"><ele>1249.0</ele><time>2026-05-01T13:28:33.963Z</time></trkpt><trkpt lat="46.2351107" lon="8.2898098"><ele>1246.8</ele><time>2026-05-01T13:28:34.972Z</time></trkpt><trkpt lat="46.235049" lon="8.2899297"><ele>1244.6000000000001</ele><time>2026-05-01T13:28:35.974Z</time></trkpt><trkpt lat="46.2349934" lon="8.2900596"><ele>1242.4</ele><time>2026-05-01T13:28:36.969Z</time></trkpt><trkpt lat="46.234936" lon="8.2901945"><ele>1240.2</ele><time>2026-05-01T13:28:37.978Z</time></trkpt><trkpt lat="46.2348845" lon="8.2903314"><ele>1238.0</ele><time>2026-05-01T13:28:38.967Z</time></trkpt><trkpt lat="46.2348408" lon="8.290478"><ele>1236.3333333333335</ele><time>2026-05-01T13:28:39.968Z</time></trkpt><trkpt lat="46.2348081" lon="8.2906142"><ele>1234.6666666666667</ele><time>2026-05-01T13:28:40.975Z</time></trkpt><trkpt lat="46.2347675" lon="8.2907263"><ele>1233.0</ele><time>2026-05-01T13:28:41.964Z</time></trkpt><trkpt lat="46.2347151" lon="8.2908266"><ele>1231.3333333333333</ele><time>2026-05-01T13:28:42.977Z</time></trkpt><trkpt lat="46.2346582" lon="8.2909121"><ele>1229.6666666666665</ele><time>2026-05-01T13:28:43.975Z</time></trkpt><trkpt lat="46.2345819" lon="8.2909629"><ele>1228.0</ele><time>2026-05-01T13:28:44.972Z</time></trkpt><trkpt lat="46.2344982" lon="8.2909786"><ele>1227.3333333333333</ele><time>2026-05-01T13:28:45.979Z</time></trkpt><trkpt lat="46.2344242" lon="8.2909446"><ele>1226.6666666666665</ele><time>2026-05-01T13:28:46.973Z</time></trkpt><trkpt lat="46.2343639" lon="8.2908651"><ele>1226.0</ele><time>2026-05-01T13:28:47.976Z</time></trkpt><trkpt lat="46.2343192" lon="8.290767"><ele>1225.3333333333333</ele><time>2026-05-01T13:28:48.974Z</time></trkpt><trkpt lat="46.2342681" lon="8.2906483"><ele>1224.6666666666667</ele><time>2026-05-01T13:28:50.974Z</time></trkpt><trkpt lat="46.2342168" lon="8.2905522"><ele>1224.0</ele><time>2026-05-01T13:28:53.97Z</time></trkpt><trkpt lat="46.2341592" lon="8.2905066"><ele>1223.6666666666667</ele><time>2026-05-01T13:28:57.987Z</time></trkpt><trkpt lat="46.2340887" lon="8.2904435"><ele>1223.3333333333333</ele><time>2026-05-01T13:29:00.977Z</time></trkpt><trkpt lat="46.2340283" lon="8.2903643"><ele>1223.0</ele><time>2026-05-01T13:29:03.976Z</time></trkpt><trkpt lat="46.2339874" lon="8.2902908"><ele>1222.6666666666665</ele><time>2026-05-01T13:29:07.97Z</time></trkpt><trkpt lat="46.2339061" lon="8.2902535"><ele>1222.3333333333333</ele><time>2026-05-01T13:29:13.975Z</time></trkpt><trkpt lat="46.2338385" lon="8.2902194"><ele>1222.0</ele><time>2026-05-01T13:29:16.977Z</time></trkpt><trkpt lat="46.2337539" lon="8.2901104"><ele>1222.0</ele><time>2026-05-01T13:29:49.966Z</time></trkpt><trkpt lat="46.233763" lon="8.2900033"><ele>1222.0</ele><time>2026-05-01T13:29:53.96Z</time></trkpt><trkpt lat="46.2337016" lon="8.2900808"><ele>1222.0</ele><time>2026-05-01T13:31:44.98Z</time></trkpt><trkpt lat="46.2336159" lon="8.2901448"><ele>1222.0</ele><time>2026-05-01T13:31:46.984Z</time></trkpt><trkpt lat="46.2335471" lon="8.2901793"><ele>1222.0</ele><time>2026-05-01T13:31:47.987Z</time></trkpt><trkpt lat="46.2334651" lon="8.2901967"><ele>1222.0</ele><time>2026-05-01T13:31:48.986Z</time></trkpt><trkpt lat="46.2333738" lon="8.2901873"><ele>1222.0</ele><time>2026-05-01T13:31:49.988Z</time></trkpt><trkpt lat="46.233272" lon="8.2901568"><ele>1222.0</ele><time>2026-05-01T13:31:51.005Z</time></trkpt><trkpt lat="46.2331722" lon="8.2901323"><ele>1222.0</ele><time>2026-05-01T13:31:51.987Z</time></trkpt><trkpt lat="46.2330715" lon="8.2901219"><ele>1222.0</ele><time>2026-05-01T13:31:52.991Z</time></trkpt><trkpt lat="46.2329771" lon="8.2901444"><ele>1222.0</ele><time>2026-05-01T13:31:53.988Z</time></trkpt><trkpt lat="46.2328848" lon="8.2901947"><ele>1221.1666666666665</ele><time>2026-05-01T13:31:54.99Z</time></trkpt><trkpt lat="46.2327894" lon="8.2902434"><ele>1220.3333333333333</ele><time>2026-05-01T13:31:55.989Z</time></trkpt><trkpt lat="46.2326977" lon="8.2902873"><ele>1219.5</ele><time>2026-05-01T13:31:56.989Z</time></trkpt><trkpt lat="46.2326129" lon="8.2903167"><ele>1218.6666666666667</ele><time>2026-05-01T13:31:57.988Z</time></trkpt><trkpt lat="46.2325383" lon="8.2903197"><ele>1217.8333333333335</ele><time>2026-05-01T13:31:58.99Z</time></trkpt><trkpt lat="46.2324716" lon="8.2902955"><ele>1217.0</ele><time>2026-05-01T13:31:59.997Z</time></trkpt><trkpt lat="46.2323587" lon="8.2902629"><ele>1219.0</ele><time>2026-05-01T13:32:01.986Z</time></trkpt><trkpt lat="46.2322713" lon="8.2902671"><ele>1221.0</ele><time>2026-05-01T13:32:03.996Z</time></trkpt><trkpt lat="46.2321929" lon="8.2902872"><ele>1223.0</ele><time>2026-05-01T13:32:05.98Z</time></trkpt><trkpt lat="46.2321078" lon="8.2903206"><ele>1225.0</ele><time>2026-05-01T13:32:08.979Z</time></trkpt><trkpt lat="46.2320337" lon="8.2903215"><ele>1227.0</ele><time>2026-05-01T13:32:11.979Z</time></trkpt><trkpt lat="46.2319382" lon="8.290294"><ele>1229.0</ele><time>2026-05-01T13:32:14.981Z</time></trkpt><trkpt lat="46.2318736" lon="8.2902332"><ele>1229.0</ele><time>2026-05-01T13:32:16.979Z</time></trkpt><trkpt lat="46.231814" lon="8.290192"><ele>1229.0</ele><time>2026-05-01T13:32:18.979Z</time></trkpt><trkpt lat="46.2317556" lon="8.2901286"><ele>1229.0</ele><time>2026-05-01T13:32:21.974Z</time></trkpt><trkpt lat="46.2317085" lon="8.2900581"><ele>1229.0</ele><time>2026-05-01T13:32:24.967Z</time></trkpt><trkpt lat="46.2316141" lon="8.2900548"><ele>1229.0</ele><time>2026-05-01T13:32:26.959Z</time></trkpt><trkpt lat="46.2314974" lon="8.29004"><ele>1229.0</ele><time>2026-05-01T13:32:27.961Z</time></trkpt><trkpt lat="46.2314179" lon="8.2900233"><ele>1229.8333333333335</ele><time>2026-05-01T13:32:28.948Z</time></trkpt><trkpt lat="46.2313473" lon="8.2900046"><ele>1230.6666666666667</ele><time>2026-05-01T13:32:30.952Z</time></trkpt><trkpt lat="46.2312583" lon="8.2899844"><ele>1231.5</ele><time>2026-05-01T13:32:42.979Z</time></trkpt><trkpt lat="46.2311578" lon="8.290003"><ele>1232.3333333333333</ele><time>2026-05-01T13:32:46.971Z</time></trkpt><trkpt lat="46.2310851" lon="8.2899979"><ele>1233.1666666666665</ele><time>2026-05-01T13:32:47.971Z</time></trkpt><trkpt lat="46.2310211" lon="8.2900009"><ele>1234.0</ele><time>2026-05-01T13:32:48.973Z</time></trkpt><trkpt lat="46.2309462" lon="8.2899822"><ele>1234.0</ele><time>2026-05-01T13:32:50.979Z</time></trkpt><trkpt lat="46.2308792" lon="8.28997"><ele>1234.0</ele><time>2026-05-01T13:32:52.984Z</time></trkpt><trkpt lat="46.2308089" lon="8.2899639"><ele>1234.0</ele><time>2026-05-01T13:32:54.981Z</time></trkpt><trkpt lat="46.2307432" lon="8.2899529"><ele>1234.0</ele><time>2026-05-01T13:32:56.979Z</time></trkpt><trkpt lat="46.230661" lon="8.2899562"><ele>1234.0</ele><time>2026-05-01T13:32:58.983Z</time></trkpt><trkpt lat="46.2305617" lon="8.2899859"><ele>1234.0</ele><time>2026-05-01T13:33:00.98Z</time></trkpt><trkpt lat="46.2304718" lon="8.290031"><ele>1233.8333333333333</ele><time>2026-05-01T13:33:02.986Z</time></trkpt><trkpt lat="46.2303658" lon="8.2900607"><ele>1233.6666666666665</ele><time>2026-05-01T13:33:04.979Z</time></trkpt><trkpt lat="46.2302945" lon="8.2900684"><ele>1233.5</ele><time>2026-05-01T13:33:06.015Z</time></trkpt><trkpt lat="46.230175" lon="8.2901207"><ele>1233.3333333333333</ele><time>2026-05-01T13:33:07.991Z</time></trkpt><trkpt lat="46.2301155" lon="8.2901517"><ele>1233.1666666666667</ele><time>2026-05-01T13:33:08.992Z</time></trkpt><trkpt lat="46.2300549" lon="8.2901884"><ele>1233.0</ele><time>2026-05-01T13:33:09.99Z</time></trkpt><trkpt lat="46.2299806" lon="8.2902305"><ele>1233.0</ele><time>2026-05-01T13:33:10.978Z</time></trkpt><trkpt lat="46.229891" lon="8.2902771"><ele>1233.0</ele><time>2026-05-01T13:33:11.991Z</time></trkpt><trkpt lat="46.229802" lon="8.2903123"><ele>1233.0</ele><time>2026-05-01T13:33:12.985Z</time></trkpt><trkpt lat="46.2297279" lon="8.2903557"><ele>1233.0</ele><time>2026-05-01T13:33:13.99Z</time></trkpt><trkpt lat="46.2296538" lon="8.2903788"><ele>1233.0</ele><time>2026-05-01T13:33:14.994Z</time></trkpt><trkpt lat="46.2295883" lon="8.2903756"><ele>1233.0</ele><time>2026-05-01T13:33:15.99Z</time></trkpt><trkpt lat="46.2295189" lon="8.2903843"><ele>1232.0</ele><time>2026-05-01T13:33:16.976Z</time></trkpt><trkpt lat="46.2294382" lon="8.2904067"><ele>1231.0</ele><time>2026-05-01T13:33:17.99Z</time></trkpt><trkpt lat="46.2293705" lon="8.2904511"><ele>1230.0</ele><time>2026-05-01T13:33:18.988Z</time></trkpt><trkpt lat="46.2292789" lon="8.2905341"><ele>1229.0</ele><time>2026-05-01T13:33:20.991Z</time></trkpt><trkpt lat="46.2291826" lon="8.29061"><ele>1228.0</ele><time>2026-05-01T13:33:23.004Z</time></trkpt><trkpt lat="46.229096" lon="8.2906131"><ele>1226.0</ele><time>2026-05-01T13:33:24.998Z</time></trkpt><trkpt lat="46.22898" lon="8.2906791"><ele>1224.0</ele><time>2026-05-01T13:33:27.002Z</time></trkpt><trkpt lat="46.2289196" lon="8.2907479"><ele>1222.0</ele><time>2026-05-01T13:33:27.989Z</time></trkpt><trkpt lat="46.2288662" lon="8.2908104"><ele>1220.0</ele><time>2026-05-01T13:33:28.992Z</time></trkpt><trkpt lat="46.2288106" lon="8.2908735"><ele>1218.0</ele><time>2026-05-01T13:33:29.991Z</time></trkpt><trkpt lat="46.2287662" lon="8.2909495"><ele>1216.0</ele><time>2026-05-01T13:33:30.991Z</time></trkpt><trkpt lat="46.2287002" lon="8.2910782"><ele>1215.3333333333333</ele><time>2026-05-01T13:33:32.989Z</time></trkpt><trkpt lat="46.228651" lon="8.291152"><ele>1214.6666666666665</ele><time>2026-05-01T13:33:34.991Z</time></trkpt><trkpt lat="46.2285869" lon="8.2912292"><ele>1214.0</ele><time>2026-05-01T13:33:36.991Z</time></trkpt><trkpt lat="46.2285213" lon="8.2913397"><ele>1213.3333333333333</ele><time>2026-05-01T13:33:38.997Z</time></trkpt><trkpt lat="46.2284548" lon="8.2914158"><ele>1212.6666666666667</ele><time>2026-05-01T13:33:40.984Z</time></trkpt><trkpt lat="46.2284037" lon="8.2914701"><ele>1212.0</ele><time>2026-05-01T13:33:42.985Z</time></trkpt><trkpt lat="46.228327" lon="8.2914517"><ele>1212.0</ele><time>2026-05-01T13:33:46.997Z</time></trkpt><trkpt lat="46.2282581" lon="8.2914345"><ele>1212.0</ele><time>2026-05-01T13:33:49.976Z</time></trkpt><trkpt lat="46.2281786" lon="8.2913978"><ele>1212.0</ele><time>2026-05-01T13:33:52.975Z</time></trkpt><trkpt lat="46.2281103" lon="8.2913292"><ele>1212.0</ele><time>2026-05-01T13:33:54.977Z</time></trkpt><trkpt lat="46.228066" lon="8.2912527"><ele>1212.0</ele><time>2026-05-01T13:33:56.974Z</time></trkpt><trkpt lat="46.227969" lon="8.2912794"><ele>1212.0</ele><time>2026-05-01T13:33:59.968Z</time></trkpt><trkpt lat="46.2279024" lon="8.2912774"><ele>1210.6666666666667</ele><time>2026-05-01T13:34:01.967Z</time></trkpt><trkpt lat="46.2278327" lon="8.2912822"><ele>1209.3333333333333</ele><time>2026-05-01T13:34:03.967Z</time></trkpt><trkpt lat="46.2277735" lon="8.2913178"><ele>1208.0</ele><time>2026-05-01T13:34:05.97Z</time></trkpt><trkpt lat="46.2277154" lon="8.2912267"><ele>1206.6666666666665</ele><time>2026-05-01T13:34:09.967Z</time></trkpt><trkpt lat="46.2276449" lon="8.291141"><ele>1205.3333333333333</ele><time>2026-05-01T13:34:12.974Z</time></trkpt><trkpt lat="46.2275357" lon="8.2910578"><ele>1204.0</ele><time>2026-05-01T13:34:19.969Z</time></trkpt><trkpt lat="46.2274495" lon="8.2909662"><ele>1204.0</ele><time>2026-05-01T13:34:21.971Z</time></trkpt><trkpt lat="46.2273732" lon="8.2909438"><ele>1204.0</ele><time>2026-05-01T13:34:22.966Z</time></trkpt><trkpt lat="46.2272981" lon="8.2909323"><ele>1204.0</ele><time>2026-05-01T13:34:24.974Z</time></trkpt><trkpt lat="46.2272204" lon="8.2909142"><ele>1204.0</ele><time>2026-05-01T13:34:27.972Z</time></trkpt><trkpt lat="46.2271448" lon="8.2908921"><ele>1204.0</ele><time>2026-05-01T13:34:30.972Z</time></trkpt><trkpt lat="46.2270801" lon="8.2908495"><ele>1204.0</ele><time>2026-05-01T13:34:34.981Z</time></trkpt><trkpt lat="46.2270131" lon="8.2908004"><ele>1204.8</ele><time>2026-05-01T13:34:37.993Z</time></trkpt><trkpt lat="46.2269536" lon="8.2907674"><ele>1205.6000000000001</ele><time>2026-05-01T13:34:41.967Z</time></trkpt><trkpt lat="46.2268869" lon="8.2908254"><ele>1206.4</ele><time>2026-05-01T13:34:44.967Z</time></trkpt><trkpt lat="46.2268223" lon="8.2908052"><ele>1207.2</ele><time>2026-05-01T13:34:49.975Z</time></trkpt><trkpt lat="46.2267427" lon="8.2906266"><ele>1208.0</ele><time>2026-05-01T13:34:54.975Z</time></trkpt><trkpt lat="46.2266484" lon="8.2906588"><ele>1208.0</ele><time>2026-05-01T13:35:24.982Z</time></trkpt><trkpt lat="46.2265776" lon="8.2907025"><ele>1208.0</ele><time>2026-05-01T13:35:28.985Z</time></trkpt><trkpt lat="46.226514" lon="8.2907243"><ele>1208.0</ele><time>2026-05-01T13:35:37.99Z</time></trkpt><trkpt lat="46.2264065" lon="8.2907304"><ele>1208.0</ele><time>2026-05-01T13:35:44.978Z</time></trkpt><trkpt lat="46.2263198" lon="8.2907246"><ele>1208.0</ele><time>2026-05-01T13:35:47.978Z</time></trkpt><trkpt lat="46.2262312" lon="8.2906989"><ele>1208.0</ele><time>2026-05-01T13:35:50.977Z</time></trkpt><trkpt lat="46.2261603" lon="8.2906973"><ele>1210.6666666666667</ele><time>2026-05-01T13:35:53.978Z</time></trkpt><trkpt lat="46.2260974" lon="8.290685"><ele>1213.3333333333335</ele><time>2026-05-01T13:35:57.973Z</time></trkpt><trkpt lat="46.2260501" lon="8.2907839"><ele>1216.0</ele><time>2026-05-01T13:36:00.982Z</time></trkpt><trkpt lat="46.2259809" lon="8.2908446"><ele>1218.6666666666667</ele><time>2026-05-01T13:36:08.981Z</time></trkpt><trkpt lat="46.2258602" lon="8.2908047"><ele>1221.3333333333333</ele><time>2026-05-01T13:36:12.975Z</time></trkpt><trkpt lat="46.2257656" lon="8.2908089"><ele>1224.0</ele><time>2026-05-01T13:36:14.98Z</time></trkpt><trkpt lat="46.2256907" lon="8.2907971"><ele>1228.4285714285713</ele><time>2026-05-01T13:36:19.983Z</time></trkpt><trkpt lat="46.2256342" lon="8.290855"><ele>1232.857142857143</ele><time>2026-05-01T13:36:25.974Z</time></trkpt><trkpt lat="46.2255731" lon="8.2909075"><ele>1237.2857142857142</ele><time>2026-05-01T13:36:29.981Z</time></trkpt><trkpt lat="46.2255042" lon="8.2909443"><ele>1241.7142857142858</ele><time>2026-05-01T13:36:31.976Z</time></trkpt><trkpt lat="46.225456" lon="8.2910056"><ele>1246.142857142857</ele><time>2026-05-01T13:36:34.979Z</time></trkpt><trkpt lat="46.2253928" lon="8.2910683"><ele>1250.5714285714287</ele><time>2026-05-01T13:36:36.98Z</time></trkpt><trkpt lat="46.2253571" lon="8.2911481"><ele>1255.0</ele><time>2026-05-01T13:36:38.983Z</time></trkpt><trkpt lat="46.2252827" lon="8.2911958"><ele>1255.0</ele><time>2026-05-01T13:36:40.977Z</time></trkpt><trkpt lat="46.2252242" lon="8.2912533"><ele>1255.0</ele><time>2026-05-01T13:36:45.992Z</time></trkpt><trkpt lat="46.2251792" lon="8.2913434"><ele>1255.0</ele><time>2026-05-01T13:36:50.985Z</time></trkpt><trkpt lat="46.2250975" lon="8.2914077"><ele>1255.0</ele><time>2026-05-01T13:37:03.979Z</time></trkpt><trkpt lat="46.2250138" lon="8.2914244"><ele>1255.0</ele><time>2026-05-01T13:37:05.979Z</time></trkpt><trkpt lat="46.224889" lon="8.2914405"><ele>1256.0</ele><time>2026-05-01T13:37:07.98Z</time></trkpt><trkpt lat="46.2248198" lon="8.2914553"><ele>1257.0</ele><time>2026-05-01T13:37:08.972Z</time></trkpt><trkpt lat="46.2247546" lon="8.291471"><ele>1258.0</ele><time>2026-05-01T13:37:11.986Z</time></trkpt><trkpt lat="46.2246833" lon="8.291489"><ele>1259.0</ele><time>2026-05-01T13:37:17.986Z</time></trkpt><trkpt lat="46.2246194" lon="8.2914901"><ele>1260.0</ele><time>2026-05-01T13:37:19.984Z</time></trkpt><trkpt lat="46.2244962" lon="8.2915606"><ele>1261.0</ele><time>2026-05-01T13:37:28.984Z</time></trkpt><trkpt lat="46.2244313" lon="8.291634"><ele>1261.0</ele><time>2026-05-01T13:37:33.982Z</time></trkpt><trkpt lat="46.2243623" lon="8.2917058"><ele>1261.0</ele><time>2026-05-01T13:37:36.981Z</time></trkpt><trkpt lat="46.2242993" lon="8.2918113"><ele>1261.0</ele><time>2026-05-01T13:37:39.99Z</time></trkpt><trkpt lat="46.2242125" lon="8.2918581"><ele>1261.0</ele><time>2026-05-01T13:37:41.99Z</time></trkpt><trkpt lat="46.2241251" lon="8.2919"><ele>1261.0</ele><time>2026-05-01T13:37:44.031Z</time></trkpt><trkpt lat="46.224053" lon="8.2919617"><ele>1261.0</ele><time>2026-05-01T13:37:49.981Z</time></trkpt><trkpt lat="46.2240233" lon="8.2920721"><ele>1261.0</ele><time>2026-05-01T13:37:53.983Z</time></trkpt><trkpt lat="46.2239484" lon="8.2920856"><ele>1261.0</ele><time>2026-05-01T13:37:55.985Z</time></trkpt><trkpt lat="46.22386" lon="8.2920661"><ele>1261.0</ele><time>2026-05-01T13:37:58.984Z</time></trkpt><trkpt lat="46.2237546" lon="8.2920673"><ele>1261.0</ele><time>2026-05-01T13:38:01.985Z</time></trkpt><trkpt lat="46.2236542" lon="8.2920723"><ele>1265.1666666666665</ele><time>2026-05-01T13:38:03.982Z</time></trkpt><trkpt lat="46.2235852" lon="8.2920556"><ele>1269.3333333333333</ele><time>2026-05-01T13:38:05.988Z</time></trkpt><trkpt lat="46.2234873" lon="8.2920382"><ele>1273.5</ele><time>2026-05-01T13:38:08.991Z</time></trkpt><trkpt lat="46.2234134" lon="8.2920264"><ele>1277.6666666666667</ele><time>2026-05-01T13:38:11.986Z</time></trkpt><trkpt lat="46.223345" lon="8.2920686"><ele>1281.8333333333335</ele><time>2026-05-01T13:38:18.983Z</time></trkpt><trkpt lat="46.2232523" lon="8.2920914"><ele>1286.0</ele><time>2026-05-01T13:38:24.982Z</time></trkpt><trkpt lat="46.2231793" lon="8.2920518"><ele>1288.8333333333335</ele><time>2026-05-01T13:38:28.995Z</time></trkpt><trkpt lat="46.2231159" lon="8.2920637"><ele>1291.6666666666667</ele><time>2026-05-01T13:38:31.987Z</time></trkpt><trkpt lat="46.2230354" lon="8.2920687"><ele>1294.5</ele><time>2026-05-01T13:38:35.988Z</time></trkpt><trkpt lat="46.2229542" lon="8.2920949"><ele>1297.3333333333333</ele><time>2026-05-01T13:38:38.997Z</time></trkpt><trkpt lat="46.2228865" lon="8.2921241"><ele>1300.1666666666665</ele><time>2026-05-01T13:38:44.995Z</time></trkpt><trkpt lat="46.2228103" lon="8.2921491"><ele>1303.0</ele><time>2026-05-01T13:38:47.979Z</time></trkpt><trkpt lat="46.2227366" lon="8.2921688"><ele>1303.0</ele><time>2026-05-01T13:38:50.986Z</time></trkpt><trkpt lat="46.2226801" lon="8.2921191"><ele>1303.0</ele><time>2026-05-01T13:38:52.98Z</time></trkpt><trkpt lat="46.2226008" lon="8.2920378"><ele>1303.0</ele><time>2026-05-01T13:38:56.978Z</time></trkpt><trkpt lat="46.2225364" lon="8.29204"><ele>1303.0</ele><time>2026-05-01T13:38:57.983Z</time></trkpt><trkpt lat="46.222444" lon="8.2920588"><ele>1303.0</ele><time>2026-05-01T13:39:00Z</time></trkpt><trkpt lat="46.222379" lon="8.2920613"><ele>1303.0</ele><time>2026-05-01T13:39:01.983Z</time></trkpt><trkpt lat="46.2223033" lon="8.2920555"><ele>1303.0</ele><time>2026-05-01T13:39:05.976Z</time></trkpt><trkpt lat="46.2222337" lon="8.2920624"><ele>1303.0</ele><time>2026-05-01T13:39:08.989Z</time></trkpt><trkpt lat="46.2221593" lon="8.2920923"><ele>1303.0</ele><time>2026-05-01T13:39:14.975Z</time></trkpt><trkpt lat="46.2220761" lon="8.2921287"><ele>1303.0</ele><time>2026-05-01T13:39:16.981Z</time></trkpt><trkpt lat="46.2219849" lon="8.2921623"><ele>1303.0</ele><time>2026-05-01T13:39:18.98Z</time></trkpt><trkpt lat="46.2219053" lon="8.2921534"><ele>1303.0</ele><time>2026-05-01T13:39:19.98Z</time></trkpt><trkpt lat="46.2218346" lon="8.2921375"><ele>1303.0</ele><time>2026-05-01T13:39:20.977Z</time></trkpt><trkpt lat="46.2217689" lon="8.2921172"><ele>1303.0</ele><time>2026-05-01T13:39:23.984Z</time></trkpt><trkpt lat="46.2216986" lon="8.2920561"><ele>1303.0</ele><time>2026-05-01T13:39:31.987Z</time></trkpt><trkpt lat="46.2216207" lon="8.2920505"><ele>1303.0</ele><time>2026-05-01T13:39:36.988Z</time></trkpt><trkpt lat="46.2215577" lon="8.29208"><ele>1303.0</ele><time>2026-05-01T13:39:38.99Z</time></trkpt><trkpt lat="46.2214952" lon="8.2920162"><ele>1303.0</ele><time>2026-05-01T13:40:51.955Z</time></trkpt><trkpt lat="46.2214848" lon="8.2919164"><ele>1303.0</ele><time>2026-05-01T13:40:55.954Z</time></trkpt><trkpt lat="46.2214673" lon="8.291821"><ele>1303.0</ele><time>2026-05-01T13:41:03.949Z</time></trkpt><trkpt lat="46.2213986" lon="8.2918464"><ele>1303.0</ele><time>2026-05-01T13:41:10.955Z</time></trkpt><trkpt lat="46.2214462" lon="8.2917638"><ele>1303.0</ele><time>2026-05-01T13:41:19.984Z</time></trkpt><trkpt lat="46.2215147" lon="8.2917635"><ele>1303.0</ele><time>2026-05-01T13:41:21.976Z</time></trkpt><trkpt lat="46.2214336" lon="8.29182"><ele>1303.0</ele><time>2026-05-01T13:42:37.967Z</time></trkpt><trkpt lat="46.2213343" lon="8.291817"><ele>1303.0</ele><time>2026-05-01T13:42:39.968Z</time></trkpt><trkpt lat="46.2213977" lon="8.2918016"><ele>1303.0</ele><time>2026-05-01T13:42:52.986Z</time></trkpt><trkpt lat="46.2214855" lon="8.2917682"><ele>1303.0</ele><time>2026-05-01T13:42:58.961Z</time></trkpt><trkpt lat="46.2215404" lon="8.2917196"><ele>1303.0</ele><time>2026-05-01T13:43:01.971Z</time></trkpt><trkpt lat="46.2216107" lon="8.2916771"><ele>1303.0</ele><time>2026-05-01T13:43:04.973Z</time></trkpt><trkpt lat="46.2216913" lon="8.2916849"><ele>1303.0</ele><time>2026-05-01T13:43:09.973Z</time></trkpt><trkpt lat="46.2217436" lon="8.2915861"><ele>1303.0</ele><time>2026-05-01T13:43:12.97Z</time></trkpt><trkpt lat="46.2218106" lon="8.2915265"><ele>1303.0</ele><time>2026-05-01T13:43:17.979Z</time></trkpt><trkpt lat="46.2218723" lon="8.2914747"><ele>1303.0</ele><time>2026-05-01T13:43:21.973Z</time></trkpt><trkpt lat="46.2219422" lon="8.29147"><ele>1303.0</ele><time>2026-05-01T13:43:25.969Z</time></trkpt><trkpt lat="46.2220103" lon="8.2913558"><ele>1303.0</ele><time>2026-05-01T13:43:27.97Z</time></trkpt><trkpt lat="46.2220783" lon="8.2912746"><ele>1303.0</ele><time>2026-05-01T13:43:31.967Z</time></trkpt><trkpt lat="46.2221529" lon="8.2912284"><ele>1303.0</ele><time>2026-05-01T13:43:34.964Z</time></trkpt><trkpt lat="46.2222167" lon="8.2912281"><ele>1308.8333333333333</ele><time>2026-05-01T13:43:38.973Z</time></trkpt><trkpt lat="46.2222916" lon="8.2911778"><ele>1314.6666666666665</ele><time>2026-05-01T13:43:44.965Z</time></trkpt><trkpt lat="46.2223573" lon="8.2911615"><ele>1320.5</ele><time>2026-05-01T13:43:47.976Z</time></trkpt><trkpt lat="46.2224321" lon="8.2911289"><ele>1326.3333333333333</ele><time>2026-05-01T13:43:50.968Z</time></trkpt><trkpt lat="46.2224882" lon="8.2910643"><ele>1332.1666666666667</ele><time>2026-05-01T13:43:53.983Z</time></trkpt><trkpt lat="46.2225551" lon="8.2909961"><ele>1338.0</ele><time>2026-05-01T13:43:57.976Z</time></trkpt><trkpt lat="46.2226262" lon="8.290983"><ele>1338.0</ele><time>2026-05-01T13:44:01.966Z</time></trkpt><trkpt lat="46.2227028" lon="8.2910088"><ele>1338.0</ele><time>2026-05-01T13:44:06.976Z</time></trkpt><trkpt lat="46.2227727" lon="8.2909637"><ele>1338.0</ele><time>2026-05-01T13:44:09.975Z</time></trkpt><trkpt lat="46.2228457" lon="8.29092"><ele>1338.0</ele><time>2026-05-01T13:44:12.969Z</time></trkpt><trkpt lat="46.2229028" lon="8.2908448"><ele>1338.0</ele><time>2026-05-01T13:44:15.971Z</time></trkpt><trkpt lat="46.2229652" lon="8.2907863"><ele>1338.0</ele><time>2026-05-01T13:44:18.968Z</time></trkpt><trkpt lat="46.2230281" lon="8.2907307"><ele>1338.0</ele><time>2026-05-01T13:44:21.968Z</time></trkpt><trkpt lat="46.2230837" lon="8.2906853"><ele>1338.0</ele><time>2026-05-01T13:44:23.968Z</time></trkpt><trkpt lat="46.2231397" lon="8.2906242"><ele>1338.0</ele><time>2026-05-01T13:44:25.97Z</time></trkpt><trkpt lat="46.2231974" lon="8.2905539"><ele>1338.0</ele><time>2026-05-01T13:44:27.969Z</time></trkpt><trkpt lat="46.2232666" lon="8.2905161"><ele>1338.0</ele><time>2026-05-01T13:44:30.967Z</time></trkpt><trkpt lat="46.2233246" lon="8.2904637"><ele>1338.0</ele><time>2026-05-01T13:44:32.97Z</time></trkpt><trkpt lat="46.2233896" lon="8.2904038"><ele>1338.0</ele><time>2026-05-01T13:44:35.972Z</time></trkpt><trkpt lat="46.2234408" lon="8.2903419"><ele>1339.8333333333333</ele><time>2026-05-01T13:44:46.977Z</time></trkpt><trkpt lat="46.2235069" lon="8.2902732"><ele>1341.6666666666667</ele><time>2026-05-01T13:44:49.979Z</time></trkpt><trkpt lat="46.2235725" lon="8.2902113"><ele>1343.5</ele><time>2026-05-01T13:44:51.975Z</time></trkpt><trkpt lat="46.2236363" lon="8.2901843"><ele>1345.3333333333335</ele><time>2026-05-01T13:44:53.976Z</time></trkpt><trkpt lat="46.2237021" lon="8.2901119"><ele>1347.1666666666667</ele><time>2026-05-01T13:44:56.976Z</time></trkpt><trkpt lat="46.2237579" lon="8.2900411"><ele>1349.0</ele><time>2026-05-01T13:45:04.984Z</time></trkpt><trkpt lat="46.2238192" lon="8.2899687"><ele>1349.0</ele><time>2026-05-01T13:45:30.986Z</time></trkpt><trkpt lat="46.2238822" lon="8.2898498"><ele>1349.0</ele><time>2026-05-01T13:45:35.972Z</time></trkpt><trkpt lat="46.2239593" lon="8.2897506"><ele>1349.0</ele><time>2026-05-01T13:45:37.97Z</time></trkpt><trkpt lat="46.2240089" lon="8.2896693"><ele>1349.0</ele><time>2026-05-01T13:45:40.978Z</time></trkpt><trkpt lat="46.224047" lon="8.2895757"><ele>1349.0</ele><time>2026-05-01T13:45:43.987Z</time></trkpt><trkpt lat="46.2240861" lon="8.2894621"><ele>1349.0</ele><time>2026-05-01T13:45:46.98Z</time></trkpt><trkpt lat="46.2241315" lon="8.2893697"><ele>1347.6666666666667</ele><time>2026-05-01T13:45:49.982Z</time></trkpt><trkpt lat="46.2241974" lon="8.2892747"><ele>1346.3333333333335</ele><time>2026-05-01T13:45:52.992Z</time></trkpt><trkpt lat="46.2242504" lon="8.2891719"><ele>1345.0</ele><time>2026-05-01T13:45:55.979Z</time></trkpt><trkpt lat="46.2242908" lon="8.2890968"><ele>1343.6666666666667</ele><time>2026-05-01T13:45:58.978Z</time></trkpt><trkpt lat="46.2243351" lon="8.2890179"><ele>1342.3333333333333</ele><time>2026-05-01T13:46:23.954Z</time></trkpt><trkpt lat="46.2243989" lon="8.2889759"><ele>1341.0</ele><time>2026-05-01T13:46:26.956Z</time></trkpt><trkpt lat="46.2244129" lon="8.2888733"><ele>1346.1666666666667</ele><time>2026-05-01T13:46:32.972Z</time></trkpt><trkpt lat="46.2244596" lon="8.2887867"><ele>1351.3333333333333</ele><time>2026-05-01T13:46:47.973Z</time></trkpt><trkpt lat="46.2245042" lon="8.2886702"><ele>1356.5</ele><time>2026-05-01T13:47:00.976Z</time></trkpt><trkpt lat="46.2245216" lon="8.2885672"><ele>1361.6666666666665</ele><time>2026-05-01T13:47:31.972Z</time></trkpt><trkpt lat="46.2245506" lon="8.2884695"><ele>1366.8333333333333</ele><time>2026-05-01T13:47:39.972Z</time></trkpt><trkpt lat="46.224592" lon="8.2883364"><ele>1372.0</ele><time>2026-05-01T13:48:23.976Z</time></trkpt><trkpt lat="46.2245858" lon="8.2882445"><ele>1372.0</ele><time>2026-05-01T13:49:38.975Z</time></trkpt><trkpt lat="46.2245953" lon="8.2881314"><ele>1372.0</ele><time>2026-05-01T13:51:26.969Z</time></trkpt><trkpt lat="46.2246452" lon="8.2880548"><ele>1372.0</ele><time>2026-05-01T13:51:30.968Z</time></trkpt><trkpt lat="46.2246828" lon="8.2879663"><ele>1372.0</ele><time>2026-05-01T13:51:50.962Z</time></trkpt><trkpt lat="46.2246649" lon="8.28807"><ele>1372.0</ele><time>2026-05-01T13:54:34.976Z</time></trkpt><trkpt lat="46.2246326" lon="8.2881651"><ele>1372.0</ele><time>2026-05-01T13:54:36.977Z</time></trkpt><trkpt lat="46.2245995" lon="8.2882507"><ele>1372.0</ele><time>2026-05-01T13:54:38.982Z</time></trkpt><trkpt lat="46.2245713" lon="8.2883686"><ele>1372.0</ele><time>2026-05-01T13:54:41.989Z</time></trkpt><trkpt lat="46.2245718" lon="8.2884859"><ele>1372.0</ele><time>2026-05-01T13:54:44.992Z</time></trkpt><trkpt lat="46.224568" lon="8.288587"><ele>1372.0</ele><time>2026-05-01T13:54:48.005Z</time></trkpt><trkpt lat="46.2245619" lon="8.2886871"><ele>1372.0</ele><time>2026-05-01T13:54:49.997Z</time></trkpt><trkpt lat="46.2245457" lon="8.2888156"><ele>1372.0</ele><time>2026-05-01T13:54:52.981Z</time></trkpt><trkpt lat="46.22453" lon="8.288917"><ele>1372.0</ele><time>2026-05-01T13:54:55.984Z</time></trkpt><trkpt lat="46.2244735" lon="8.2889937"><ele>1366.8333333333333</ele><time>2026-05-01T13:55:01.985Z</time></trkpt><trkpt lat="46.2244082" lon="8.28905"><ele>1361.6666666666665</ele><time>2026-05-01T13:55:04.99Z</time></trkpt><trkpt lat="46.2243555" lon="8.2891124"><ele>1356.5</ele><time>2026-05-01T13:55:07.994Z</time></trkpt><trkpt lat="46.2243234" lon="8.2891961"><ele>1351.3333333333333</ele><time>2026-05-01T13:55:32.996Z</time></trkpt><trkpt lat="46.2243123" lon="8.2893014"><ele>1346.1666666666667</ele><time>2026-05-01T13:55:37.991Z</time></trkpt><trkpt lat="46.2242535" lon="8.2893576"><ele>1341.0</ele><time>2026-05-01T13:55:39.993Z</time></trkpt><trkpt lat="46.2241733" lon="8.2894424"><ele>1341.0</ele><time>2026-05-01T13:55:41.982Z</time></trkpt><trkpt lat="46.2241265" lon="8.2895095"><ele>1341.0</ele><time>2026-05-01T13:55:42.982Z</time></trkpt><trkpt lat="46.2240847" lon="8.2895903"><ele>1341.0</ele><time>2026-05-01T13:55:43.989Z</time></trkpt><trkpt lat="46.2240453" lon="8.2896682"><ele>1341.0</ele><time>2026-05-01T13:55:44.988Z</time></trkpt><trkpt lat="46.2240014" lon="8.2897355"><ele>1341.0</ele><time>2026-05-01T13:55:45.981Z</time></trkpt><trkpt lat="46.2239217" lon="8.2898652"><ele>1341.0</ele><time>2026-05-01T13:55:47.978Z</time></trkpt><trkpt lat="46.2238528" lon="8.2899988"><ele>1342.3333333333333</ele><time>2026-05-01T13:55:49.99Z</time></trkpt><trkpt lat="46.223788" lon="8.2900898"><ele>1343.6666666666667</ele><time>2026-05-01T13:55:51.992Z</time></trkpt><trkpt lat="46.2237387" lon="8.2901764"><ele>1345.0</ele><time>2026-05-01T13:55:55.982Z</time></trkpt><trkpt lat="46.2236923" lon="8.2902878"><ele>1346.3333333333335</ele><time>2026-05-01T13:55:59.996Z</time></trkpt><trkpt lat="46.2236384" lon="8.2903415"><ele>1347.6666666666667</ele><time>2026-05-01T13:56:01.982Z</time></trkpt><trkpt lat="46.2235796" lon="8.2904121"><ele>1349.0</ele><time>2026-05-01T13:56:04.984Z</time></trkpt><trkpt lat="46.2235086" lon="8.2905043"><ele>1349.0</ele><time>2026-05-01T13:56:07.985Z</time></trkpt><trkpt lat="46.2234475" lon="8.2905683"><ele>1349.0</ele><time>2026-05-01T13:56:09.981Z</time></trkpt><trkpt lat="46.2233756" lon="8.2906144"><ele>1349.0</ele><time>2026-05-01T13:56:11.968Z</time></trkpt><trkpt lat="46.2233037" lon="8.290654"><ele>1349.0</ele><time>2026-05-01T13:56:13.981Z</time></trkpt><trkpt lat="46.2232303" lon="8.290725"><ele>1349.0</ele><time>2026-05-01T13:56:16.972Z</time></trkpt><trkpt lat="46.2231474" lon="8.2908361"><ele>1349.0</ele><time>2026-05-01T13:56:18.979Z</time></trkpt><trkpt lat="46.2230627" lon="8.2909096"><ele>1347.4285714285713</ele><time>2026-05-01T13:56:20.982Z</time></trkpt><trkpt lat="46.2229926" lon="8.290938"><ele>1345.857142857143</ele><time>2026-05-01T13:56:21.985Z</time></trkpt><trkpt lat="46.2229259" lon="8.2909559"><ele>1344.2857142857142</ele><time>2026-05-01T13:56:22.996Z</time></trkpt><trkpt lat="46.2228452" lon="8.2909736"><ele>1342.7142857142858</ele><time>2026-05-01T13:56:23.984Z</time></trkpt><trkpt lat="46.2227747" lon="8.2910031"><ele>1341.142857142857</ele><time>2026-05-01T13:56:24.984Z</time></trkpt><trkpt lat="46.2227016" lon="8.2910429"><ele>1339.5714285714287</ele><time>2026-05-01T13:56:25.985Z</time></trkpt><trkpt lat="46.2226316" lon="8.291075"><ele>1338.0</ele><time>2026-05-01T13:56:26.985Z</time></trkpt><trkpt lat="46.2225107" lon="8.2911382"><ele>1338.0</ele><time>2026-05-01T13:56:28.982Z</time></trkpt><trkpt lat="46.2224425" lon="8.2911619"><ele>1338.0</ele><time>2026-05-01T13:56:29.979Z</time></trkpt><trkpt lat="46.2223709" lon="8.2911909"><ele>1338.0</ele><time>2026-05-01T13:56:30.974Z</time></trkpt><trkpt lat="46.2222981" lon="8.2912238"><ele>1338.0</ele><time>2026-05-01T13:56:31.976Z</time></trkpt><trkpt lat="46.2222264" lon="8.2912686"><ele>1338.0</ele><time>2026-05-01T13:56:32.974Z</time></trkpt><trkpt lat="46.2221632" lon="8.2913102"><ele>1338.0</ele><time>2026-05-01T13:56:33.978Z</time></trkpt><trkpt lat="46.2220977" lon="8.2913464"><ele>1338.0</ele><time>2026-05-01T13:56:34.987Z</time></trkpt><trkpt lat="46.2220367" lon="8.2913888"><ele>1332.1666666666667</ele><time>2026-05-01T13:56:35.984Z</time></trkpt><trkpt lat="46.2219792" lon="8.2914286"><ele>1326.3333333333333</ele><time>2026-05-01T13:56:36.987Z</time></trkpt><trkpt lat="46.2218999" lon="8.2914958"><ele>1320.5</ele><time>2026-05-01T13:56:38.986Z</time></trkpt><trkpt lat="46.2218161" lon="8.2915624"><ele>1314.6666666666665</ele><time>2026-05-01T13:56:40.987Z</time></trkpt><trkpt lat="46.221707" lon="8.2916046"><ele>1308.8333333333333</ele><time>2026-05-01T13:56:42.981Z</time></trkpt><trkpt lat="46.2216232" lon="8.2916232"><ele>1303.0</ele><time>2026-05-01T13:56:44.985Z</time></trkpt><trkpt lat="46.2215537" lon="8.2916559"><ele>1301.8333333333333</ele><time>2026-05-01T13:56:46.982Z</time></trkpt><trkpt lat="46.2214692" lon="8.2916957"><ele>1300.6666666666665</ele><time>2026-05-01T13:56:49.986Z</time></trkpt><trkpt lat="46.2214057" lon="8.2917385"><ele>1299.5</ele><time>2026-05-01T13:56:52.989Z</time></trkpt><trkpt lat="46.2213239" lon="8.2917188"><ele>1298.3333333333333</ele><time>2026-05-01T13:56:57.995Z</time></trkpt><trkpt lat="46.2212568" lon="8.2916785"><ele>1297.1666666666667</ele><time>2026-05-01T13:57:01.986Z</time></trkpt><trkpt lat="46.2211932" lon="8.2916527"><ele>1296.0</ele><time>2026-05-01T13:57:04.978Z</time></trkpt><trkpt lat="46.2211118" lon="8.2916786"><ele>1296.0</ele><time>2026-05-01T13:57:09.974Z</time></trkpt><trkpt lat="46.2210379" lon="8.2916255"><ele>1296.0</ele><time>2026-05-01T13:57:10.968Z</time></trkpt><trkpt lat="46.2209721" lon="8.2915587"><ele>1296.0</ele><time>2026-05-01T13:57:11.969Z</time></trkpt><trkpt lat="46.2209261" lon="8.2914654"><ele>1296.0</ele><time>2026-05-01T13:57:13.985Z</time></trkpt><trkpt lat="46.2208413" lon="8.2914554"><ele>1296.0</ele><time>2026-05-01T13:57:16.982Z</time></trkpt><trkpt lat="46.2207654" lon="8.29149"><ele>1296.0</ele><time>2026-05-01T13:57:18.967Z</time></trkpt><trkpt lat="46.2206773" lon="8.2915182"><ele>1296.3333333333333</ele><time>2026-05-01T13:57:20.974Z</time></trkpt><trkpt lat="46.2205669" lon="8.2915745"><ele>1296.6666666666667</ele><time>2026-05-01T13:57:22.973Z</time></trkpt><trkpt lat="46.220501" lon="8.2916031"><ele>1297.0</ele><time>2026-05-01T13:57:23.976Z</time></trkpt><trkpt lat="46.2204219" lon="8.2916183"><ele>1297.3333333333335</ele><time>2026-05-01T13:57:24.971Z</time></trkpt><trkpt lat="46.2203541" lon="8.2916546"><ele>1297.6666666666667</ele><time>2026-05-01T13:57:25.971Z</time></trkpt><trkpt lat="46.220273" lon="8.2916873"><ele>1298.0</ele><time>2026-05-01T13:57:26.974Z</time></trkpt><trkpt lat="46.2201811" lon="8.2917087"><ele>1298.0</ele><time>2026-05-01T13:57:27.983Z</time></trkpt><trkpt lat="46.220094" lon="8.2917192"><ele>1298.0</ele><time>2026-05-01T13:57:28.975Z</time></trkpt><trkpt lat="46.2200025" lon="8.2917208"><ele>1298.0</ele><time>2026-05-01T13:57:29.976Z</time></trkpt><trkpt lat="46.2199166" lon="8.2917219"><ele>1298.0</ele><time>2026-05-01T13:57:30.965Z</time></trkpt><trkpt lat="46.2198412" lon="8.2917309"><ele>1298.0</ele><time>2026-05-01T13:57:31.976Z</time></trkpt><trkpt lat="46.2197693" lon="8.2917351"><ele>1298.0</ele><time>2026-05-01T13:57:32.98Z</time></trkpt><trkpt lat="46.2197035" lon="8.2917289"><ele>1298.0</ele><time>2026-05-01T13:57:33.99Z</time></trkpt><trkpt lat="46.2196233" lon="8.2917104"><ele>1298.0</ele><time>2026-05-01T13:57:35.978Z</time></trkpt><trkpt lat="46.219552" lon="8.2916825"><ele>1298.0</ele><time>2026-05-01T13:57:37.98Z</time></trkpt><trkpt lat="46.2194678" lon="8.2916628"><ele>1298.0</ele><time>2026-05-01T13:57:39.982Z</time></trkpt><trkpt lat="46.2193864" lon="8.2916627"><ele>1298.0</ele><time>2026-05-01T13:57:41.981Z</time></trkpt><trkpt lat="46.2193018" lon="8.2916561"><ele>1298.0</ele><time>2026-05-01T13:57:43.983Z</time></trkpt><trkpt lat="46.2192251" lon="8.291657"><ele>1298.0</ele><time>2026-05-01T13:57:45.984Z</time></trkpt><trkpt lat="46.2191452" lon="8.2916565"><ele>1298.0</ele><time>2026-05-01T13:57:47.986Z</time></trkpt><trkpt lat="46.2190739" lon="8.2916631"><ele>1298.0</ele><time>2026-05-01T13:57:49.977Z</time></trkpt><trkpt lat="46.2189966" lon="8.2916507"><ele>1298.0</ele><time>2026-05-01T13:57:51.987Z</time></trkpt><trkpt lat="46.2189038" lon="8.2916411"><ele>1298.0</ele><time>2026-05-01T13:57:54.98Z</time></trkpt><trkpt lat="46.2188199" lon="8.2916552"><ele>1298.0</ele><time>2026-05-01T13:57:56.98Z</time></trkpt><trkpt lat="46.2187316" lon="8.2916603"><ele>1300.7142857142856</ele><time>2026-05-01T13:57:58.973Z</time></trkpt><trkpt lat="46.2186642" lon="8.2916716"><ele>1303.4285714285713</ele><time>2026-05-01T13:58:00.973Z</time></trkpt><trkpt lat="46.2185996" lon="8.2916939"><ele>1306.142857142857</ele><time>2026-05-01T13:58:02.976Z</time></trkpt><trkpt lat="46.2185222" lon="8.2917235"><ele>1308.8571428571427</ele><time>2026-05-01T13:58:04.977Z</time></trkpt><trkpt lat="46.2184488" lon="8.2917457"><ele>1311.5714285714284</ele><time>2026-05-01T13:58:06.976Z</time></trkpt><trkpt lat="46.2183713" lon="8.2917924"><ele>1314.2857142857142</ele><time>2026-05-01T13:58:08.977Z</time></trkpt><trkpt lat="46.2183229" lon="8.2918624"><ele>1317.0</ele><time>2026-05-01T13:58:10.963Z</time></trkpt><trkpt lat="46.2182685" lon="8.2919281"><ele>1317.0</ele><time>2026-05-01T13:58:12.973Z</time></trkpt><trkpt lat="46.2181827" lon="8.2919848"><ele>1317.0</ele><time>2026-05-01T13:58:14.974Z</time></trkpt><trkpt lat="46.2180795" lon="8.2920652"><ele>1317.0</ele><time>2026-05-01T13:58:16.973Z</time></trkpt><trkpt lat="46.217995" lon="8.2921363"><ele>1317.0</ele><time>2026-05-01T13:58:18.987Z</time></trkpt><trkpt lat="46.2179094" lon="8.2922031"><ele>1317.0</ele><time>2026-05-01T13:58:20.972Z</time></trkpt><trkpt lat="46.2178352" lon="8.2922677"><ele>1315.3999999999999</ele><time>2026-05-01T13:58:22.979Z</time></trkpt><trkpt lat="46.2177842" lon="8.2923364"><ele>1313.8</ele><time>2026-05-01T13:58:24.979Z</time></trkpt><trkpt lat="46.217717" lon="8.2924072"><ele>1312.2</ele><time>2026-05-01T13:58:26.975Z</time></trkpt><trkpt lat="46.2176382" lon="8.2924861"><ele>1310.6</ele><time>2026-05-01T13:58:28.973Z</time></trkpt><trkpt lat="46.217541" lon="8.2925564"><ele>1309.0</ele><time>2026-05-01T13:58:30.973Z</time></trkpt><trkpt lat="46.2174575" lon="8.2926505"><ele>1309.0</ele><time>2026-05-01T13:58:32.97Z</time></trkpt><trkpt lat="46.2173933" lon="8.2927784"><ele>1309.0</ele><time>2026-05-01T13:58:34.981Z</time></trkpt><trkpt lat="46.2173129" lon="8.2928745"><ele>1309.0</ele><time>2026-05-01T13:58:36.977Z</time></trkpt><trkpt lat="46.2172107" lon="8.2929581"><ele>1309.0</ele><time>2026-05-01T13:58:38.984Z</time></trkpt><trkpt lat="46.2171483" lon="8.2930571"><ele>1309.0</ele><time>2026-05-01T13:58:40.977Z</time></trkpt><trkpt lat="46.2170655" lon="8.2931357"><ele>1308.5</ele><time>2026-05-01T13:58:42.979Z</time></trkpt><trkpt lat="46.216934" lon="8.2931819"><ele>1308.0</ele><time>2026-05-01T13:58:44.98Z</time></trkpt><trkpt lat="46.2168349" lon="8.2932436"><ele>1307.5</ele><time>2026-05-01T13:58:46.992Z</time></trkpt><trkpt lat="46.2167388" lon="8.2933171"><ele>1307.0</ele><time>2026-05-01T13:58:48.99Z</time></trkpt><trkpt lat="46.2166204" lon="8.2933721"><ele>1307.0</ele><time>2026-05-01T13:58:50.995Z</time></trkpt><trkpt lat="46.2165553" lon="8.2934022"><ele>1307.0</ele><time>2026-05-01T13:58:51.993Z</time></trkpt><trkpt lat="46.2164879" lon="8.2934318"><ele>1307.0</ele><time>2026-05-01T13:58:52.993Z</time></trkpt><trkpt lat="46.2164282" lon="8.2934695"><ele>1307.0</ele><time>2026-05-01T13:58:53.984Z</time></trkpt><trkpt lat="46.2163339" lon="8.2935638"><ele>1307.0</ele><time>2026-05-01T13:58:55.99Z</time></trkpt><trkpt lat="46.2162232" lon="8.2936475"><ele>1307.0</ele><time>2026-05-01T13:58:57.977Z</time></trkpt><trkpt lat="46.2161355" lon="8.2937374"><ele>1305.5714285714284</ele><time>2026-05-01T13:58:59.975Z</time></trkpt><trkpt lat="46.2160729" lon="8.293769"><ele>1304.1428571428573</ele><time>2026-05-01T13:59:00.987Z</time></trkpt><trkpt lat="46.2160296" lon="8.2938393"><ele>1302.7142857142858</ele><time>2026-05-01T13:59:02.974Z</time></trkpt><trkpt lat="46.2159721" lon="8.2939091"><ele>1301.2857142857142</ele><time>2026-05-01T13:59:04.976Z</time></trkpt><trkpt lat="46.2159078" lon="8.2939809"><ele>1299.8571428571427</ele><time>2026-05-01T13:59:06.974Z</time></trkpt><trkpt lat="46.2158396" lon="8.2940289"><ele>1298.4285714285716</ele><time>2026-05-01T13:59:08.969Z</time></trkpt><trkpt lat="46.2157869" lon="8.2940909"><ele>1297.0</ele><time>2026-05-01T13:59:10.973Z</time></trkpt><trkpt lat="46.2157128" lon="8.2941539"><ele>1307.3999999999999</ele><time>2026-05-01T13:59:12.975Z</time></trkpt><trkpt lat="46.2156016" lon="8.2941939"><ele>1317.8</ele><time>2026-05-01T13:59:14.973Z</time></trkpt><trkpt lat="46.2155375" lon="8.2942871"><ele>1328.2</ele><time>2026-05-01T13:59:16.973Z</time></trkpt><trkpt lat="46.2154975" lon="8.2944046"><ele>1338.6</ele><time>2026-05-01T13:59:18.98Z</time></trkpt><trkpt lat="46.2154304" lon="8.294504"><ele>1349.0</ele><time>2026-05-01T13:59:21.004Z</time></trkpt><trkpt lat="46.2153574" lon="8.2945817"><ele>1349.0</ele><time>2026-05-01T13:59:23Z</time></trkpt><trkpt lat="46.2152628" lon="8.2946633"><ele>1349.0</ele><time>2026-05-01T13:59:24.991Z</time></trkpt><trkpt lat="46.2151626" lon="8.2947443"><ele>1349.0</ele><time>2026-05-01T13:59:26.989Z</time></trkpt><trkpt lat="46.2151289" lon="8.2948459"><ele>1349.0</ele><time>2026-05-01T13:59:28.987Z</time></trkpt><trkpt lat="46.2151008" lon="8.2949426"><ele>1349.0</ele><time>2026-05-01T13:59:30.991Z</time></trkpt><trkpt lat="46.2150658" lon="8.2950518"><ele>1347.3333333333335</ele><time>2026-05-01T13:59:32.989Z</time></trkpt><trkpt lat="46.2150425" lon="8.2951998"><ele>1345.6666666666667</ele><time>2026-05-01T13:59:35.987Z</time></trkpt><trkpt lat="46.2150216" lon="8.2953223"><ele>1344.0</ele><time>2026-05-01T13:59:37.998Z</time></trkpt><trkpt lat="46.2149854" lon="8.2954132"><ele>1342.3333333333333</ele><time>2026-05-01T13:59:39.999Z</time></trkpt><trkpt lat="46.2149258" lon="8.2954765"><ele>1340.6666666666665</ele><time>2026-05-01T13:59:42.002Z</time></trkpt><trkpt lat="46.2148721" lon="8.2955374"><ele>1339.0</ele><time>2026-05-01T13:59:43.998Z</time></trkpt><trkpt lat="46.2148094" lon="8.295611"><ele>1339.0</ele><time>2026-05-01T13:59:46.002Z</time></trkpt><trkpt lat="46.2147669" lon="8.2957164"><ele>1339.0</ele><time>2026-05-01T13:59:49.004Z</time></trkpt><trkpt lat="46.2147409" lon="8.2957996"><ele>1339.0</ele><time>2026-05-01T13:59:51.009Z</time></trkpt><trkpt lat="46.2147061" lon="8.2958958"><ele>1339.0</ele><time>2026-05-01T13:59:53.019Z</time></trkpt><trkpt lat="46.2146719" lon="8.2960052"><ele>1339.0</ele><time>2026-05-01T13:59:55.009Z</time></trkpt><trkpt lat="46.214626" lon="8.2961112"><ele>1339.0</ele><time>2026-05-01T13:59:56.977Z</time></trkpt><trkpt lat="46.2145662" lon="8.296235"><ele>1339.0</ele><time>2026-05-01T13:59:58.991Z</time></trkpt><trkpt lat="46.2144967" lon="8.296362"><ele>1339.0</ele><time>2026-05-01T14:00:00.992Z</time></trkpt><trkpt lat="46.2144166" lon="8.296495"><ele>1339.0</ele><time>2026-05-01T14:00:02.991Z</time></trkpt><trkpt lat="46.214372" lon="8.2965829"><ele>1339.0</ele><time>2026-05-01T14:00:03.999Z</time></trkpt><trkpt lat="46.2143205" lon="8.2966721"><ele>1339.0</ele><time>2026-05-01T14:00:04.988Z</time></trkpt><trkpt lat="46.2142589" lon="8.2967571"><ele>1340.8333333333333</ele><time>2026-05-01T14:00:05.986Z</time></trkpt><trkpt lat="46.2142007" lon="8.2968284"><ele>1342.6666666666665</ele><time>2026-05-01T14:00:06.983Z</time></trkpt><trkpt lat="46.2141339" lon="8.296893"><ele>1344.5</ele><time>2026-05-01T14:00:07.974Z</time></trkpt><trkpt lat="46.2140535" lon="8.2969728"><ele>1346.3333333333333</ele><time>2026-05-01T14:00:08.986Z</time></trkpt><trkpt lat="46.2139758" lon="8.297052"><ele>1348.1666666666667</ele><time>2026-05-01T14:00:09.985Z</time></trkpt><trkpt lat="46.2138923" lon="8.2971162"><ele>1350.0</ele><time>2026-05-01T14:00:10.983Z</time></trkpt><trkpt lat="46.2138347" lon="8.2971872"><ele>1345.1666666666667</ele><time>2026-05-01T14:00:11.984Z</time></trkpt><trkpt lat="46.2137712" lon="8.2972919"><ele>1340.3333333333333</ele><time>2026-05-01T14:00:13.988Z</time></trkpt><trkpt lat="46.2137549" lon="8.2973812"><ele>1335.5</ele><time>2026-05-01T14:00:16.992Z</time></trkpt><trkpt lat="46.2137393" lon="8.2974848"><ele>1330.6666666666665</ele><time>2026-05-01T14:00:30.991Z</time></trkpt><trkpt lat="46.2136712" lon="8.2975307"><ele>1325.8333333333333</ele><time>2026-05-01T14:00:49.978Z</time></trkpt><trkpt lat="46.2137361" lon="8.2974496"><ele>1321.0</ele><time>2026-05-01T14:00:56.99Z</time></trkpt><trkpt lat="46.2137845" lon="8.2973756"><ele>1321.0</ele><time>2026-05-01T14:00:58.978Z</time></trkpt><trkpt lat="46.2138527" lon="8.2973416"><ele>1321.0</ele><time>2026-05-01T14:01:28.98Z</time></trkpt><trkpt lat="46.2137816" lon="8.2973467"><ele>1321.0</ele><time>2026-05-01T14:04:53Z</time></trkpt><trkpt lat="46.213743" lon="8.2972717"><ele>1321.0</ele><time>2026-05-01T14:04:57.984Z</time></trkpt><trkpt lat="46.2137465" lon="8.2971648"><ele>1321.0</ele><time>2026-05-01T14:04:59.984Z</time></trkpt><trkpt lat="46.2137668" lon="8.2970645"><ele>1321.0</ele><time>2026-05-01T14:05:02.987Z</time></trkpt><trkpt lat="46.2137937" lon="8.296956"><ele>1321.0</ele><time>2026-05-01T14:05:05.981Z</time></trkpt><trkpt lat="46.2138553" lon="8.2968852"><ele>1319.8333333333333</ele><time>2026-05-01T14:05:07.983Z</time></trkpt><trkpt lat="46.2139293" lon="8.2968016"><ele>1318.6666666666665</ele><time>2026-05-01T14:05:09.986Z</time></trkpt><trkpt lat="46.2139902" lon="8.2967548"><ele>1317.5</ele><time>2026-05-01T14:05:11.993Z</time></trkpt><trkpt lat="46.2140723" lon="8.2967291"><ele>1316.3333333333333</ele><time>2026-05-01T14:05:14.982Z</time></trkpt><trkpt lat="46.2141533" lon="8.2966913"><ele>1315.1666666666667</ele><time>2026-05-01T14:05:19.988Z</time></trkpt><trkpt lat="46.214214" lon="8.2966287"><ele>1314.0</ele><time>2026-05-01T14:05:21.983Z</time></trkpt><trkpt lat="46.2142781" lon="8.2965294"><ele>1314.0</ele><time>2026-05-01T14:05:24.991Z</time></trkpt><trkpt lat="46.2143303" lon="8.2964457"><ele>1314.0</ele><time>2026-05-01T14:05:26.99Z</time></trkpt><trkpt lat="46.2143868" lon="8.2963616"><ele>1314.0</ele><time>2026-05-01T14:05:28.988Z</time></trkpt><trkpt lat="46.2144412" lon="8.2962562"><ele>1314.0</ele><time>2026-05-01T14:05:30.994Z</time></trkpt><trkpt lat="46.2145016" lon="8.2961537"><ele>1314.0</ele><time>2026-05-01T14:05:32.996Z</time></trkpt><trkpt lat="46.214546" lon="8.2960475"><ele>1314.0</ele><time>2026-05-01T14:05:34.99Z</time></trkpt><trkpt lat="46.2145894" lon="8.2959493"><ele>1315.4</ele><time>2026-05-01T14:05:36.99Z</time></trkpt><trkpt lat="46.2146395" lon="8.2958585"><ele>1316.8000000000002</ele><time>2026-05-01T14:05:38.987Z</time></trkpt><trkpt lat="46.2146938" lon="8.2957586"><ele>1318.1999999999998</ele><time>2026-05-01T14:05:40.992Z</time></trkpt><trkpt lat="46.2147551" lon="8.2956388"><ele>1319.6</ele><time>2026-05-01T14:05:42.991Z</time></trkpt><trkpt lat="46.2148256" lon="8.2955538"><ele>1321.0</ele><time>2026-05-01T14:05:44.988Z</time></trkpt><trkpt lat="46.2148891" lon="8.2954686"><ele>1321.0</ele><time>2026-05-01T14:05:46.989Z</time></trkpt><trkpt lat="46.2149443" lon="8.2953966"><ele>1321.0</ele><time>2026-05-01T14:05:48.99Z</time></trkpt><trkpt lat="46.2149857" lon="8.2952963"><ele>1321.0</ele><time>2026-05-01T14:05:50.991Z</time></trkpt><trkpt lat="46.2150033" lon="8.2951777"><ele>1321.0</ele><time>2026-05-01T14:05:52.988Z</time></trkpt><trkpt lat="46.2150304" lon="8.2950332"><ele>1321.0</ele><time>2026-05-01T14:05:54.987Z</time></trkpt><trkpt lat="46.2150612" lon="8.2948962"><ele>1321.0</ele><time>2026-05-01T14:05:56.986Z</time></trkpt><trkpt lat="46.2151057" lon="8.2947275"><ele>1325.0</ele><time>2026-05-01T14:05:58.987Z</time></trkpt><trkpt lat="46.2151417" lon="8.2946478"><ele>1329.0</ele><time>2026-05-01T14:05:59.993Z</time></trkpt><trkpt lat="46.2151754" lon="8.2945607"><ele>1333.0</ele><time>2026-05-01T14:06:00.995Z</time></trkpt><trkpt lat="46.215219" lon="8.2944879"><ele>1337.0</ele><time>2026-05-01T14:06:01.988Z</time></trkpt><trkpt lat="46.2152616" lon="8.2944125"><ele>1341.0</ele><time>2026-05-01T14:06:02.99Z</time></trkpt><trkpt lat="46.2153079" lon="8.2943335"><ele>1345.0</ele><time>2026-05-01T14:06:03.979Z</time></trkpt><trkpt lat="46.2153578" lon="8.2942562"><ele>1349.0</ele><time>2026-05-01T14:06:04.983Z</time></trkpt><trkpt lat="46.2154094" lon="8.2941773"><ele>1349.0</ele><time>2026-05-01T14:06:05.987Z</time></trkpt><trkpt lat="46.2154677" lon="8.2941146"><ele>1349.0</ele><time>2026-05-01T14:06:06.988Z</time></trkpt><trkpt lat="46.2155267" lon="8.2940608"><ele>1349.0</ele><time>2026-05-01T14:06:07.98Z</time></trkpt><trkpt lat="46.2155848" lon="8.2939926"><ele>1349.0</ele><time>2026-05-01T14:06:08.991Z</time></trkpt><trkpt lat="46.2156402" lon="8.2939423"><ele>1349.0</ele><time>2026-05-01T14:06:09.991Z</time></trkpt><trkpt lat="46.2156983" lon="8.2938945"><ele>1349.0</ele><time>2026-05-01T14:06:10.992Z</time></trkpt><trkpt lat="46.2157933" lon="8.2938079"><ele>1346.4</ele><time>2026-05-01T14:06:12.981Z</time></trkpt><trkpt lat="46.2158881" lon="8.293726"><ele>1343.8000000000002</ele><time>2026-05-01T14:06:14.979Z</time></trkpt><trkpt lat="46.2159882" lon="8.2936556"><ele>1341.1999999999998</ele><time>2026-05-01T14:06:16.979Z</time></trkpt><trkpt lat="46.2160787" lon="8.2936364"><ele>1338.6</ele><time>2026-05-01T14:06:18.984Z</time></trkpt><trkpt lat="46.2161647" lon="8.2936248"><ele>1336.0</ele><time>2026-05-01T14:06:21.984Z</time></trkpt><trkpt lat="46.2162431" lon="8.293616"><ele>1336.0</ele><time>2026-05-01T14:06:24.985Z</time></trkpt><trkpt lat="46.2163195" lon="8.2936291"><ele>1336.0</ele><time>2026-05-01T14:06:27.99Z</time></trkpt><trkpt lat="46.216388" lon="8.2936045"><ele>1336.0</ele><time>2026-05-01T14:06:29.991Z</time></trkpt><trkpt lat="46.216463" lon="8.293565"><ele>1336.0</ele><time>2026-05-01T14:06:31.992Z</time></trkpt><trkpt lat="46.2165515" lon="8.2935086"><ele>1336.0</ele><time>2026-05-01T14:06:33.995Z</time></trkpt><trkpt lat="46.2166346" lon="8.2934622"><ele>1336.0</ele><time>2026-05-01T14:06:35.987Z</time></trkpt><trkpt lat="46.2167301" lon="8.2934034"><ele>1337.5</ele><time>2026-05-01T14:06:37.989Z</time></trkpt><trkpt lat="46.2168349" lon="8.2933633"><ele>1339.0</ele><time>2026-05-01T14:06:39.991Z</time></trkpt><trkpt lat="46.2169388" lon="8.293295"><ele>1340.5</ele><time>2026-05-01T14:06:41.992Z</time></trkpt><trkpt lat="46.216999" lon="8.2932428"><ele>1342.0</ele><time>2026-05-01T14:06:42.989Z</time></trkpt><trkpt lat="46.2170514" lon="8.293177"><ele>1343.5</ele><time>2026-05-01T14:06:43.99Z</time></trkpt><trkpt lat="46.2170987" lon="8.2931008"><ele>1345.0</ele><time>2026-05-01T14:06:44.987Z</time></trkpt><trkpt lat="46.217147" lon="8.2930193"><ele>1345.0</ele><time>2026-05-01T14:06:45.986Z</time></trkpt><trkpt lat="46.2172022" lon="8.2929418"><ele>1345.0</ele><time>2026-05-01T14:06:46.984Z</time></trkpt><trkpt lat="46.217245" lon="8.2928587"><ele>1345.0</ele><time>2026-05-01T14:06:47.991Z</time></trkpt><trkpt lat="46.2172861" lon="8.292785"><ele>1345.0</ele><time>2026-05-01T14:06:48.991Z</time></trkpt><trkpt lat="46.2173388" lon="8.2927293"><ele>1345.0</ele><time>2026-05-01T14:06:49.984Z</time></trkpt><trkpt lat="46.2174227" lon="8.2926386"><ele>1345.0</ele><time>2026-05-01T14:06:51.984Z</time></trkpt><trkpt lat="46.2175007" lon="8.2925653"><ele>1346.4</ele><time>2026-05-01T14:06:53.985Z</time></trkpt><trkpt lat="46.21758" lon="8.2924889"><ele>1347.8</ele><time>2026-05-01T14:06:55.988Z</time></trkpt><trkpt lat="46.2176637" lon="8.2924202"><ele>1349.1999999999998</ele><time>2026-05-01T14:06:57.981Z</time></trkpt><trkpt lat="46.2177569" lon="8.2923399"><ele>1350.6</ele><time>2026-05-01T14:06:59.991Z</time></trkpt><trkpt lat="46.2178503" lon="8.2922529"><ele>1352.0</ele><time>2026-05-01T14:07:01.993Z</time></trkpt><trkpt lat="46.2179041" lon="8.2922013"><ele>1352.0</ele><time>2026-05-01T14:07:02.988Z</time></trkpt><trkpt lat="46.217958" lon="8.2921528"><ele>1352.0</ele><time>2026-05-01T14:07:03.991Z</time></trkpt><trkpt lat="46.2180165" lon="8.2920946"><ele>1352.0</ele><time>2026-05-01T14:07:04.99Z</time></trkpt><trkpt lat="46.2180727" lon="8.2920396"><ele>1352.0</ele><time>2026-05-01T14:07:05.987Z</time></trkpt><trkpt lat="46.2181256" lon="8.2919831"><ele>1352.0</ele><time>2026-05-01T14:07:06.988Z</time></trkpt><trkpt lat="46.2182191" lon="8.2918857"><ele>1352.0</ele><time>2026-05-01T14:07:08.985Z</time></trkpt><trkpt lat="46.2183066" lon="8.2918057"><ele>1345.0</ele><time>2026-05-01T14:07:10.991Z</time></trkpt><trkpt lat="46.2183966" lon="8.2917308"><ele>1338.0</ele><time>2026-05-01T14:07:12.988Z</time></trkpt><trkpt lat="46.218465" lon="8.2916691"><ele>1331.0</ele><time>2026-05-01T14:07:14.987Z</time></trkpt><trkpt lat="46.2185377" lon="8.2916179"><ele>1324.0</ele><time>2026-05-01T14:07:16.985Z</time></trkpt><trkpt lat="46.218626" lon="8.2916075"><ele>1317.0</ele><time>2026-05-01T14:07:19.99Z</time></trkpt><trkpt lat="46.2187218" lon="8.2916259"><ele>1317.0</ele><time>2026-05-01T14:07:21.984Z</time></trkpt><trkpt lat="46.2187852" lon="8.291632"><ele>1317.0</ele><time>2026-05-01T14:07:22.993Z</time></trkpt><trkpt lat="46.2188484" lon="8.2916459"><ele>1317.0</ele><time>2026-05-01T14:07:23.99Z</time></trkpt><trkpt lat="46.2189095" lon="8.2916733"><ele>1317.0</ele><time>2026-05-01T14:07:24.989Z</time></trkpt><trkpt lat="46.2190262" lon="8.2917176"><ele>1317.0</ele><time>2026-05-01T14:07:26.981Z</time></trkpt><trkpt lat="46.2191481" lon="8.2917568"><ele>1317.0</ele><time>2026-05-01T14:07:28.992Z</time></trkpt><trkpt lat="46.2192135" lon="8.2917748"><ele>1313.8333333333333</ele><time>2026-05-01T14:07:29.983Z</time></trkpt><trkpt lat="46.2192767" lon="8.2918027"><ele>1310.6666666666667</ele><time>2026-05-01T14:07:30.989Z</time></trkpt><trkpt lat="46.2193472" lon="8.291817"><ele>1307.5</ele><time>2026-05-01T14:07:31.991Z</time></trkpt><trkpt lat="46.2194308" lon="8.2918226"><ele>1304.3333333333335</ele><time>2026-05-01T14:07:32.989Z</time></trkpt><trkpt lat="46.2195115" lon="8.291829"><ele>1301.1666666666667</ele><time>2026-05-01T14:07:33.992Z</time></trkpt><trkpt lat="46.2195925" lon="8.2918414"><ele>1298.0</ele><time>2026-05-01T14:07:34.989Z</time></trkpt><trkpt lat="46.2196759" lon="8.2918479"><ele>1298.0</ele><time>2026-05-01T14:07:35.994Z</time></trkpt><trkpt lat="46.2197608" lon="8.2918465"><ele>1298.0</ele><time>2026-05-01T14:07:36.995Z</time></trkpt><trkpt lat="46.2198407" lon="8.2918482"><ele>1298.0</ele><time>2026-05-01T14:07:37.992Z</time></trkpt><trkpt lat="46.2199141" lon="8.2918493"><ele>1298.0</ele><time>2026-05-01T14:07:38.997Z</time></trkpt><trkpt lat="46.2199817" lon="8.2918532"><ele>1298.0</ele><time>2026-05-01T14:07:40.003Z</time></trkpt><trkpt lat="46.2200749" lon="8.2918504"><ele>1298.0</ele><time>2026-05-01T14:07:41.985Z</time></trkpt><trkpt lat="46.2201446" lon="8.2918279"><ele>1298.0</ele><time>2026-05-01T14:07:44.995Z</time></trkpt><trkpt lat="46.2202079" lon="8.2918309"><ele>1298.0</ele><time>2026-05-01T14:07:47.001Z</time></trkpt><trkpt lat="46.2202848" lon="8.2918445"><ele>1298.0</ele><time>2026-05-01T14:07:49.995Z</time></trkpt><trkpt lat="46.2203797" lon="8.2918182"><ele>1298.0</ele><time>2026-05-01T14:07:51.993Z</time></trkpt><trkpt lat="46.2204729" lon="8.2918156"><ele>1298.0</ele><time>2026-05-01T14:07:53.995Z</time></trkpt><trkpt lat="46.2205349" lon="8.2918503"><ele>1298.0</ele><time>2026-05-01T14:07:55.99Z</time></trkpt><trkpt lat="46.22062" lon="8.2918027"><ele>1297.6666666666667</ele><time>2026-05-01T14:07:57.989Z</time></trkpt><trkpt lat="46.2207084" lon="8.2918242"><ele>1297.3333333333335</ele><time>2026-05-01T14:07:59.987Z</time></trkpt><trkpt lat="46.2207781" lon="8.2918646"><ele>1297.0</ele><time>2026-05-01T14:08:01.981Z</time></trkpt><trkpt lat="46.2208977" lon="8.2918623"><ele>1296.6666666666667</ele><time>2026-05-01T14:08:03.984Z</time></trkpt><trkpt lat="46.2209658" lon="8.2918775"><ele>1296.3333333333333</ele><time>2026-05-01T14:08:04.987Z</time></trkpt><trkpt lat="46.2210387" lon="8.2919018"><ele>1296.0</ele><time>2026-05-01T14:08:05.979Z</time></trkpt><trkpt lat="46.2211232" lon="8.2919248"><ele>1296.0</ele><time>2026-05-01T14:08:06.988Z</time></trkpt><trkpt lat="46.221212" lon="8.2919535"><ele>1296.0</ele><time>2026-05-01T14:08:07.979Z</time></trkpt><trkpt lat="46.2212937" lon="8.2919865"><ele>1296.0</ele><time>2026-05-01T14:08:08.98Z</time></trkpt><trkpt lat="46.2213831" lon="8.2920219"><ele>1296.0</ele><time>2026-05-01T14:08:09.978Z</time></trkpt><trkpt lat="46.2214746" lon="8.2920465"><ele>1296.0</ele><time>2026-05-01T14:08:10.986Z</time></trkpt><trkpt lat="46.2215747" lon="8.2920731"><ele>1297.4</ele><time>2026-05-01T14:08:11.978Z</time></trkpt><trkpt lat="46.2216793" lon="8.2920965"><ele>1298.8</ele><time>2026-05-01T14:08:12.984Z</time></trkpt><trkpt lat="46.2217893" lon="8.2921164"><ele>1300.2</ele><time>2026-05-01T14:08:13.994Z</time></trkpt><trkpt lat="46.2219" lon="8.2921143"><ele>1301.6000000000001</ele><time>2026-05-01T14:08:14.985Z</time></trkpt><trkpt lat="46.2220101" lon="8.2921101"><ele>1303.0</ele><time>2026-05-01T14:08:15.986Z</time></trkpt><trkpt lat="46.2221247" lon="8.2921096"><ele>1303.0</ele><time>2026-05-01T14:08:16.992Z</time></trkpt><trkpt lat="46.2222375" lon="8.2921048"><ele>1303.0</ele><time>2026-05-01T14:08:17.991Z</time></trkpt><trkpt lat="46.2223472" lon="8.2921162"><ele>1303.0</ele><time>2026-05-01T14:08:18.981Z</time></trkpt><trkpt lat="46.2224478" lon="8.2921339"><ele>1303.0</ele><time>2026-05-01T14:08:19.988Z</time></trkpt><trkpt lat="46.2225431" lon="8.2921535"><ele>1303.0</ele><time>2026-05-01T14:08:20.981Z</time></trkpt><trkpt lat="46.2226374" lon="8.2921698"><ele>1303.0</ele><time>2026-05-01T14:08:21.982Z</time></trkpt><trkpt lat="46.2227308" lon="8.2921776"><ele>1303.0</ele><time>2026-05-01T14:08:22.989Z</time></trkpt><trkpt lat="46.2228263" lon="8.2921588"><ele>1303.0</ele><time>2026-05-01T14:08:23.991Z</time></trkpt><trkpt lat="46.2229241" lon="8.2921277"><ele>1303.0</ele><time>2026-05-01T14:08:24.995Z</time></trkpt><trkpt lat="46.2230225" lon="8.2921067"><ele>1303.0</ele><time>2026-05-01T14:08:25.984Z</time></trkpt><trkpt lat="46.223128" lon="8.2920882"><ele>1298.75</ele><time>2026-05-01T14:08:26.99Z</time></trkpt><trkpt lat="46.2232452" lon="8.2920744"><ele>1294.5</ele><time>2026-05-01T14:08:27.982Z</time></trkpt><trkpt lat="46.2233618" lon="8.2920614"><ele>1290.25</ele><time>2026-05-01T14:08:28.978Z</time></trkpt><trkpt lat="46.22349" lon="8.2920527"><ele>1286.0</ele><time>2026-05-01T14:08:29.986Z</time></trkpt><trkpt lat="46.2236108" lon="8.292028"><ele>1286.0</ele><time>2026-05-01T14:08:30.98Z</time></trkpt><trkpt lat="46.223721" lon="8.2920151"><ele>1286.0</ele><time>2026-05-01T14:08:31.985Z</time></trkpt><trkpt lat="46.223827" lon="8.2919857"><ele>1286.0</ele><time>2026-05-01T14:08:32.989Z</time></trkpt><trkpt lat="46.2239146" lon="8.2919623"><ele>1286.0</ele><time>2026-05-01T14:08:33.979Z</time></trkpt><trkpt lat="46.2239995" lon="8.2919261"><ele>1286.0</ele><time>2026-05-01T14:08:34.978Z</time></trkpt><trkpt lat="46.2240769" lon="8.2918795"><ele>1281.0</ele><time>2026-05-01T14:08:35.985Z</time></trkpt><trkpt lat="46.2241476" lon="8.2918105"><ele>1276.0</ele><time>2026-05-01T14:08:36.987Z</time></trkpt><trkpt lat="46.2242259" lon="8.2917197"><ele>1271.0</ele><time>2026-05-01T14:08:37.991Z</time></trkpt><trkpt lat="46.2242931" lon="8.2916105"><ele>1266.0</ele><time>2026-05-01T14:08:38.986Z</time></trkpt><trkpt lat="46.2243567" lon="8.2915185"><ele>1261.0</ele><time>2026-05-01T14:08:39.979Z</time></trkpt><trkpt lat="46.2244273" lon="8.2914462"><ele>1260.0</ele><time>2026-05-01T14:08:40.981Z</time></trkpt><trkpt lat="46.2244932" lon="8.2913995"><ele>1259.0</ele><time>2026-05-01T14:08:41.992Z</time></trkpt><trkpt lat="46.224576" lon="8.2913621"><ele>1258.0</ele><time>2026-05-01T14:08:42.982Z</time></trkpt><trkpt lat="46.2246508" lon="8.2913466"><ele>1257.0</ele><time>2026-05-01T14:08:43.982Z</time></trkpt><trkpt lat="46.2247386" lon="8.2913371"><ele>1256.0</ele><time>2026-05-01T14:08:44.983Z</time></trkpt><trkpt lat="46.2248248" lon="8.2913257"><ele>1255.0</ele><time>2026-05-01T14:08:45.982Z</time></trkpt><trkpt lat="46.2249098" lon="8.2913204"><ele>1255.0</ele><time>2026-05-01T14:08:46.974Z</time></trkpt><trkpt lat="46.224994" lon="8.291288"><ele>1255.0</ele><time>2026-05-01T14:08:47.983Z</time></trkpt><trkpt lat="46.2250869" lon="8.2912296"><ele>1255.0</ele><time>2026-05-01T14:08:48.986Z</time></trkpt><trkpt lat="46.2251636" lon="8.29115"><ele>1255.0</ele><time>2026-05-01T14:08:49.982Z</time></trkpt><trkpt lat="46.2252376" lon="8.2910728"><ele>1255.0</ele><time>2026-05-01T14:08:50.989Z</time></trkpt><trkpt lat="46.2253119" lon="8.2909859"><ele>1255.0</ele><time>2026-05-01T14:08:51.989Z</time></trkpt><trkpt lat="46.2253758" lon="8.2908955"><ele>1255.0</ele><time>2026-05-01T14:08:52.99Z</time></trkpt><trkpt lat="46.2254416" lon="8.2908117"><ele>1255.0</ele><time>2026-05-01T14:08:53.983Z</time></trkpt><trkpt lat="46.2255071" lon="8.2907348"><ele>1255.0</ele><time>2026-05-01T14:08:54.979Z</time></trkpt><trkpt lat="46.2255791" lon="8.2906817"><ele>1255.0</ele><time>2026-05-01T14:08:55.981Z</time></trkpt><trkpt lat="46.2256518" lon="8.2906357"><ele>1255.0</ele><time>2026-05-01T14:08:56.982Z</time></trkpt><trkpt lat="46.2257166" lon="8.2905957"><ele>1254.3333333333333</ele><time>2026-05-01T14:08:57.98Z</time></trkpt><trkpt lat="46.2258431" lon="8.2905528"><ele>1253.6666666666665</ele><time>2026-05-01T14:08:59.978Z</time></trkpt><trkpt lat="46.2259083" lon="8.2905399"><ele>1253.0</ele><time>2026-05-01T14:09:00.985Z</time></trkpt><trkpt lat="46.2260132" lon="8.2905542"><ele>1252.3333333333333</ele><time>2026-05-01T14:09:02.973Z</time></trkpt><trkpt lat="46.2260795" lon="8.2905762"><ele>1251.6666666666667</ele><time>2026-05-01T14:09:04.976Z</time></trkpt><trkpt lat="46.2261456" lon="8.2906395"><ele>1251.0</ele><time>2026-05-01T14:09:08.987Z</time></trkpt><trkpt lat="46.2262148" lon="8.2906674"><ele>1245.6</ele><time>2026-05-01T14:09:14Z</time></trkpt><trkpt lat="46.2262901" lon="8.2906362"><ele>1240.1999999999998</ele><time>2026-05-01T14:09:42.987Z</time></trkpt><trkpt lat="46.2263727" lon="8.2906392"><ele>1234.8000000000002</ele><time>2026-05-01T14:09:44.982Z</time></trkpt><trkpt lat="46.2265113" lon="8.290757"><ele>1229.4</ele><time>2026-05-01T14:09:46.982Z</time></trkpt><trkpt lat="46.2266047" lon="8.2908105"><ele>1224.0</ele><time>2026-05-01T14:09:47.979Z</time></trkpt><trkpt lat="46.2267019" lon="8.2908461"><ele>1221.3333333333333</ele><time>2026-05-01T14:09:48.985Z</time></trkpt><trkpt lat="46.2267949" lon="8.2908705"><ele>1218.6666666666667</ele><time>2026-05-01T14:09:49.978Z</time></trkpt><trkpt lat="46.2268746" lon="8.290879"><ele>1216.0</ele><time>2026-05-01T14:09:50.99Z</time></trkpt><trkpt lat="46.2269474" lon="8.2908834"><ele>1213.3333333333335</ele><time>2026-05-01T14:09:51.988Z</time></trkpt><trkpt lat="46.227024" lon="8.2908834"><ele>1210.6666666666667</ele><time>2026-05-01T14:09:53.003Z</time></trkpt><trkpt lat="46.2271001" lon="8.2908962"><ele>1208.0</ele><time>2026-05-01T14:09:53.993Z</time></trkpt><trkpt lat="46.2272155" lon="8.2909298"><ele>1208.0</ele><time>2026-05-01T14:09:55.982Z</time></trkpt><trkpt lat="46.2272792" lon="8.2909485"><ele>1208.0</ele><time>2026-05-01T14:09:56.982Z</time></trkpt><trkpt lat="46.227397" lon="8.2909899"><ele>1208.0</ele><time>2026-05-01T14:09:58.965Z</time></trkpt><trkpt lat="46.2274634" lon="8.2909915"><ele>1208.0</ele><time>2026-05-01T14:09:59.982Z</time></trkpt><trkpt lat="46.2275318" lon="8.2910259"><ele>1208.0</ele><time>2026-05-01T14:10:00.98Z</time></trkpt><trkpt lat="46.2275964" lon="8.2910529"><ele>1208.0</ele><time>2026-05-01T14:10:01.979Z</time></trkpt><trkpt lat="46.2276567" lon="8.2910843"><ele>1207.2</ele><time>2026-05-01T14:10:02.979Z</time></trkpt><trkpt lat="46.2277729" lon="8.2911251"><ele>1206.4</ele><time>2026-05-01T14:10:04.979Z</time></trkpt><trkpt lat="46.2278569" lon="8.2912056"><ele>1205.6000000000001</ele><time>2026-05-01T14:10:06.98Z</time></trkpt><trkpt lat="46.2279308" lon="8.2912575"><ele>1204.8</ele><time>2026-05-01T14:10:09.998Z</time></trkpt><trkpt lat="46.2278775" lon="8.2913741"><ele>1204.0</ele><time>2026-05-01T14:10:12.987Z</time></trkpt><trkpt lat="46.227817" lon="8.2914815"><ele>1201.3333333333333</ele><time>2026-05-01T14:10:14.983Z</time></trkpt><trkpt lat="46.2278067" lon="8.2916"><ele>1198.6666666666665</ele><time>2026-05-01T14:10:16.991Z</time></trkpt><trkpt lat="46.227855" lon="8.2916853"><ele>1196.0</ele><time>2026-05-01T14:10:23.991Z</time></trkpt><trkpt lat="46.2278338" lon="8.2917829"><ele>1193.3333333333333</ele><time>2026-05-01T14:10:26.99Z</time></trkpt><trkpt lat="46.2277758" lon="8.2918383"><ele>1190.6666666666667</ele><time>2026-05-01T14:10:28.989Z</time></trkpt><trkpt lat="46.227707" lon="8.2918555"><ele>1188.0</ele><time>2026-05-01T14:10:32.996Z</time></trkpt><trkpt lat="46.2276166" lon="8.2918453"><ele>1188.0</ele><time>2026-05-01T14:11:12.987Z</time></trkpt><trkpt lat="46.2275232" lon="8.2918414"><ele>1188.0</ele><time>2026-05-01T14:11:14.98Z</time></trkpt><trkpt lat="46.2275928" lon="8.2918529"><ele>1188.0</ele><time>2026-05-01T14:11:16.972Z</time></trkpt><trkpt lat="46.2277072" lon="8.2919148"><ele>1188.0</ele><time>2026-05-01T14:11:17.971Z</time></trkpt><trkpt lat="46.2278065" lon="8.2919652"><ele>1188.0</ele><time>2026-05-01T14:11:18.971Z</time></trkpt><trkpt lat="46.2278866" lon="8.2919971"><ele>1188.0</ele><time>2026-05-01T14:11:20.985Z</time></trkpt><trkpt lat="46.2278028" lon="8.2919372"><ele>1188.0</ele><time>2026-05-01T14:12:04.998Z</time></trkpt><trkpt lat="46.2277416" lon="8.291881"><ele>1188.0</ele><time>2026-05-01T14:12:06.996Z</time></trkpt><trkpt lat="46.2276597" lon="8.2918021"><ele>1188.0</ele><time>2026-05-01T14:12:49.995Z</time></trkpt><trkpt lat="46.2275956" lon="8.2918028"><ele>1188.0</ele><time>2026-05-01T14:12:53.98Z</time></trkpt><trkpt lat="46.227535" lon="8.2917292"><ele>1188.0</ele><time>2026-05-01T14:12:55.972Z</time></trkpt><trkpt lat="46.2274615" lon="8.2916606"><ele>1188.0</ele><time>2026-05-01T14:14:06.993Z</time></trkpt><trkpt lat="46.2273798" lon="8.2917379"><ele>1188.0</ele><time>2026-05-01T14:14:09.981Z</time></trkpt><trkpt lat="46.2273003" lon="8.2917827"><ele>1188.0</ele><time>2026-05-01T14:14:11.987Z</time></trkpt><trkpt lat="46.2272417" lon="8.2918201"><ele>1188.0</ele><time>2026-05-01T14:14:13.992Z</time></trkpt><trkpt lat="46.2272506" lon="8.2919332"><ele>1188.0</ele><time>2026-05-01T14:14:19.983Z</time></trkpt><trkpt lat="46.2272642" lon="8.2920557"><ele>1188.0</ele><time>2026-05-01T14:14:22.999Z</time></trkpt><trkpt lat="46.2272324" lon="8.2921573"><ele>1188.6666666666667</ele><time>2026-05-01T14:14:25.989Z</time></trkpt><trkpt lat="46.2271952" lon="8.2922359"><ele>1189.3333333333333</ele><time>2026-05-01T14:14:27.985Z</time></trkpt><trkpt lat="46.2271413" lon="8.2923371"><ele>1190.0</ele><time>2026-05-01T14:14:29.987Z</time></trkpt><trkpt lat="46.2270704" lon="8.2924131"><ele>1190.6666666666665</ele><time>2026-05-01T14:14:31.988Z</time></trkpt><trkpt lat="46.2270209" lon="8.2924784"><ele>1191.3333333333333</ele><time>2026-05-01T14:14:33.987Z</time></trkpt><trkpt lat="46.2269655" lon="8.2925456"><ele>1192.0</ele><time>2026-05-01T14:14:36.989Z</time></trkpt><trkpt lat="46.2268993" lon="8.2926232"><ele>1188.5</ele><time>2026-05-01T14:14:39.988Z</time></trkpt><trkpt lat="46.2268293" lon="8.29269"><ele>1185.0</ele><time>2026-05-01T14:14:41.988Z</time></trkpt><trkpt lat="46.2267644" lon="8.2927832"><ele>1181.5</ele><time>2026-05-01T14:14:43.988Z</time></trkpt><trkpt lat="46.2267097" lon="8.2928648"><ele>1178.0</ele><time>2026-05-01T14:14:45.988Z</time></trkpt><trkpt lat="46.2266498" lon="8.2929138"><ele>1174.5</ele><time>2026-05-01T14:14:47.986Z</time></trkpt><trkpt lat="46.2265719" lon="8.2929538"><ele>1171.0</ele><time>2026-05-01T14:14:49.999Z</time></trkpt><trkpt lat="46.2264941" lon="8.2930116"><ele>1172.6666666666665</ele><time>2026-05-01T14:14:51.986Z</time></trkpt><trkpt lat="46.2264198" lon="8.2930794"><ele>1174.3333333333333</ele><time>2026-05-01T14:14:53.987Z</time></trkpt><trkpt lat="46.2263623" lon="8.2931933"><ele>1176.0</ele><time>2026-05-01T14:14:55.987Z</time></trkpt><trkpt lat="46.2263248" lon="8.2932993"><ele>1177.6666666666667</ele><time>2026-05-01T14:14:57.987Z</time></trkpt><trkpt lat="46.2262937" lon="8.2933858"><ele>1179.3333333333335</ele><time>2026-05-01T14:15:00.978Z</time></trkpt><trkpt lat="46.226262" lon="8.293466"><ele>1181.0</ele><time>2026-05-01T14:15:02.975Z</time></trkpt><trkpt lat="46.2262229" lon="8.2935654"><ele>1177.3333333333335</ele><time>2026-05-01T14:15:04.984Z</time></trkpt><trkpt lat="46.2261797" lon="8.2936652"><ele>1173.6666666666667</ele><time>2026-05-01T14:15:06.991Z</time></trkpt><trkpt lat="46.2261377" lon="8.2937444"><ele>1170.0</ele><time>2026-05-01T14:15:08.988Z</time></trkpt><trkpt lat="46.2260879" lon="8.2938048"><ele>1166.3333333333333</ele><time>2026-05-01T14:15:10.985Z</time></trkpt><trkpt lat="46.2260309" lon="8.2938822"><ele>1162.6666666666665</ele><time>2026-05-01T14:15:12.978Z</time></trkpt><trkpt lat="46.2259593" lon="8.2939451"><ele>1159.0</ele><time>2026-05-01T14:15:14.982Z</time></trkpt><trkpt lat="46.2258769" lon="8.2939994"><ele>1157.6666666666665</ele><time>2026-05-01T14:15:16.987Z</time></trkpt><trkpt lat="46.2258017" lon="8.2940563"><ele>1156.3333333333333</ele><time>2026-05-01T14:15:18.991Z</time></trkpt><trkpt lat="46.2257416" lon="8.2940841"><ele>1155.0</ele><time>2026-05-01T14:15:20.984Z</time></trkpt><trkpt lat="46.2256729" lon="8.2941181"><ele>1153.6666666666667</ele><time>2026-05-01T14:15:23.988Z</time></trkpt><trkpt lat="46.2255968" lon="8.2941598"><ele>1152.3333333333335</ele><time>2026-05-01T14:15:26.982Z</time></trkpt><trkpt lat="46.2255699" lon="8.2942464"><ele>1151.0</ele><time>2026-05-01T14:15:29.969Z</time></trkpt><trkpt lat="46.2255384" lon="8.2943603"><ele>1151.0</ele><time>2026-05-01T14:15:33.973Z</time></trkpt><trkpt lat="46.2255143" lon="8.2945124"><ele>1151.0</ele><time>2026-05-01T14:15:35.973Z</time></trkpt><trkpt lat="46.225488" lon="8.294636"><ele>1151.0</ele><time>2026-05-01T14:15:37.979Z</time></trkpt><trkpt lat="46.2254771" lon="8.2947554"><ele>1151.0</ele><time>2026-05-01T14:15:39.976Z</time></trkpt><trkpt lat="46.2254537" lon="8.2948573"><ele>1151.0</ele><time>2026-05-01T14:15:42.978Z</time></trkpt><trkpt lat="46.2253975" lon="8.2949522"><ele>1151.0</ele><time>2026-05-01T14:15:46.98Z</time></trkpt><trkpt lat="46.225318" lon="8.2950122"><ele>1145.8</ele><time>2026-05-01T14:15:49.985Z</time></trkpt><trkpt lat="46.2252877" lon="8.2951248"><ele>1140.6</ele><time>2026-05-01T14:15:52.994Z</time></trkpt><trkpt lat="46.2253065" lon="8.2952376"><ele>1135.4</ele><time>2026-05-01T14:15:54.986Z</time></trkpt><trkpt lat="46.2253736" lon="8.2953491"><ele>1130.2</ele><time>2026-05-01T14:15:56.978Z</time></trkpt><trkpt lat="46.2255055" lon="8.29538"><ele>1125.0</ele><time>2026-05-01T14:15:58.98Z</time></trkpt><trkpt lat="46.2255901" lon="8.2953847"><ele>1123.8333333333333</ele><time>2026-05-01T14:15:59.982Z</time></trkpt><trkpt lat="46.2256809" lon="8.2953886"><ele>1122.6666666666667</ele><time>2026-05-01T14:16:00.988Z</time></trkpt><trkpt lat="46.2257731" lon="8.295397"><ele>1121.5</ele><time>2026-05-01T14:16:01.992Z</time></trkpt><trkpt lat="46.2258628" lon="8.2954013"><ele>1120.3333333333335</ele><time>2026-05-01T14:16:02.993Z</time></trkpt><trkpt lat="46.225951" lon="8.2953957"><ele>1119.1666666666667</ele><time>2026-05-01T14:16:03.982Z</time></trkpt><trkpt lat="46.226034" lon="8.2953771"><ele>1118.0</ele><time>2026-05-01T14:16:04.979Z</time></trkpt><trkpt lat="46.2261149" lon="8.2953468"><ele>1118.0</ele><time>2026-05-01T14:16:05.982Z</time></trkpt><trkpt lat="46.2261873" lon="8.2953048"><ele>1118.0</ele><time>2026-05-01T14:16:06.984Z</time></trkpt><trkpt lat="46.2262575" lon="8.2952504"><ele>1118.0</ele><time>2026-05-01T14:16:07.975Z</time></trkpt><trkpt lat="46.226319" lon="8.2951785"><ele>1118.0</ele><time>2026-05-01T14:16:08.977Z</time></trkpt><trkpt lat="46.2263775" lon="8.2951148"><ele>1118.0</ele><time>2026-05-01T14:16:09.977Z</time></trkpt><trkpt lat="46.2264739" lon="8.295061"><ele>1118.0</ele><time>2026-05-01T14:16:11.972Z</time></trkpt><trkpt lat="46.226515" lon="8.2951695"><ele>1117.6666666666667</ele><time>2026-05-01T14:16:13.972Z</time></trkpt><trkpt lat="46.2265768" lon="8.2953001"><ele>1117.3333333333335</ele><time>2026-05-01T14:16:15.98Z</time></trkpt><trkpt lat="46.2266219" lon="8.2953738"><ele>1117.0</ele><time>2026-05-01T14:16:16.984Z</time></trkpt><trkpt lat="46.2266735" lon="8.2954589"><ele>1116.6666666666667</ele><time>2026-05-01T14:16:17.985Z</time></trkpt><trkpt lat="46.2267342" lon="8.2955427"><ele>1116.3333333333333</ele><time>2026-05-01T14:16:18.987Z</time></trkpt><trkpt lat="46.2267985" lon="8.2956209"><ele>1116.0</ele><time>2026-05-01T14:16:19.978Z</time></trkpt><trkpt lat="46.2268539" lon="8.2956945"><ele>1114.0</ele><time>2026-05-01T14:16:20.983Z</time></trkpt><trkpt lat="46.2268953" lon="8.2957824"><ele>1112.0</ele><time>2026-05-01T14:16:21.979Z</time></trkpt><trkpt lat="46.2269145" lon="8.2958875"><ele>1110.0</ele><time>2026-05-01T14:16:22.978Z</time></trkpt><trkpt lat="46.2269218" lon="8.2959993"><ele>1108.0</ele><time>2026-05-01T14:16:23.974Z</time></trkpt><trkpt lat="46.2269227" lon="8.2961191"><ele>1106.0</ele><time>2026-05-01T14:16:24.971Z</time></trkpt><trkpt lat="46.2269235" lon="8.2962307"><ele>1104.0</ele><time>2026-05-01T14:16:25.974Z</time></trkpt><trkpt lat="46.2269494" lon="8.2963434"><ele>1104.0</ele><time>2026-05-01T14:16:27.974Z</time></trkpt><trkpt lat="46.2270066" lon="8.2964073"><ele>1104.0</ele><time>2026-05-01T14:16:29.974Z</time></trkpt><trkpt lat="46.2271056" lon="8.29648"><ele>1104.0</ele><time>2026-05-01T14:16:31.973Z</time></trkpt><trkpt lat="46.2272247" lon="8.2965454"><ele>1104.0</ele><time>2026-05-01T14:16:33.973Z</time></trkpt><trkpt lat="46.2272996" lon="8.2965641"><ele>1104.0</ele><time>2026-05-01T14:16:34.981Z</time></trkpt><trkpt lat="46.2273762" lon="8.2965747"><ele>1103.1666666666667</ele><time>2026-05-01T14:16:35.982Z</time></trkpt><trkpt lat="46.2274538" lon="8.2965752"><ele>1102.3333333333333</ele><time>2026-05-01T14:16:36.984Z</time></trkpt><trkpt lat="46.2275279" lon="8.2965809"><ele>1101.5</ele><time>2026-05-01T14:16:37.986Z</time></trkpt><trkpt lat="46.2276031" lon="8.2965876"><ele>1100.6666666666665</ele><time>2026-05-01T14:16:38.995Z</time></trkpt><trkpt lat="46.2276806" lon="8.2966053"><ele>1099.8333333333333</ele><time>2026-05-01T14:16:39.985Z</time></trkpt><trkpt lat="46.2277632" lon="8.2966302"><ele>1099.0</ele><time>2026-05-01T14:16:40.986Z</time></trkpt><trkpt lat="46.227851" lon="8.2966451"><ele>1099.0</ele><time>2026-05-01T14:16:41.995Z</time></trkpt><trkpt lat="46.2279462" lon="8.2966543"><ele>1099.0</ele><time>2026-05-01T14:16:42.988Z</time></trkpt><trkpt lat="46.2280335" lon="8.2966508"><ele>1099.0</ele><time>2026-05-01T14:16:43.99Z</time></trkpt><trkpt lat="46.2281151" lon="8.2966379"><ele>1099.0</ele><time>2026-05-01T14:16:44.982Z</time></trkpt><trkpt lat="46.2281921" lon="8.2966437"><ele>1099.0</ele><time>2026-05-01T14:16:45.977Z</time></trkpt><trkpt lat="46.228262" lon="8.2966796"><ele>1099.0</ele><time>2026-05-01T14:16:46.979Z</time></trkpt><trkpt lat="46.2283183" lon="8.2967512"><ele>1097.8333333333333</ele><time>2026-05-01T14:16:47.988Z</time></trkpt><trkpt lat="46.2283506" lon="8.2968504"><ele>1096.6666666666665</ele><time>2026-05-01T14:16:48.986Z</time></trkpt><trkpt lat="46.2283683" lon="8.2969547"><ele>1095.5</ele><time>2026-05-01T14:16:49.981Z</time></trkpt><trkpt lat="46.2283726" lon="8.297061"><ele>1094.3333333333333</ele><time>2026-05-01T14:16:50.977Z</time></trkpt><trkpt lat="46.2283648" lon="8.2971647"><ele>1093.1666666666667</ele><time>2026-05-01T14:16:51.987Z</time></trkpt><trkpt lat="46.2283515" lon="8.2972778"><ele>1092.0</ele><time>2026-05-01T14:16:52.985Z</time></trkpt><trkpt lat="46.2283278" lon="8.2973918"><ele>1090.5</ele><time>2026-05-01T14:16:53.977Z</time></trkpt><trkpt lat="46.2283009" lon="8.2975016"><ele>1089.0</ele><time>2026-05-01T14:16:54.979Z</time></trkpt><trkpt lat="46.2282695" lon="8.2976119"><ele>1087.5</ele><time>2026-05-01T14:16:55.98Z</time></trkpt><trkpt lat="46.2282251" lon="8.2977188"><ele>1086.0</ele><time>2026-05-01T14:16:56.981Z</time></trkpt><trkpt lat="46.2281676" lon="8.297818"><ele>1084.5</ele><time>2026-05-01T14:16:57.993Z</time></trkpt><trkpt lat="46.2280986" lon="8.2979114"><ele>1083.0</ele><time>2026-05-01T14:16:58.987Z</time></trkpt><trkpt lat="46.2280221" lon="8.2980015"><ele>1080.6666666666667</ele><time>2026-05-01T14:16:59.991Z</time></trkpt><trkpt lat="46.2279438" lon="8.2980893"><ele>1078.3333333333333</ele><time>2026-05-01T14:17:00.992Z</time></trkpt><trkpt lat="46.2278691" lon="8.2981672"><ele>1076.0</ele><time>2026-05-01T14:17:01.979Z</time></trkpt><trkpt lat="46.2278023" lon="8.298244"><ele>1073.6666666666665</ele><time>2026-05-01T14:17:02.99Z</time></trkpt><trkpt lat="46.227742" lon="8.2983324"><ele>1071.3333333333333</ele><time>2026-05-01T14:17:03.991Z</time></trkpt><trkpt lat="46.2276928" lon="8.2984248"><ele>1069.0</ele><time>2026-05-01T14:17:04.98Z</time></trkpt><trkpt lat="46.2276527" lon="8.2985176"><ele>1069.0</ele><time>2026-05-01T14:17:05.984Z</time></trkpt><trkpt lat="46.227675" lon="8.298666"><ele>1069.0</ele><time>2026-05-01T14:17:07.983Z</time></trkpt><trkpt lat="46.2277438" lon="8.2987071"><ele>1069.0</ele><time>2026-05-01T14:17:08.984Z</time></trkpt><trkpt lat="46.2278155" lon="8.2987389"><ele>1069.0</ele><time>2026-05-01T14:17:09.979Z</time></trkpt><trkpt lat="46.2278834" lon="8.2987703"><ele>1069.0</ele><time>2026-05-01T14:17:10.983Z</time></trkpt><trkpt lat="46.2279468" lon="8.2988138"><ele>1069.0</ele><time>2026-05-01T14:17:11.983Z</time></trkpt><trkpt lat="46.2280147" lon="8.2988678"><ele>1067.6666666666665</ele><time>2026-05-01T14:17:12.98Z</time></trkpt><trkpt lat="46.2280943" lon="8.2989242"><ele>1066.3333333333333</ele><time>2026-05-01T14:17:13.987Z</time></trkpt><trkpt lat="46.2281837" lon="8.2989726"><ele>1065.0</ele><time>2026-05-01T14:17:14.987Z</time></trkpt><trkpt lat="46.228275" lon="8.2990125"><ele>1063.6666666666667</ele><time>2026-05-01T14:17:15.988Z</time></trkpt><trkpt lat="46.2283488" lon="8.299041"><ele>1062.3333333333335</ele><time>2026-05-01T14:17:16.985Z</time></trkpt><trkpt lat="46.2284124" lon="8.2990962"><ele>1061.0</ele><time>2026-05-01T14:17:18.996Z</time></trkpt><trkpt lat="46.2283689" lon="8.2991651"><ele>1060.6</ele><time>2026-05-01T14:17:20.98Z</time></trkpt><trkpt lat="46.2282903" lon="8.2992355"><ele>1060.1999999999998</ele><time>2026-05-01T14:17:22.991Z</time></trkpt><trkpt lat="46.2282455" lon="8.2993138"><ele>1059.8000000000002</ele><time>2026-05-01T14:17:24.983Z</time></trkpt><trkpt lat="46.2282881" lon="8.29941"><ele>1059.4</ele><time>2026-05-01T14:17:27.986Z</time></trkpt><trkpt lat="46.2283569" lon="8.2995399"><ele>1059.0</ele><time>2026-05-01T14:17:29.993Z</time></trkpt><trkpt lat="46.2284521" lon="8.2996351"><ele>1059.0</ele><time>2026-05-01T14:17:31.99Z</time></trkpt><trkpt lat="46.228567" lon="8.2996455"><ele>1059.0</ele><time>2026-05-01T14:17:33.982Z</time></trkpt><trkpt lat="46.2286791" lon="8.2996494"><ele>1059.0</ele><time>2026-05-01T14:17:35.997Z</time></trkpt><trkpt lat="46.2287569" lon="8.2996981"><ele>1059.0</ele><time>2026-05-01T14:17:37.986Z</time></trkpt><trkpt lat="46.2288137" lon="8.2997716"><ele>1059.0</ele><time>2026-05-01T14:17:40.991Z</time></trkpt><trkpt lat="46.2287979" lon="8.2998707"><ele>1056.2</ele><time>2026-05-01T14:17:45.981Z</time></trkpt><trkpt lat="46.2287418" lon="8.2999423"><ele>1053.4</ele><time>2026-05-01T14:17:47.987Z</time></trkpt><trkpt lat="46.2286169" lon="8.3000043"><ele>1050.6</ele><time>2026-05-01T14:17:49.988Z</time></trkpt><trkpt lat="46.2285279" lon="8.3000316"><ele>1047.8</ele><time>2026-05-01T14:17:50.99Z</time></trkpt><trkpt lat="46.2284263" lon="8.3000566"><ele>1045.0</ele><time>2026-05-01T14:17:51.996Z</time></trkpt><trkpt lat="46.2283237" lon="8.3000819"><ele>1045.0</ele><time>2026-05-01T14:17:52.991Z</time></trkpt><trkpt lat="46.2282179" lon="8.3001003"><ele>1045.0</ele><time>2026-05-01T14:17:53.998Z</time></trkpt><trkpt lat="46.2281026" lon="8.3001173"><ele>1045.0</ele><time>2026-05-01T14:17:54.982Z</time></trkpt><trkpt lat="46.2279866" lon="8.3001379"><ele>1045.0</ele><time>2026-05-01T14:17:55.983Z</time></trkpt><trkpt lat="46.227869" lon="8.3001634"><ele>1045.0</ele><time>2026-05-01T14:17:56.985Z</time></trkpt><trkpt lat="46.2277562" lon="8.3001931"><ele>1045.0</ele><time>2026-05-01T14:17:57.983Z</time></trkpt><trkpt lat="46.2276531" lon="8.3002228"><ele>1045.0</ele><time>2026-05-01T14:17:58.985Z</time></trkpt><trkpt lat="46.2275645" lon="8.3002594"><ele>1045.0</ele><time>2026-05-01T14:17:59.972Z</time></trkpt><trkpt lat="46.2274874" lon="8.3003146"><ele>1045.0</ele><time>2026-05-01T14:18:00.973Z</time></trkpt><trkpt lat="46.2274378" lon="8.3003919"><ele>1045.0</ele><time>2026-05-01T14:18:01.969Z</time></trkpt><trkpt lat="46.2274173" lon="8.3004871"><ele>1045.0</ele><time>2026-05-01T14:18:02.977Z</time></trkpt><trkpt lat="46.227433" lon="8.3005889"><ele>1045.0</ele><time>2026-05-01T14:18:03.974Z</time></trkpt><trkpt lat="46.2274771" lon="8.3006884"><ele>1045.0</ele><time>2026-05-01T14:18:04.979Z</time></trkpt><trkpt lat="46.2275419" lon="8.3007836"><ele>1045.0</ele><time>2026-05-01T14:18:05.985Z</time></trkpt><trkpt lat="46.2276111" lon="8.3008824"><ele>1045.0</ele><time>2026-05-01T14:18:06.987Z</time></trkpt><trkpt lat="46.2276786" lon="8.3009755"><ele>1042.0</ele><time>2026-05-01T14:18:07.979Z</time></trkpt><trkpt lat="46.2277438" lon="8.3010522"><ele>1039.0</ele><time>2026-05-01T14:18:08.979Z</time></trkpt><trkpt lat="46.2278085" lon="8.301108"><ele>1036.0</ele><time>2026-05-01T14:18:09.978Z</time></trkpt><trkpt lat="46.227871" lon="8.3011605"><ele>1033.0</ele><time>2026-05-01T14:18:10.981Z</time></trkpt><trkpt lat="46.227964" lon="8.3012327"><ele>1030.0</ele><time>2026-05-01T14:18:12.979Z</time></trkpt><trkpt lat="46.2280289" lon="8.3012521"><ele>1027.0</ele><time>2026-05-01T14:18:14.982Z</time></trkpt><trkpt lat="46.2280219" lon="8.3013456"><ele>1024.0</ele><time>2026-05-01T14:18:21.987Z</time></trkpt><trkpt lat="46.2279394" lon="8.3014335"><ele>1021.0</ele><time>2026-05-01T14:18:24.982Z</time></trkpt><trkpt lat="46.2278459" lon="8.3014955"><ele>1018.0</ele><time>2026-05-01T14:18:26.978Z</time></trkpt><trkpt lat="46.2277592" lon="8.3015013"><ele>1015.0</ele><time>2026-05-01T14:18:28.987Z</time></trkpt><trkpt lat="46.2276697" lon="8.3015213"><ele>1012.0</ele><time>2026-05-01T14:18:30.985Z</time></trkpt><trkpt lat="46.2275837" lon="8.301573"><ele>1011.9999999999999</ele><time>2026-05-01T14:18:32.983Z</time></trkpt><trkpt lat="46.2275228" lon="8.3016328"><ele>1012.0</ele><time>2026-05-01T14:18:34.987Z</time></trkpt><trkpt lat="46.2275245" lon="8.3017476"><ele>1012.0</ele><time>2026-05-01T14:18:39.995Z</time></trkpt><trkpt lat="46.2275921" lon="8.3018033"><ele>1012.0</ele><time>2026-05-01T14:18:43.986Z</time></trkpt><trkpt lat="46.2276564" lon="8.3018863"><ele>1011.9999999999999</ele><time>2026-05-01T14:18:46.979Z</time></trkpt><trkpt lat="46.2276946" lon="8.3019693"><ele>1012.0</ele><time>2026-05-01T14:18:48.993Z</time></trkpt><trkpt lat="46.2277197" lon="8.3020657"><ele>1012.0000000000001</ele><time>2026-05-01T14:18:50.987Z</time></trkpt><trkpt lat="46.2277331" lon="8.3021585"><ele>1012.0</ele><time>2026-05-01T14:18:53.982Z</time></trkpt><trkpt lat="46.2276942" lon="8.3022376"><ele>1012.0000000000001</ele><time>2026-05-01T14:18:59.987Z</time></trkpt><trkpt lat="46.2276328" lon="8.3023072"><ele>1012.0000000000001</ele><time>2026-05-01T14:19:02.976Z</time></trkpt><trkpt lat="46.2276264" lon="8.3024065"><ele>1012.0</ele><time>2026-05-01T14:19:07.986Z</time></trkpt><trkpt lat="46.2276391" lon="8.3025132"><ele>1012.0000000000001</ele><time>2026-05-01T14:19:10.981Z</time></trkpt><trkpt lat="46.2276138" lon="8.3026102"><ele>1012.0000000000001</ele><time>2026-05-01T14:19:13.995Z</time></trkpt><trkpt lat="46.2275842" lon="8.3027067"><ele>1008.3333333333333</ele><time>2026-05-01T14:19:16.993Z</time></trkpt><trkpt lat="46.2275206" lon="8.3027615"><ele>1004.6666666666666</ele><time>2026-05-01T14:19:29.983Z</time></trkpt><trkpt lat="46.227454" lon="8.3027941"><ele>1001.0</ele><time>2026-05-01T14:19:31.976Z</time></trkpt><trkpt lat="46.2273955" lon="8.302836"><ele>997.3333333333333</ele><time>2026-05-01T14:19:33.975Z</time></trkpt><trkpt lat="46.2273238" lon="8.3028531"><ele>993.6666666666666</ele><time>2026-05-01T14:19:35.974Z</time></trkpt><trkpt lat="46.2272154" lon="8.3028684"><ele>990.0</ele><time>2026-05-01T14:19:37.973Z</time></trkpt><trkpt lat="46.2271122" lon="8.3028499"><ele>988.6</ele><time>2026-05-01T14:19:39.973Z</time></trkpt><trkpt lat="46.2270484" lon="8.3028577"><ele>987.2</ele><time>2026-05-01T14:19:40.972Z</time></trkpt><trkpt lat="46.2269497" lon="8.3028777"><ele>985.8</ele><time>2026-05-01T14:19:42.975Z</time></trkpt><trkpt lat="46.2268334" lon="8.3028991"><ele>984.4</ele><time>2026-05-01T14:19:44.985Z</time></trkpt><trkpt lat="46.2267659" lon="8.302982"><ele>983.0</ele><time>2026-05-01T14:19:46.98Z</time></trkpt><trkpt lat="46.2268005" lon="8.3031512"><ele>978.2</ele><time>2026-05-01T14:19:48.976Z</time></trkpt><trkpt lat="46.2268664" lon="8.3032952"><ele>973.4</ele><time>2026-05-01T14:19:50.971Z</time></trkpt><trkpt lat="46.2269134" lon="8.303373"><ele>968.6000000000001</ele><time>2026-05-01T14:19:51.973Z</time></trkpt><trkpt lat="46.2269698" lon="8.303469"><ele>963.8000000000001</ele><time>2026-05-01T14:19:52.97Z</time></trkpt><trkpt lat="46.22704" lon="8.3035756"><ele>959.0</ele><time>2026-05-01T14:19:53.969Z</time></trkpt><trkpt lat="46.2271106" lon="8.3036899"><ele>959.0</ele><time>2026-05-01T14:19:54.964Z</time></trkpt><trkpt lat="46.2271828" lon="8.3038029"><ele>959.0</ele><time>2026-05-01T14:19:55.967Z</time></trkpt><trkpt lat="46.2272607" lon="8.3039264"><ele>959.0</ele><time>2026-05-01T14:19:56.978Z</time></trkpt><trkpt lat="46.2273429" lon="8.3040536"><ele>959.0</ele><time>2026-05-01T14:19:57.968Z</time></trkpt><trkpt lat="46.2274258" lon="8.3041875"><ele>956.25</ele><time>2026-05-01T14:19:58.976Z</time></trkpt><trkpt lat="46.2275089" lon="8.3043322"><ele>953.5</ele><time>2026-05-01T14:19:59.983Z</time></trkpt><trkpt lat="46.227595" lon="8.3044833"><ele>950.75</ele><time>2026-05-01T14:20:00.986Z</time></trkpt><trkpt lat="46.2276827" lon="8.3046404"><ele>948.0</ele><time>2026-05-01T14:20:01.988Z</time></trkpt><trkpt lat="46.2277684" lon="8.3048049"><ele>944.0</ele><time>2026-05-01T14:20:02.99Z</time></trkpt><trkpt lat="46.227853" lon="8.304972"><ele>940.0</ele><time>2026-05-01T14:20:03.977Z</time></trkpt><trkpt lat="46.2279408" lon="8.3051355"><ele>936.0</ele><time>2026-05-01T14:20:04.982Z</time></trkpt><trkpt lat="46.2280356" lon="8.3052888"><ele>932.0</ele><time>2026-05-01T14:20:05.986Z</time></trkpt><trkpt lat="46.2281275" lon="8.3054355"><ele>933.0</ele><time>2026-05-01T14:20:06.984Z</time></trkpt><trkpt lat="46.2282225" lon="8.3055721"><ele>934.0</ele><time>2026-05-01T14:20:07.978Z</time></trkpt><trkpt lat="46.228321" lon="8.3056846"><ele>935.0</ele><time>2026-05-01T14:20:08.977Z</time></trkpt><trkpt lat="46.2284244" lon="8.305779"><ele>936.0</ele><time>2026-05-01T14:20:09.982Z</time></trkpt><trkpt lat="46.2285153" lon="8.3058575"><ele>933.8333333333334</ele><time>2026-05-01T14:20:10.986Z</time></trkpt><trkpt lat="46.2285924" lon="8.3059174"><ele>931.6666666666667</ele><time>2026-05-01T14:20:11.979Z</time></trkpt><trkpt lat="46.2286712" lon="8.3059471"><ele>929.5</ele><time>2026-05-01T14:20:12.982Z</time></trkpt><trkpt lat="46.2287468" lon="8.3059131"><ele>927.3333333333334</ele><time>2026-05-01T14:20:13.984Z</time></trkpt><trkpt lat="46.2288191" lon="8.3058338"><ele>925.1666666666667</ele><time>2026-05-01T14:20:14.979Z</time></trkpt><trkpt lat="46.228893" lon="8.3057393"><ele>923.0</ele><time>2026-05-01T14:20:15.983Z</time></trkpt><trkpt lat="46.2289725" lon="8.3056502"><ele>924.2</ele><time>2026-05-01T14:20:16.98Z</time></trkpt><trkpt lat="46.2290619" lon="8.3055785"><ele>925.4</ele><time>2026-05-01T14:20:17.979Z</time></trkpt><trkpt lat="46.2291506" lon="8.3055368"><ele>926.6000000000001</ele><time>2026-05-01T14:20:18.99Z</time></trkpt><trkpt lat="46.229238" lon="8.3055436"><ele>927.8000000000001</ele><time>2026-05-01T14:20:19.989Z</time></trkpt><trkpt lat="46.2293148" lon="8.3056007"><ele>929.0</ele><time>2026-05-01T14:20:20.987Z</time></trkpt><trkpt lat="46.2293894" lon="8.3057017"><ele>926.4000000000001</ele><time>2026-05-01T14:20:21.986Z</time></trkpt><trkpt lat="46.2294607" lon="8.305826"><ele>923.8000000000001</ele><time>2026-05-01T14:20:22.988Z</time></trkpt><trkpt lat="46.2295374" lon="8.3059373"><ele>921.1999999999999</ele><time>2026-05-01T14:20:23.988Z</time></trkpt><trkpt lat="46.2296216" lon="8.3060157"><ele>918.5999999999999</ele><time>2026-05-01T14:20:24.984Z</time></trkpt><trkpt lat="46.2296993" lon="8.3060676"><ele>916.0</ele><time>2026-05-01T14:20:25.99Z</time></trkpt><trkpt lat="46.2297611" lon="8.3061108"><ele>915.9999999999999</ele><time>2026-05-01T14:20:26.994Z</time></trkpt><trkpt lat="46.2298114" lon="8.3062228"><ele>916.0</ele><time>2026-05-01T14:20:28.983Z</time></trkpt><trkpt lat="46.2297287" lon="8.3063257"><ele>916.0</ele><time>2026-05-01T14:20:30.988Z</time></trkpt><trkpt lat="46.2296564" lon="8.3063629"><ele>916.0</ele><time>2026-05-01T14:20:31.979Z</time></trkpt><trkpt lat="46.2295813" lon="8.3063992"><ele>915.9999999999999</ele><time>2026-05-01T14:20:32.987Z</time></trkpt><trkpt lat="46.2295077" lon="8.3064335"><ele>916.0</ele><time>2026-05-01T14:20:33.983Z</time></trkpt><trkpt lat="46.2294284" lon="8.3064623"><ele>914.8333333333333</ele><time>2026-05-01T14:20:34.98Z</time></trkpt><trkpt lat="46.2293472" lon="8.3064875"><ele>913.6666666666666</ele><time>2026-05-01T14:20:35.983Z</time></trkpt><trkpt lat="46.2292653" lon="8.3065137"><ele>912.5</ele><time>2026-05-01T14:20:36.987Z</time></trkpt><trkpt lat="46.2291799" lon="8.3065393"><ele>911.3333333333333</ele><time>2026-05-01T14:20:37.982Z</time></trkpt><trkpt lat="46.2290934" lon="8.3065804"><ele>910.1666666666666</ele><time>2026-05-01T14:20:38.987Z</time></trkpt><trkpt lat="46.2290171" lon="8.306633"><ele>909.0</ele><time>2026-05-01T14:20:39.983Z</time></trkpt><trkpt lat="46.2289602" lon="8.3067071"><ele>909.0</ele><time>2026-05-01T14:20:40.988Z</time></trkpt><trkpt lat="46.2289423" lon="8.3068062"><ele>909.0</ele><time>2026-05-01T14:20:41.992Z</time></trkpt><trkpt lat="46.22898" lon="8.3068963"><ele>909.0</ele><time>2026-05-01T14:20:42.983Z</time></trkpt><trkpt lat="46.2290468" lon="8.3069696"><ele>909.0</ele><time>2026-05-01T14:20:43.99Z</time></trkpt><trkpt lat="46.2291215" lon="8.3070313"><ele>909.0</ele><time>2026-05-01T14:20:44.984Z</time></trkpt><trkpt lat="46.2291972" lon="8.3070936"><ele>909.0</ele><time>2026-05-01T14:20:45.986Z</time></trkpt><trkpt lat="46.2292781" lon="8.3071555"><ele>908.1666666666666</ele><time>2026-05-01T14:20:46.99Z</time></trkpt><trkpt lat="46.2293662" lon="8.3071977"><ele>907.3333333333333</ele><time>2026-05-01T14:20:47.987Z</time></trkpt><trkpt lat="46.2294595" lon="8.3072091"><ele>906.5</ele><time>2026-05-01T14:20:48.989Z</time></trkpt><trkpt lat="46.2295527" lon="8.3072084"><ele>905.6666666666666</ele><time>2026-05-01T14:20:49.987Z</time></trkpt><trkpt lat="46.2296409" lon="8.307218"><ele>904.8333333333333</ele><time>2026-05-01T14:20:50.977Z</time></trkpt><trkpt lat="46.2297195" lon="8.3072429"><ele>904.0</ele><time>2026-05-01T14:20:51.99Z</time></trkpt><trkpt lat="46.2297909" lon="8.3072726"><ele>902.2</ele><time>2026-05-01T14:20:52.986Z</time></trkpt><trkpt lat="46.229888" lon="8.3073505"><ele>900.4000000000001</ele><time>2026-05-01T14:20:54.985Z</time></trkpt><trkpt lat="46.2299105" lon="8.3074949"><ele>898.6</ele><time>2026-05-01T14:20:56.983Z</time></trkpt><trkpt lat="46.2298723" lon="8.3076421"><ele>896.8</ele><time>2026-05-01T14:20:58.993Z</time></trkpt><trkpt lat="46.2298326" lon="8.3077339"><ele>895.0</ele><time>2026-05-01T14:21:00.986Z</time></trkpt><trkpt lat="46.2298039" lon="8.3078205"><ele>894.9999999999999</ele><time>2026-05-01T14:21:05.99Z</time></trkpt><trkpt lat="46.2298844" lon="8.3078893"><ele>895.0</ele><time>2026-05-01T14:21:08.986Z</time></trkpt><trkpt lat="46.2299701" lon="8.3079412"><ele>895.0</ele><time>2026-05-01T14:21:10.983Z</time></trkpt><trkpt lat="46.2300833" lon="8.3080079"><ele>895.0</ele><time>2026-05-01T14:21:12.984Z</time></trkpt><trkpt lat="46.230145" lon="8.3080405"><ele>894.9999999999999</ele><time>2026-05-01T14:21:13.992Z</time></trkpt><trkpt lat="46.2302089" lon="8.308062"><ele>895.0</ele><time>2026-05-01T14:21:14.991Z</time></trkpt><trkpt lat="46.2302807" lon="8.3080765"><ele>895.0</ele><time>2026-05-01T14:21:15.99Z</time></trkpt><trkpt lat="46.2303489" lon="8.3080748"><ele>895.0</ele><time>2026-05-01T14:21:16.987Z</time></trkpt><trkpt lat="46.2304205" lon="8.3080723"><ele>895.0</ele><time>2026-05-01T14:21:17.993Z</time></trkpt><trkpt lat="46.2304958" lon="8.3080728"><ele>895.0</ele><time>2026-05-01T14:21:18.986Z</time></trkpt><trkpt lat="46.230569" lon="8.308072"><ele>895.0</ele><time>2026-05-01T14:21:19.983Z</time></trkpt><trkpt lat="46.230642" lon="8.3080607"><ele>895.0</ele><time>2026-05-01T14:21:20.989Z</time></trkpt><trkpt lat="46.2307157" lon="8.3080384"><ele>895.0</ele><time>2026-05-01T14:21:21.985Z</time></trkpt><trkpt lat="46.2307842" lon="8.3080048"><ele>895.0</ele><time>2026-05-01T14:21:22.994Z</time></trkpt><trkpt lat="46.2308492" lon="8.3079784"><ele>895.0</ele><time>2026-05-01T14:21:23.984Z</time></trkpt><trkpt lat="46.230912" lon="8.3079483"><ele>895.0</ele><time>2026-05-01T14:21:24.987Z</time></trkpt><trkpt lat="46.2309751" lon="8.3079116"><ele>895.0</ele><time>2026-05-01T14:21:25.996Z</time></trkpt><trkpt lat="46.2310337" lon="8.3078707"><ele>895.0</ele><time>2026-05-01T14:21:26.989Z</time></trkpt><trkpt lat="46.2310883" lon="8.3078219"><ele>895.0</ele><time>2026-05-01T14:21:27.994Z</time></trkpt><trkpt lat="46.2311421" lon="8.3077712"><ele>895.0</ele><time>2026-05-01T14:21:28.987Z</time></trkpt><trkpt lat="46.2311947" lon="8.3077156"><ele>895.0</ele><time>2026-05-01T14:21:29.994Z</time></trkpt><trkpt lat="46.2312455" lon="8.3076569"><ele>895.0</ele><time>2026-05-01T14:21:31.003Z</time></trkpt><trkpt lat="46.2313443" lon="8.307546"><ele>895.0</ele><time>2026-05-01T14:21:32.997Z</time></trkpt><trkpt lat="46.2313977" lon="8.307497"><ele>895.0</ele><time>2026-05-01T14:21:33.992Z</time></trkpt><trkpt lat="46.2315079" lon="8.307414"><ele>895.0</ele><time>2026-05-01T14:21:35.996Z</time></trkpt><trkpt lat="46.2316186" lon="8.3073493"><ele>891.25</ele><time>2026-05-01T14:21:37.996Z</time></trkpt><trkpt lat="46.2317297" lon="8.3073158"><ele>887.5</ele><time>2026-05-01T14:21:39.993Z</time></trkpt><trkpt lat="46.2318475" lon="8.3073013"><ele>883.75</ele><time>2026-05-01T14:21:42.003Z</time></trkpt><trkpt lat="46.2319666" lon="8.3072991"><ele>880.0</ele><time>2026-05-01T14:21:44.005Z</time></trkpt><trkpt lat="46.232085" lon="8.3072996"><ele>880.0</ele><time>2026-05-01T14:21:46.005Z</time></trkpt><trkpt lat="46.232196" lon="8.30729"><ele>880.0</ele><time>2026-05-01T14:21:48.003Z</time></trkpt><trkpt lat="46.2323059" lon="8.3072849"><ele>880.0</ele><time>2026-05-01T14:21:50.007Z</time></trkpt><trkpt lat="46.2324219" lon="8.3072735"><ele>880.0</ele><time>2026-05-01T14:21:52.003Z</time></trkpt><trkpt lat="46.2325344" lon="8.3072626"><ele>879.0</ele><time>2026-05-01T14:21:54Z</time></trkpt><trkpt lat="46.2326429" lon="8.3072453"><ele>878.0</ele><time>2026-05-01T14:21:55.998Z</time></trkpt><trkpt lat="46.23274" lon="8.3071752"><ele>877.0</ele><time>2026-05-01T14:21:57.999Z</time></trkpt><trkpt lat="46.2328307" lon="8.3070683"><ele>876.0</ele><time>2026-05-01T14:21:59.997Z</time></trkpt><trkpt lat="46.2328765" lon="8.3070002"><ele>875.0</ele><time>2026-05-01T14:22:01Z</time></trkpt><trkpt lat="46.2329203" lon="8.3069274"><ele>875.2857142857143</ele><time>2026-05-01T14:22:01.994Z</time></trkpt><trkpt lat="46.2329644" lon="8.3068502"><ele>875.5714285714286</ele><time>2026-05-01T14:22:02.996Z</time></trkpt><trkpt lat="46.2330154" lon="8.3067666"><ele>875.8571428571429</ele><time>2026-05-01T14:22:03.991Z</time></trkpt><trkpt lat="46.2330677" lon="8.3066923"><ele>876.1428571428571</ele><time>2026-05-01T14:22:04.999Z</time></trkpt><trkpt lat="46.2331162" lon="8.3066123"><ele>876.4285714285714</ele><time>2026-05-01T14:22:05.996Z</time></trkpt><trkpt lat="46.2331594" lon="8.3065339"><ele>876.7142857142858</ele><time>2026-05-01T14:22:07.002Z</time></trkpt><trkpt lat="46.2332" lon="8.3064553"><ele>877.0</ele><time>2026-05-01T14:22:07.993Z</time></trkpt><trkpt lat="46.2332456" lon="8.3063762"><ele>878.9999999999999</ele><time>2026-05-01T14:22:08.999Z</time></trkpt><trkpt lat="46.2332929" lon="8.3063007"><ele>881.0</ele><time>2026-05-01T14:22:09.995Z</time></trkpt><trkpt lat="46.2333419" lon="8.3062169"><ele>883.0</ele><time>2026-05-01T14:22:11.003Z</time></trkpt><trkpt lat="46.2333937" lon="8.3061349"><ele>885.0</ele><time>2026-05-01T14:22:11.999Z</time></trkpt><trkpt lat="46.2334512" lon="8.3060596"><ele>886.9999999999999</ele><time>2026-05-01T14:22:13.002Z</time></trkpt><trkpt lat="46.2335119" lon="8.3059816"><ele>889.0</ele><time>2026-05-01T14:22:14.003Z</time></trkpt><trkpt lat="46.2335718" lon="8.3058976"><ele>888.9999999999999</ele><time>2026-05-01T14:22:14.999Z</time></trkpt><trkpt lat="46.2336264" lon="8.3058111"><ele>889.0</ele><time>2026-05-01T14:22:16.001Z</time></trkpt><trkpt lat="46.233681" lon="8.3057354"><ele>889.0</ele><time>2026-05-01T14:22:17.007Z</time></trkpt><trkpt lat="46.2337334" lon="8.3056588"><ele>889.0</ele><time>2026-05-01T14:22:18.001Z</time></trkpt><trkpt lat="46.2337826" lon="8.3055797"><ele>888.9999999999999</ele><time>2026-05-01T14:22:19.007Z</time></trkpt><trkpt lat="46.2338319" lon="8.3054918"><ele>889.0</ele><time>2026-05-01T14:22:20Z</time></trkpt><trkpt lat="46.2338785" lon="8.3053986"><ele>886.3333333333333</ele><time>2026-05-01T14:22:20.998Z</time></trkpt><trkpt lat="46.2339214" lon="8.3053058"><ele>883.6666666666666</ele><time>2026-05-01T14:22:21.998Z</time></trkpt><trkpt lat="46.2339614" lon="8.3052125"><ele>881.0</ele><time>2026-05-01T14:22:23.005Z</time></trkpt><trkpt lat="46.2339945" lon="8.3051102"><ele>878.3333333333333</ele><time>2026-05-01T14:22:24Z</time></trkpt><trkpt lat="46.2340181" lon="8.3050119"><ele>875.6666666666666</ele><time>2026-05-01T14:22:24.998Z</time></trkpt><trkpt lat="46.2340464" lon="8.3049037"><ele>873.0</ele><time>2026-05-01T14:22:25.989Z</time></trkpt><trkpt lat="46.2340766" lon="8.3048018"><ele>874.5714285714286</ele><time>2026-05-01T14:22:26.995Z</time></trkpt><trkpt lat="46.2341055" lon="8.3047036"><ele>876.1428571428571</ele><time>2026-05-01T14:22:27.992Z</time></trkpt><trkpt lat="46.2341271" lon="8.3045991"><ele>877.7142857142858</ele><time>2026-05-01T14:22:28.993Z</time></trkpt><trkpt lat="46.2341499" lon="8.304502"><ele>879.2857142857142</ele><time>2026-05-01T14:22:29.992Z</time></trkpt><trkpt lat="46.2341783" lon="8.3044075"><ele>880.8571428571429</ele><time>2026-05-01T14:22:30.992Z</time></trkpt><trkpt lat="46.2342029" lon="8.3043185"><ele>882.4285714285714</ele><time>2026-05-01T14:22:31.99Z</time></trkpt><trkpt lat="46.2342413" lon="8.3042445"><ele>884.0</ele><time>2026-05-01T14:22:32.992Z</time></trkpt><trkpt lat="46.2342696" lon="8.3041586"><ele>884.0000000000001</ele><time>2026-05-01T14:22:33.99Z</time></trkpt><trkpt lat="46.2342953" lon="8.3039777"><ele>884.0</ele><time>2026-05-01T14:22:35.994Z</time></trkpt><trkpt lat="46.234295" lon="8.3038799"><ele>884.0</ele><time>2026-05-01T14:22:36.988Z</time></trkpt><trkpt lat="46.2342874" lon="8.3037751"><ele>884.0</ele><time>2026-05-01T14:22:37.991Z</time></trkpt><trkpt lat="46.2342788" lon="8.3036719"><ele>884.0000000000001</ele><time>2026-05-01T14:22:38.991Z</time></trkpt><trkpt lat="46.23428" lon="8.3035786"><ele>884.0</ele><time>2026-05-01T14:22:39.988Z</time></trkpt><trkpt lat="46.2342988" lon="8.3034152"><ele>885.3333333333334</ele><time>2026-05-01T14:22:41.986Z</time></trkpt><trkpt lat="46.2343196" lon="8.3032746"><ele>886.6666666666667</ele><time>2026-05-01T14:22:44.002Z</time></trkpt><trkpt lat="46.2343609" lon="8.3031843"><ele>888.0</ele><time>2026-05-01T14:22:45.992Z</time></trkpt><trkpt lat="46.234428" lon="8.3031848"><ele>889.3333333333333</ele><time>2026-05-01T14:22:47.986Z</time></trkpt><trkpt lat="46.2344969" lon="8.3031916"><ele>890.6666666666666</ele><time>2026-05-01T14:22:49.981Z</time></trkpt><trkpt lat="46.2345558" lon="8.3032362"><ele>892.0</ele><time>2026-05-01T14:22:51.993Z</time></trkpt><trkpt lat="46.234604" lon="8.3033254"><ele>891.9999999999999</ele><time>2026-05-01T14:22:53.987Z</time></trkpt><trkpt lat="46.2346561" lon="8.3034764"><ele>892.0</ele><time>2026-05-01T14:22:55.993Z</time></trkpt><trkpt lat="46.2346816" lon="8.3035673"><ele>892.0</ele><time>2026-05-01T14:22:56.987Z</time></trkpt><trkpt lat="46.2347019" lon="8.3036565"><ele>892.0</ele><time>2026-05-01T14:22:57.994Z</time></trkpt><trkpt lat="46.2347288" lon="8.3037479"><ele>891.9999999999999</ele><time>2026-05-01T14:22:58.987Z</time></trkpt><trkpt lat="46.2347483" lon="8.3038414"><ele>892.0</ele><time>2026-05-01T14:22:59.991Z</time></trkpt><trkpt lat="46.2347721" lon="8.3039286"><ele>890.4999999999999</ele><time>2026-05-01T14:23:00.99Z</time></trkpt><trkpt lat="46.2348072" lon="8.3040874"><ele>889.0</ele><time>2026-05-01T14:23:02.988Z</time></trkpt><trkpt lat="46.2348216" lon="8.3041863"><ele>887.5</ele><time>2026-05-01T14:23:04.986Z</time></trkpt><trkpt lat="46.2348504" lon="8.3042988"><ele>886.0</ele><time>2026-05-01T14:23:08.994Z</time></trkpt><trkpt lat="46.2348905" lon="8.304399"><ele>884.4999999999999</ele><time>2026-05-01T14:23:11.988Z</time></trkpt><trkpt lat="46.2349352" lon="8.3045051"><ele>883.0</ele><time>2026-05-01T14:23:14.996Z</time></trkpt><trkpt lat="46.2349668" lon="8.3045985"><ele>882.9999999999999</ele><time>2026-05-01T14:23:17.992Z</time></trkpt><trkpt lat="46.2349871" lon="8.3047085"><ele>883.0</ele><time>2026-05-01T14:23:21.993Z</time></trkpt><trkpt lat="46.235031" lon="8.304779"><ele>883.0</ele><time>2026-05-01T14:23:30.992Z</time></trkpt><trkpt lat="46.2351077" lon="8.3048072"><ele>883.0</ele><time>2026-05-01T14:23:35.983Z</time></trkpt><trkpt lat="46.2351714" lon="8.3048698"><ele>882.9999999999999</ele><time>2026-05-01T14:23:37.988Z</time></trkpt><trkpt lat="46.2352194" lon="8.3049851"><ele>883.0</ele><time>2026-05-01T14:23:39.998Z</time></trkpt><trkpt lat="46.2352862" lon="8.3050985"><ele>879.4</ele><time>2026-05-01T14:23:41.994Z</time></trkpt><trkpt lat="46.2353538" lon="8.3052072"><ele>875.8</ele><time>2026-05-01T14:23:43.992Z</time></trkpt><trkpt lat="46.2354287" lon="8.305315"><ele>872.2</ele><time>2026-05-01T14:23:45.997Z</time></trkpt><trkpt lat="46.2354955" lon="8.3054327"><ele>868.6</ele><time>2026-05-01T14:23:47.999Z</time></trkpt><trkpt lat="46.2355654" lon="8.3055441"><ele>865.0</ele><time>2026-05-01T14:23:49.986Z</time></trkpt><trkpt lat="46.2356232" lon="8.3056517"><ele>866.6</ele><time>2026-05-01T14:23:51.983Z</time></trkpt><trkpt lat="46.2356905" lon="8.3057373"><ele>868.2</ele><time>2026-05-01T14:23:53.988Z</time></trkpt><trkpt lat="46.2357658" lon="8.3058136"><ele>869.8</ele><time>2026-05-01T14:23:55.994Z</time></trkpt><trkpt lat="46.2358513" lon="8.3058693"><ele>871.4</ele><time>2026-05-01T14:23:57.989Z</time></trkpt><trkpt lat="46.2359403" lon="8.3059368"><ele>873.0</ele><time>2026-05-01T14:23:59.992Z</time></trkpt><trkpt lat="46.2360288" lon="8.3060177"><ele>873.0</ele><time>2026-05-01T14:24:01.992Z</time></trkpt><trkpt lat="46.2360997" lon="8.3060945"><ele>873.0</ele><time>2026-05-01T14:24:03.991Z</time></trkpt><trkpt lat="46.2361632" lon="8.3061909"><ele>873.0</ele><time>2026-05-01T14:24:05.989Z</time></trkpt><trkpt lat="46.2362136" lon="8.3063205"><ele>873.0</ele><time>2026-05-01T14:24:07.994Z</time></trkpt><trkpt lat="46.2362756" lon="8.3064588"><ele>873.0</ele><time>2026-05-01T14:24:10Z</time></trkpt><trkpt lat="46.2363688" lon="8.3065652"><ele>873.8</ele><time>2026-05-01T14:24:12.019Z</time></trkpt><trkpt lat="46.236425" lon="8.3066101"><ele>874.5999999999999</ele><time>2026-05-01T14:24:13.01Z</time></trkpt><trkpt lat="46.2365301" lon="8.3066916"><ele>875.4000000000001</ele><time>2026-05-01T14:24:14.993Z</time></trkpt><trkpt lat="46.2366358" lon="8.3067548"><ele>876.2</ele><time>2026-05-01T14:24:16.987Z</time></trkpt><trkpt lat="46.2367363" lon="8.306818"><ele>877.0</ele><time>2026-05-01T14:24:18.985Z</time></trkpt><trkpt lat="46.2368448" lon="8.306835"><ele>877.0</ele><time>2026-05-01T14:24:20.984Z</time></trkpt><trkpt lat="46.2369512" lon="8.3068208"><ele>877.0</ele><time>2026-05-01T14:24:22.981Z</time></trkpt><trkpt lat="46.2370638" lon="8.3068223"><ele>877.0</ele><time>2026-05-01T14:24:24.986Z</time></trkpt><trkpt lat="46.2371643" lon="8.3068681"><ele>877.0</ele><time>2026-05-01T14:24:26.988Z</time></trkpt><trkpt lat="46.2372327" lon="8.3069551"><ele>877.0</ele><time>2026-05-01T14:24:28.996Z</time></trkpt><trkpt lat="46.2371936" lon="8.307084"><ele>877.0</ele><time>2026-05-01T14:24:30.99Z</time></trkpt><trkpt lat="46.237111" lon="8.3071686"><ele>877.0</ele><time>2026-05-01T14:24:32.986Z</time></trkpt><trkpt lat="46.2370244" lon="8.3072129"><ele>877.0</ele><time>2026-05-01T14:24:34.978Z</time></trkpt><trkpt lat="46.2369269" lon="8.3072945"><ele>877.0</ele><time>2026-05-01T14:24:36.971Z</time></trkpt><trkpt lat="46.2368856" lon="8.3073826"><ele>877.0</ele><time>2026-05-01T14:24:37.991Z</time></trkpt><trkpt lat="46.2368554" lon="8.307495"><ele>875.3333333333333</ele><time>2026-05-01T14:24:38.982Z</time></trkpt><trkpt lat="46.2368357" lon="8.3075857"><ele>873.6666666666666</ele><time>2026-05-01T14:24:39.986Z</time></trkpt><trkpt lat="46.2368231" lon="8.3076852"><ele>872.0</ele><time>2026-05-01T14:24:40.988Z</time></trkpt><trkpt lat="46.2368023" lon="8.3077843"><ele>870.3333333333333</ele><time>2026-05-01T14:24:41.991Z</time></trkpt><trkpt lat="46.2367729" lon="8.3079464"><ele>868.6666666666666</ele><time>2026-05-01T14:24:43.992Z</time></trkpt><trkpt lat="46.2367547" lon="8.3081118"><ele>867.0</ele><time>2026-05-01T14:24:45.98Z</time></trkpt><trkpt lat="46.2367294" lon="8.3082814"><ele>867.0</ele><time>2026-05-01T14:24:47.992Z</time></trkpt><trkpt lat="46.2367174" lon="8.3084204"><ele>867.0</ele><time>2026-05-01T14:24:49.982Z</time></trkpt><trkpt lat="46.2366824" lon="8.3085541"><ele>867.0</ele><time>2026-05-01T14:24:51.988Z</time></trkpt><trkpt lat="46.2366518" lon="8.3086781"><ele>867.0</ele><time>2026-05-01T14:24:53.988Z</time></trkpt><trkpt lat="46.2366231" lon="8.3088064"><ele>867.0</ele><time>2026-05-01T14:24:55.991Z</time></trkpt><trkpt lat="46.2365853" lon="8.3089356"><ele>866.8</ele><time>2026-05-01T14:24:57.986Z</time></trkpt><trkpt lat="46.236548" lon="8.3090674"><ele>866.6</ele><time>2026-05-01T14:24:59.98Z</time></trkpt><trkpt lat="46.2365397" lon="8.3092175"><ele>866.3999999999999</ele><time>2026-05-01T14:25:01.989Z</time></trkpt><trkpt lat="46.2365402" lon="8.3093481"><ele>866.1999999999999</ele><time>2026-05-01T14:25:03.989Z</time></trkpt><trkpt lat="46.2365684" lon="8.3094739"><ele>866.0</ele><time>2026-05-01T14:25:05.993Z</time></trkpt><trkpt lat="46.2366015" lon="8.309585"><ele>866.0000000000001</ele><time>2026-05-01T14:25:07.99Z</time></trkpt><trkpt lat="46.2366449" lon="8.3096863"><ele>866.0</ele><time>2026-05-01T14:25:09.996Z</time></trkpt><trkpt lat="46.2366888" lon="8.3097889"><ele>866.0</ele><time>2026-05-01T14:25:16.002Z</time></trkpt><trkpt lat="46.2367476" lon="8.309866"><ele>866.0</ele><time>2026-05-01T14:25:18.999Z</time></trkpt><trkpt lat="46.2368293" lon="8.3099151"><ele>866.0000000000001</ele><time>2026-05-01T14:25:21.006Z</time></trkpt><trkpt lat="46.2369155" lon="8.3099213"><ele>866.0</ele><time>2026-05-01T14:25:23.004Z</time></trkpt><trkpt lat="46.2370017" lon="8.3099218"><ele>865.1666666666667</ele><time>2026-05-01T14:25:24.998Z</time></trkpt><trkpt lat="46.2370948" lon="8.309924"><ele>864.3333333333334</ele><time>2026-05-01T14:25:26.998Z</time></trkpt><trkpt lat="46.2371851" lon="8.3099367"><ele>863.5</ele><time>2026-05-01T14:25:28.996Z</time></trkpt><trkpt lat="46.2372831" lon="8.3099511"><ele>862.6666666666667</ele><time>2026-05-01T14:25:30.999Z</time></trkpt><trkpt lat="46.2373724" lon="8.3099835"><ele>861.8333333333334</ele><time>2026-05-01T14:25:33.001Z</time></trkpt><trkpt lat="46.2374405" lon="8.3100285"><ele>861.0</ele><time>2026-05-01T14:25:34.998Z</time></trkpt><trkpt lat="46.237492" lon="8.3100988"><ele>862.6666666666666</ele><time>2026-05-01T14:25:36.999Z</time></trkpt><trkpt lat="46.2375455" lon="8.3101732"><ele>864.3333333333333</ele><time>2026-05-01T14:25:38.997Z</time></trkpt><trkpt lat="46.2375982" lon="8.3102599"><ele>866.0</ele><time>2026-05-01T14:25:41.008Z</time></trkpt><trkpt lat="46.2376509" lon="8.3103505"><ele>867.6666666666666</ele><time>2026-05-01T14:25:42.999Z</time></trkpt><trkpt lat="46.2377073" lon="8.310439"><ele>869.3333333333333</ele><time>2026-05-01T14:25:45.003Z</time></trkpt><trkpt lat="46.2377709" lon="8.3105444"><ele>871.0</ele><time>2026-05-01T14:25:47.002Z</time></trkpt><trkpt lat="46.2378335" lon="8.310653"><ele>870.9999999999999</ele><time>2026-05-01T14:25:49.007Z</time></trkpt><trkpt lat="46.2378879" lon="8.310777"><ele>871.0</ele><time>2026-05-01T14:25:51.004Z</time></trkpt><trkpt lat="46.2379523" lon="8.310896"><ele>871.0</ele><time>2026-05-01T14:25:53Z</time></trkpt><trkpt lat="46.238024" lon="8.3110122"><ele>871.0</ele><time>2026-05-01T14:25:55.014Z</time></trkpt><trkpt lat="46.2380676" lon="8.3110782"><ele>870.9999999999999</ele><time>2026-05-01T14:25:56.001Z</time></trkpt><trkpt lat="46.2381118" lon="8.311148"><ele>871.0</ele><time>2026-05-01T14:25:57.001Z</time></trkpt><trkpt lat="46.2381567" lon="8.311219"><ele>870.4999999999999</ele><time>2026-05-01T14:25:58.011Z</time></trkpt><trkpt lat="46.2382039" lon="8.3112997"><ele>870.0</ele><time>2026-05-01T14:25:59.004Z</time></trkpt><trkpt lat="46.2382468" lon="8.3113867"><ele>869.5</ele><time>2026-05-01T14:26:00.012Z</time></trkpt><trkpt lat="46.2382991" lon="8.3114711"><ele>869.0</ele><time>2026-05-01T14:26:01.002Z</time></trkpt><trkpt lat="46.2383553" lon="8.3115572"><ele>868.4999999999999</ele><time>2026-05-01T14:26:01.998Z</time></trkpt><trkpt lat="46.2384075" lon="8.3116428"><ele>868.0</ele><time>2026-05-01T14:26:02.985Z</time></trkpt><trkpt lat="46.2384418" lon="8.311733"><ele>867.1666666666666</ele><time>2026-05-01T14:26:03.986Z</time></trkpt><trkpt lat="46.2385166" lon="8.3118286"><ele>866.3333333333333</ele><time>2026-05-01T14:26:05.989Z</time></trkpt><trkpt lat="46.238615" lon="8.3118491"><ele>865.5</ele><time>2026-05-01T14:26:07.988Z</time></trkpt><trkpt lat="46.2386978" lon="8.3118311"><ele>864.6666666666667</ele><time>2026-05-01T14:26:09.986Z</time></trkpt><trkpt lat="46.238682" lon="8.3119241"><ele>863.8333333333334</ele><time>2026-05-01T14:26:14.996Z</time></trkpt><trkpt lat="46.238622" lon="8.3119771"><ele>863.0</ele><time>2026-05-01T14:26:16.993Z</time></trkpt><trkpt lat="46.2385261" lon="8.3120325"><ele>863.0000000000001</ele><time>2026-05-01T14:26:18.995Z</time></trkpt><trkpt lat="46.2384216" lon="8.3121168"><ele>863.0</ele><time>2026-05-01T14:26:20.999Z</time></trkpt><trkpt lat="46.2383604" lon="8.3121611"><ele>863.0</ele><time>2026-05-01T14:26:21.991Z</time></trkpt><trkpt lat="46.2383034" lon="8.3122133"><ele>863.0</ele><time>2026-05-01T14:26:22.999Z</time></trkpt><trkpt lat="46.2382466" lon="8.3122641"><ele>863.0000000000001</ele><time>2026-05-01T14:26:23.998Z</time></trkpt><trkpt lat="46.2381859" lon="8.3123157"><ele>863.0</ele><time>2026-05-01T14:26:25Z</time></trkpt><trkpt lat="46.238126" lon="8.3123743"><ele>861.8333333333334</ele><time>2026-05-01T14:26:25.994Z</time></trkpt><trkpt lat="46.2380642" lon="8.3124318"><ele>860.6666666666667</ele><time>2026-05-01T14:26:26.995Z</time></trkpt><trkpt lat="46.2379992" lon="8.3124865"><ele>859.5</ele><time>2026-05-01T14:26:27.991Z</time></trkpt><trkpt lat="46.2379343" lon="8.3125418"><ele>858.3333333333333</ele><time>2026-05-01T14:26:28.995Z</time></trkpt><trkpt lat="46.2378663" lon="8.3126027"><ele>857.1666666666666</ele><time>2026-05-01T14:26:29.992Z</time></trkpt><trkpt lat="46.2377961" lon="8.3126562"><ele>856.0</ele><time>2026-05-01T14:26:30.989Z</time></trkpt><trkpt lat="46.2377266" lon="8.3127044"><ele>855.9999999999999</ele><time>2026-05-01T14:26:31.99Z</time></trkpt><trkpt lat="46.2376596" lon="8.3127416"><ele>856.0</ele><time>2026-05-01T14:26:32.996Z</time></trkpt><trkpt lat="46.2375927" lon="8.3127652"><ele>856.0</ele><time>2026-05-01T14:26:33.996Z</time></trkpt><trkpt lat="46.2375294" lon="8.3127887"><ele>856.0</ele><time>2026-05-01T14:26:34.988Z</time></trkpt><trkpt lat="46.2374151" lon="8.3128237"><ele>855.9999999999999</ele><time>2026-05-01T14:26:36.995Z</time></trkpt><trkpt lat="46.237321" lon="8.3128476"><ele>856.0</ele><time>2026-05-01T14:26:38.997Z</time></trkpt><trkpt lat="46.2374069" lon="8.3128286"><ele>856.0</ele><time>2026-05-01T14:26:46.992Z</time></trkpt><trkpt lat="46.2375047" lon="8.3128301"><ele>855.9999999999999</ele><time>2026-05-01T14:26:48.993Z</time></trkpt><trkpt lat="46.2376078" lon="8.3127488"><ele>855.9999999999999</ele><time>2026-05-01T14:26:51.004Z</time></trkpt><trkpt lat="46.2377208" lon="8.3127141"><ele>856.0</ele><time>2026-05-01T14:26:53.008Z</time></trkpt><trkpt lat="46.2377912" lon="8.3127044"><ele>856.0</ele><time>2026-05-01T14:26:53.995Z</time></trkpt><trkpt lat="46.2378584" lon="8.3126846"><ele>855.9999999999999</ele><time>2026-05-01T14:26:54.991Z</time></trkpt><trkpt lat="46.2379288" lon="8.3126614"><ele>856.0</ele><time>2026-05-01T14:26:55.998Z</time></trkpt><trkpt lat="46.2380104" lon="8.3126406"><ele>856.0</ele><time>2026-05-01T14:26:56.995Z</time></trkpt><trkpt lat="46.2380909" lon="8.3126283"><ele>856.0</ele><time>2026-05-01T14:26:57.992Z</time></trkpt><trkpt lat="46.238179" lon="8.3126233"><ele>855.9999999999999</ele><time>2026-05-01T14:26:58.994Z</time></trkpt><trkpt lat="46.2382732" lon="8.3126302"><ele>856.0</ele><time>2026-05-01T14:26:59.998Z</time></trkpt><trkpt lat="46.2383704" lon="8.3126337"><ele>853.8</ele><time>2026-05-01T14:27:01.002Z</time></trkpt><trkpt lat="46.2384713" lon="8.3126425"><ele>851.5999999999999</ele><time>2026-05-01T14:27:01.993Z</time></trkpt><trkpt lat="46.2385708" lon="8.3126531"><ele>849.4</ele><time>2026-05-01T14:27:02.996Z</time></trkpt><trkpt lat="46.238666" lon="8.3126653"><ele>847.2</ele><time>2026-05-01T14:27:03.997Z</time></trkpt><trkpt lat="46.2387624" lon="8.3126726"><ele>845.0</ele><time>2026-05-01T14:27:04.996Z</time></trkpt><trkpt lat="46.2388525" lon="8.3126826"><ele>845.0</ele><time>2026-05-01T14:27:05.999Z</time></trkpt><trkpt lat="46.23894" lon="8.3126846"><ele>845.0</ele><time>2026-05-01T14:27:07.005Z</time></trkpt><trkpt lat="46.2390185" lon="8.3126934"><ele>845.0</ele><time>2026-05-01T14:27:07.999Z</time></trkpt><trkpt lat="46.2390961" lon="8.3127414"><ele>845.0</ele><time>2026-05-01T14:27:10.002Z</time></trkpt><trkpt lat="46.2390044" lon="8.3128111"><ele>845.0</ele><time>2026-05-01T14:27:12.992Z</time></trkpt><trkpt lat="46.2389139" lon="8.312923"><ele>845.0000000000001</ele><time>2026-05-01T14:27:14.992Z</time></trkpt><trkpt lat="46.2388564" lon="8.3129894"><ele>845.0</ele><time>2026-05-01T14:27:15.996Z</time></trkpt><trkpt lat="46.2387909" lon="8.3130691"><ele>845.0</ele><time>2026-05-01T14:27:17.002Z</time></trkpt><trkpt lat="46.2387171" lon="8.3131611"><ele>845.0</ele><time>2026-05-01T14:27:17.998Z</time></trkpt><trkpt lat="46.2386405" lon="8.3132539"><ele>845.0000000000001</ele><time>2026-05-01T14:27:18.998Z</time></trkpt><trkpt lat="46.2385677" lon="8.3133352"><ele>845.0</ele><time>2026-05-01T14:27:20Z</time></trkpt><trkpt lat="46.2384925" lon="8.3134176"><ele>842.3333333333334</ele><time>2026-05-01T14:27:20.999Z</time></trkpt><trkpt lat="46.2384177" lon="8.3135029"><ele>839.6666666666667</ele><time>2026-05-01T14:27:22.002Z</time></trkpt><trkpt lat="46.2383442" lon="8.3135883"><ele>837.0</ele><time>2026-05-01T14:27:23.005Z</time></trkpt><trkpt lat="46.23828" lon="8.3136619"><ele>834.3333333333333</ele><time>2026-05-01T14:27:23.994Z</time></trkpt><trkpt lat="46.2382187" lon="8.3137395"><ele>831.6666666666666</ele><time>2026-05-01T14:27:24.99Z</time></trkpt><trkpt lat="46.2381613" lon="8.3138101"><ele>829.0</ele><time>2026-05-01T14:27:25.996Z</time></trkpt><trkpt lat="46.2381079" lon="8.3138729"><ele>825.6666666666666</ele><time>2026-05-01T14:27:26.997Z</time></trkpt><trkpt lat="46.2380534" lon="8.3139187"><ele>822.3333333333333</ele><time>2026-05-01T14:27:27.993Z</time></trkpt><trkpt lat="46.2379454" lon="8.3139332"><ele>819.0</ele><time>2026-05-01T14:27:30Z</time></trkpt><trkpt lat="46.2378432" lon="8.3139419"><ele>815.6666666666667</ele><time>2026-05-01T14:27:32Z</time></trkpt><trkpt lat="46.2377613" lon="8.3139441"><ele>812.3333333333334</ele><time>2026-05-01T14:27:33.995Z</time></trkpt><trkpt lat="46.2376843" lon="8.3139624"><ele>809.0</ele><time>2026-05-01T14:27:35.997Z</time></trkpt><trkpt lat="46.2376089" lon="8.3139732"><ele>809.0000000000001</ele><time>2026-05-01T14:27:37.997Z</time></trkpt><trkpt lat="46.2375322" lon="8.313981"><ele>809.0</ele><time>2026-05-01T14:27:39.999Z</time></trkpt><trkpt lat="46.2374573" lon="8.3139969"><ele>809.0</ele><time>2026-05-01T14:27:43Z</time></trkpt><trkpt lat="46.2373895" lon="8.3139571"><ele>809.0</ele><time>2026-05-01T14:27:46.995Z</time></trkpt><trkpt lat="46.2374618" lon="8.3139468"><ele>809.0000000000001</ele><time>2026-05-01T14:28:02.998Z</time></trkpt><trkpt lat="46.2375506" lon="8.3139324"><ele>809.0</ele><time>2026-05-01T14:28:06.997Z</time></trkpt><trkpt lat="46.2376342" lon="8.3139077"><ele>809.0000000000001</ele><time>2026-05-01T14:28:09.998Z</time></trkpt><trkpt lat="46.2377053" lon="8.3139066"><ele>809.0</ele><time>2026-05-01T14:28:11.999Z</time></trkpt><trkpt lat="46.2377886" lon="8.3139217"><ele>809.0</ele><time>2026-05-01T14:28:14.004Z</time></trkpt><trkpt lat="46.2378648" lon="8.3139384"><ele>809.0</ele><time>2026-05-01T14:28:15.996Z</time></trkpt><trkpt lat="46.2379317" lon="8.3139297"><ele>809.0000000000001</ele><time>2026-05-01T14:28:18.005Z</time></trkpt><trkpt lat="46.2380182" lon="8.3139024"><ele>809.0</ele><time>2026-05-01T14:28:20.999Z</time></trkpt><trkpt lat="46.2380817" lon="8.3139004"><ele>810.4000000000001</ele><time>2026-05-01T14:28:22.996Z</time></trkpt><trkpt lat="46.2381604" lon="8.3139453"><ele>811.8</ele><time>2026-05-01T14:28:24.999Z</time></trkpt><trkpt lat="46.2382597" lon="8.3140048"><ele>813.2</ele><time>2026-05-01T14:28:27.001Z</time></trkpt><trkpt lat="46.2383706" lon="8.3140709"><ele>814.5999999999999</ele><time>2026-05-01T14:28:28.999Z</time></trkpt><trkpt lat="46.2384359" lon="8.3141081"><ele>816.0</ele><time>2026-05-01T14:28:29.999Z</time></trkpt><trkpt lat="46.2384974" lon="8.3141481"><ele>816.0</ele><time>2026-05-01T14:28:30.998Z</time></trkpt><trkpt lat="46.2385624" lon="8.3141823"><ele>816.0</ele><time>2026-05-01T14:28:32.007Z</time></trkpt><trkpt lat="46.2386224" lon="8.3142173"><ele>816.0</ele><time>2026-05-01T14:28:33.003Z</time></trkpt><trkpt lat="46.2386851" lon="8.3142447"><ele>816.0</ele><time>2026-05-01T14:28:34.006Z</time></trkpt><trkpt lat="46.2387477" lon="8.3142708"><ele>816.0</ele><time>2026-05-01T14:28:35.002Z</time></trkpt><trkpt lat="46.2388115" lon="8.3142958"><ele>816.0</ele><time>2026-05-01T14:28:35.999Z</time></trkpt><trkpt lat="46.2388754" lon="8.3143179"><ele>816.0</ele><time>2026-05-01T14:28:37.026Z</time></trkpt><trkpt lat="46.239" lon="8.3143466"><ele>815.4</ele><time>2026-05-01T14:28:38.999Z</time></trkpt><trkpt lat="46.239064" lon="8.3143564"><ele>814.8</ele><time>2026-05-01T14:28:40Z</time></trkpt><trkpt lat="46.239184" lon="8.3143498"><ele>814.1999999999999</ele><time>2026-05-01T14:28:41.996Z</time></trkpt><trkpt lat="46.2393035" lon="8.3143436"><ele>813.5999999999999</ele><time>2026-05-01T14:28:44.021Z</time></trkpt><trkpt lat="46.2394131" lon="8.3143578"><ele>813.0</ele><time>2026-05-01T14:28:46.001Z</time></trkpt><trkpt lat="46.239523" lon="8.3143789"><ele>813.0</ele><time>2026-05-01T14:28:48.008Z</time></trkpt><trkpt lat="46.2396341" lon="8.3144029"><ele>813.0</ele><time>2026-05-01T14:28:50.005Z</time></trkpt><trkpt lat="46.2397423" lon="8.3144217"><ele>813.0</ele><time>2026-05-01T14:28:52.003Z</time></trkpt><trkpt lat="46.2398576" lon="8.3144218"><ele>813.0</ele><time>2026-05-01T14:28:53.997Z</time></trkpt><trkpt lat="46.2399705" lon="8.3144193"><ele>812.5999999999999</ele><time>2026-05-01T14:28:55.994Z</time></trkpt><trkpt lat="46.2400786" lon="8.314378"><ele>812.1999999999999</ele><time>2026-05-01T14:28:57.991Z</time></trkpt><trkpt lat="46.2401856" lon="8.3143233"><ele>811.8</ele><time>2026-05-01T14:28:59.999Z</time></trkpt><trkpt lat="46.2402877" lon="8.3142641"><ele>811.4</ele><time>2026-05-01T14:29:01.999Z</time></trkpt><trkpt lat="46.2403953" lon="8.3142147"><ele>811.0</ele><time>2026-05-01T14:29:04.001Z</time></trkpt><trkpt lat="46.2404964" lon="8.3141803"><ele>810.9999999999999</ele><time>2026-05-01T14:29:05.993Z</time></trkpt><trkpt lat="46.2405807" lon="8.3141474"><ele>811.0</ele><time>2026-05-01T14:29:07.987Z</time></trkpt><trkpt lat="46.2406529" lon="8.3141195"><ele>811.0</ele><time>2026-05-01T14:29:10.99Z</time></trkpt><trkpt lat="46.2407193" lon="8.314051"><ele>811.0</ele><time>2026-05-01T14:29:17.997Z</time></trkpt><trkpt lat="46.2407862" lon="8.314072"><ele>810.9999999999999</ele><time>2026-05-01T14:29:21.005Z</time></trkpt><trkpt lat="46.2408449" lon="8.314119"><ele>811.0</ele><time>2026-05-01T14:29:23.004Z</time></trkpt><trkpt lat="46.2409212" lon="8.3141298"><ele>811.4</ele><time>2026-05-01T14:29:24.997Z</time></trkpt><trkpt lat="46.2410212" lon="8.3141606"><ele>811.8</ele><time>2026-05-01T14:29:27.006Z</time></trkpt><trkpt lat="46.2411371" lon="8.3141896"><ele>812.1999999999999</ele><time>2026-05-01T14:29:28.998Z</time></trkpt><trkpt lat="46.2412305" lon="8.3142356"><ele>812.5999999999999</ele><time>2026-05-01T14:29:31Z</time></trkpt><trkpt lat="46.241293" lon="8.3142805"><ele>813.0</ele><time>2026-05-01T14:29:35.002Z</time></trkpt><trkpt lat="46.2413542" lon="8.3143653"><ele>813.0</ele><time>2026-05-01T14:29:57.988Z</time></trkpt><trkpt lat="46.241448" lon="8.3144441"><ele>813.0</ele><time>2026-05-01T14:29:59.986Z</time></trkpt><trkpt lat="46.241556" lon="8.3144859"><ele>813.0</ele><time>2026-05-01T14:30:01.987Z</time></trkpt><trkpt lat="46.2416543" lon="8.3145341"><ele>813.0</ele><time>2026-05-01T14:30:03.983Z</time></trkpt><trkpt lat="46.2417125" lon="8.3145778"><ele>813.0</ele><time>2026-05-01T14:30:04.989Z</time></trkpt><trkpt lat="46.2418323" lon="8.3146354"><ele>813.4</ele><time>2026-05-01T14:30:06.992Z</time></trkpt><trkpt lat="46.2419516" lon="8.3146448"><ele>813.8</ele><time>2026-05-01T14:30:08.987Z</time></trkpt><trkpt lat="46.2420481" lon="8.314628"><ele>814.2</ele><time>2026-05-01T14:30:10.991Z</time></trkpt><trkpt lat="46.2421605" lon="8.3146452"><ele>814.6</ele><time>2026-05-01T14:30:12.992Z</time></trkpt><trkpt lat="46.2422665" lon="8.3146779"><ele>815.0</ele><time>2026-05-01T14:30:14.993Z</time></trkpt><trkpt lat="46.2423744" lon="8.3147093"><ele>815.2</ele><time>2026-05-01T14:30:16.999Z</time></trkpt><trkpt lat="46.2424804" lon="8.3146959"><ele>815.4</ele><time>2026-05-01T14:30:19Z</time></trkpt><trkpt lat="46.2425863" lon="8.314676"><ele>815.5999999999999</ele><time>2026-05-01T14:30:20.997Z</time></trkpt><trkpt lat="46.2426814" lon="8.3146469"><ele>815.8</ele><time>2026-05-01T14:30:23Z</time></trkpt><trkpt lat="46.2427567" lon="8.3146103"><ele>816.0</ele><time>2026-05-01T14:30:24.996Z</time></trkpt><trkpt lat="46.242845" lon="8.3145473"><ele>816.0</ele><time>2026-05-01T14:30:26.996Z</time></trkpt><trkpt lat="46.2429215" lon="8.3144852"><ele>816.0</ele><time>2026-05-01T14:30:29.003Z</time></trkpt><trkpt lat="46.2430325" lon="8.3144543"><ele>816.0</ele><time>2026-05-01T14:30:31.001Z</time></trkpt><trkpt lat="46.2430988" lon="8.31444"><ele>816.0</ele><time>2026-05-01T14:30:32.004Z</time></trkpt><trkpt lat="46.2431671" lon="8.3144217"><ele>816.0</ele><time>2026-05-01T14:30:33.001Z</time></trkpt><trkpt lat="46.2432442" lon="8.3143999"><ele>816.0</ele><time>2026-05-01T14:30:34.003Z</time></trkpt><trkpt lat="46.2433245" lon="8.3143739"><ele>815.1666666666666</ele><time>2026-05-01T14:30:35.001Z</time></trkpt><trkpt lat="46.2434011" lon="8.3143366"><ele>814.3333333333333</ele><time>2026-05-01T14:30:36Z</time></trkpt><trkpt lat="46.2434805" lon="8.3143043"><ele>813.5</ele><time>2026-05-01T14:30:36.999Z</time></trkpt><trkpt lat="46.2435614" lon="8.3142746"><ele>812.6666666666666</ele><time>2026-05-01T14:30:38.006Z</time></trkpt><trkpt lat="46.2436522" lon="8.3142448"><ele>811.8333333333333</ele><time>2026-05-01T14:30:39.006Z</time></trkpt><trkpt lat="46.2437458" lon="8.3142124"><ele>811.0</ele><time>2026-05-01T14:30:40.005Z</time></trkpt><trkpt lat="46.2438386" lon="8.314176"><ele>811.0</ele><time>2026-05-01T14:30:40.998Z</time></trkpt><trkpt lat="46.2439341" lon="8.3141389"><ele>811.0</ele><time>2026-05-01T14:30:42.007Z</time></trkpt><trkpt lat="46.2440312" lon="8.3141116"><ele>811.0</ele><time>2026-05-01T14:30:43Z</time></trkpt><trkpt lat="46.2441316" lon="8.314106"><ele>811.0</ele><time>2026-05-01T14:30:44.009Z</time></trkpt><trkpt lat="46.2442327" lon="8.3141246"><ele>811.0</ele><time>2026-05-01T14:30:45.009Z</time></trkpt><trkpt lat="46.2443375" lon="8.3141587"><ele>808.8</ele><time>2026-05-01T14:30:46.001Z</time></trkpt><trkpt lat="46.2444399" lon="8.3141838"><ele>806.5999999999999</ele><time>2026-05-01T14:30:46.999Z</time></trkpt><trkpt lat="46.2445403" lon="8.3141925"><ele>804.4</ele><time>2026-05-01T14:30:48.003Z</time></trkpt><trkpt lat="46.2446367" lon="8.3141864"><ele>802.2</ele><time>2026-05-01T14:30:48.998Z</time></trkpt><trkpt lat="46.244738" lon="8.3141588"><ele>800.0</ele><time>2026-05-01T14:30:50.003Z</time></trkpt><trkpt lat="46.2448436" lon="8.3141283"><ele>799.8</ele><time>2026-05-01T14:30:51.003Z</time></trkpt><trkpt lat="46.2449468" lon="8.3141008"><ele>799.6</ele><time>2026-05-01T14:30:52.005Z</time></trkpt><trkpt lat="46.2450542" lon="8.3140822"><ele>799.4000000000001</ele><time>2026-05-01T14:30:53.005Z</time></trkpt><trkpt lat="46.2451605" lon="8.3140921"><ele>799.2</ele><time>2026-05-01T14:30:53.992Z</time></trkpt><trkpt lat="46.2452661" lon="8.3141166"><ele>799.0</ele><time>2026-05-01T14:30:54.992Z</time></trkpt><trkpt lat="46.2453701" lon="8.3141401"><ele>799.0</ele><time>2026-05-01T14:30:56Z</time></trkpt><trkpt lat="46.2454708" lon="8.3141688"><ele>799.0</ele><time>2026-05-01T14:30:57.005Z</time></trkpt><trkpt lat="46.2455741" lon="8.3142035"><ele>799.0</ele><time>2026-05-01T14:30:58.003Z</time></trkpt><trkpt lat="46.2456737" lon="8.3142432"><ele>799.0</ele><time>2026-05-01T14:30:59.004Z</time></trkpt><trkpt lat="46.2457699" lon="8.3142838"><ele>799.0</ele><time>2026-05-01T14:31:00.006Z</time></trkpt><trkpt lat="46.245868" lon="8.3143226"><ele>798.3333333333333</ele><time>2026-05-01T14:31:01.001Z</time></trkpt><trkpt lat="46.2459582" lon="8.3143571"><ele>797.6666666666666</ele><time>2026-05-01T14:31:02.002Z</time></trkpt><trkpt lat="46.2460432" lon="8.3143827"><ele>797.0</ele><time>2026-05-01T14:31:02.999Z</time></trkpt><trkpt lat="46.2461201" lon="8.3144138"><ele>796.3333333333333</ele><time>2026-05-01T14:31:03.995Z</time></trkpt><trkpt lat="46.2461792" lon="8.3144601"><ele>795.6666666666666</ele><time>2026-05-01T14:31:05.003Z</time></trkpt><trkpt lat="46.2462372" lon="8.3145589"><ele>795.0</ele><time>2026-05-01T14:31:06.994Z</time></trkpt><trkpt lat="46.2463146" lon="8.3146064"><ele>795.0</ele><time>2026-05-01T14:31:08.996Z</time></trkpt><trkpt lat="46.2463931" lon="8.3145934"><ele>795.0</ele><time>2026-05-01T14:31:11.001Z</time></trkpt><trkpt lat="46.2464598" lon="8.314602"><ele>795.0</ele><time>2026-05-01T14:31:12.996Z</time></trkpt><trkpt lat="46.2465524" lon="8.3146475"><ele>795.0</ele><time>2026-05-01T14:31:15Z</time></trkpt><trkpt lat="46.2466484" lon="8.3146947"><ele>795.0</ele><time>2026-05-01T14:31:16.998Z</time></trkpt><trkpt lat="46.2467284" lon="8.3147224"><ele>795.0</ele><time>2026-05-01T14:31:19.01Z</time></trkpt><trkpt lat="46.2468315" lon="8.314721"><ele>795.6</ele><time>2026-05-01T14:31:21.012Z</time></trkpt><trkpt lat="46.2469488" lon="8.3147291"><ele>796.2</ele><time>2026-05-01T14:31:22.999Z</time></trkpt><trkpt lat="46.2470645" lon="8.3147918"><ele>796.8</ele><time>2026-05-01T14:31:24.995Z</time></trkpt><trkpt lat="46.2471196" lon="8.3148386"><ele>797.4</ele><time>2026-05-01T14:31:25.995Z</time></trkpt><trkpt lat="46.2472166" lon="8.3149258"><ele>798.0</ele><time>2026-05-01T14:31:28.013Z</time></trkpt><trkpt lat="46.2473082" lon="8.3149418"><ele>794.3333333333334</ele><time>2026-05-01T14:31:29.996Z</time></trkpt><trkpt lat="46.247409" lon="8.3149199"><ele>790.6666666666667</ele><time>2026-05-01T14:31:31.998Z</time></trkpt><trkpt lat="46.247505" lon="8.3148846"><ele>787.0</ele><time>2026-05-01T14:31:33.993Z</time></trkpt><trkpt lat="46.2476009" lon="8.3148853"><ele>783.3333333333334</ele><time>2026-05-01T14:31:35.999Z</time></trkpt><trkpt lat="46.2476548" lon="8.3149404"><ele>779.6666666666667</ele><time>2026-05-01T14:31:41.999Z</time></trkpt><trkpt lat="46.247697" lon="8.3150217"><ele>776.0</ele><time>2026-05-01T14:31:45.998Z</time></trkpt><trkpt lat="46.2477859" lon="8.3150193"><ele>776.0000000000001</ele><time>2026-05-01T14:31:48.998Z</time></trkpt><trkpt lat="46.2478635" lon="8.3149745"><ele>776.0</ele><time>2026-05-01T14:31:50.99Z</time></trkpt><trkpt lat="46.2479384" lon="8.3148949"><ele>776.0</ele><time>2026-05-01T14:31:52.989Z</time></trkpt><trkpt lat="46.2480267" lon="8.3147872"><ele>776.0</ele><time>2026-05-01T14:31:54.987Z</time></trkpt><trkpt lat="46.2480725" lon="8.3147185"><ele>776.0000000000001</ele><time>2026-05-01T14:31:55.983Z</time></trkpt><trkpt lat="46.2481397" lon="8.3146594"><ele>776.0</ele><time>2026-05-01T14:31:56.995Z</time></trkpt><trkpt lat="46.2482098" lon="8.3146087"><ele>775.8333333333334</ele><time>2026-05-01T14:31:57.995Z</time></trkpt><trkpt lat="46.2482815" lon="8.3145755"><ele>775.6666666666667</ele><time>2026-05-01T14:31:58.991Z</time></trkpt><trkpt lat="46.2483537" lon="8.314552"><ele>775.5</ele><time>2026-05-01T14:31:59.994Z</time></trkpt><trkpt lat="46.2484329" lon="8.3145224"><ele>775.3333333333333</ele><time>2026-05-01T14:32:00.996Z</time></trkpt><trkpt lat="46.2485236" lon="8.3144929"><ele>775.1666666666666</ele><time>2026-05-01T14:32:02.001Z</time></trkpt><trkpt lat="46.2486124" lon="8.3144673"><ele>775.0</ele><time>2026-05-01T14:32:02.996Z</time></trkpt><trkpt lat="46.2487037" lon="8.3144428"><ele>774.9999999999999</ele><time>2026-05-01T14:32:03.992Z</time></trkpt><trkpt lat="46.2487905" lon="8.3144218"><ele>775.0</ele><time>2026-05-01T14:32:04.991Z</time></trkpt><trkpt lat="46.2488708" lon="8.3144223"><ele>775.0</ele><time>2026-05-01T14:32:05.991Z</time></trkpt><trkpt lat="46.2489384" lon="8.3144461"><ele>775.0</ele><time>2026-05-01T14:32:06.995Z</time></trkpt><trkpt lat="46.2489908" lon="8.3145002"><ele>775.0</ele><time>2026-05-01T14:32:07.995Z</time></trkpt><trkpt lat="46.2490406" lon="8.3145686"><ele>774.9999999999999</ele><time>2026-05-01T14:32:08.998Z</time></trkpt><trkpt lat="46.2490673" lon="8.3146752"><ele>775.0</ele><time>2026-05-01T14:32:10Z</time></trkpt><trkpt lat="46.2490756" lon="8.3147895"><ele>771.4</ele><time>2026-05-01T14:32:10.998Z</time></trkpt><trkpt lat="46.2490501" lon="8.3148992"><ele>767.8</ele><time>2026-05-01T14:32:11.989Z</time></trkpt><trkpt lat="46.2489894" lon="8.3149986"><ele>764.2</ele><time>2026-05-01T14:32:12.99Z</time></trkpt><trkpt lat="46.2489267" lon="8.3151004"><ele>760.6</ele><time>2026-05-01T14:32:13.995Z</time></trkpt><trkpt lat="46.2488584" lon="8.3152129"><ele>757.0</ele><time>2026-05-01T14:32:14.987Z</time></trkpt><trkpt lat="46.2487846" lon="8.3153285"><ele>757.0</ele><time>2026-05-01T14:32:15.984Z</time></trkpt><trkpt lat="46.2487106" lon="8.3154471"><ele>757.0</ele><time>2026-05-01T14:32:16.984Z</time></trkpt><trkpt lat="46.2486472" lon="8.3155709"><ele>757.0</ele><time>2026-05-01T14:32:17.985Z</time></trkpt><trkpt lat="46.2485989" lon="8.3157114"><ele>757.0</ele><time>2026-05-01T14:32:18.995Z</time></trkpt><trkpt lat="46.2485613" lon="8.3158682"><ele>757.0</ele><time>2026-05-01T14:32:19.989Z</time></trkpt><trkpt lat="46.2485452" lon="8.3160194"><ele>754.75</ele><time>2026-05-01T14:32:20.993Z</time></trkpt><trkpt lat="46.2485376" lon="8.3161898"><ele>752.5</ele><time>2026-05-01T14:32:21.989Z</time></trkpt><trkpt lat="46.2485383" lon="8.3163593"><ele>750.25</ele><time>2026-05-01T14:32:22.993Z</time></trkpt><trkpt lat="46.2485539" lon="8.3165241"><ele>748.0</ele><time>2026-05-01T14:32:23.991Z</time></trkpt><trkpt lat="46.248589" lon="8.3166718"><ele>746.5999999999999</ele><time>2026-05-01T14:32:24.99Z</time></trkpt><trkpt lat="46.2486387" lon="8.3168086"><ele>745.1999999999999</ele><time>2026-05-01T14:32:25.992Z</time></trkpt><trkpt lat="46.2487089" lon="8.3169335"><ele>743.8</ele><time>2026-05-01T14:32:26.997Z</time></trkpt><trkpt lat="46.2487805" lon="8.3170548"><ele>742.4</ele><time>2026-05-01T14:32:27.996Z</time></trkpt><trkpt lat="46.2488488" lon="8.3171811"><ele>741.0</ele><time>2026-05-01T14:32:28.993Z</time></trkpt><trkpt lat="46.2489242" lon="8.3173001"><ele>740.0</ele><time>2026-05-01T14:32:29.999Z</time></trkpt><trkpt lat="46.249001" lon="8.31742"><ele>739.0</ele><time>2026-05-01T14:32:30.994Z</time></trkpt><trkpt lat="46.2490657" lon="8.3175537"><ele>738.0</ele><time>2026-05-01T14:32:31.992Z</time></trkpt><trkpt lat="46.2491048" lon="8.3176966"><ele>737.0</ele><time>2026-05-01T14:32:33.001Z</time></trkpt><trkpt lat="46.2491205" lon="8.3178407"><ele>736.0</ele><time>2026-05-01T14:32:33.998Z</time></trkpt><trkpt lat="46.2491248" lon="8.3179724"><ele>735.8333333333334</ele><time>2026-05-01T14:32:34.993Z</time></trkpt><trkpt lat="46.2491167" lon="8.3180889"><ele>735.6666666666667</ele><time>2026-05-01T14:32:35.996Z</time></trkpt><trkpt lat="46.2490905" lon="8.3182012"><ele>735.5</ele><time>2026-05-01T14:32:37.002Z</time></trkpt><trkpt lat="46.2490378" lon="8.3182845"><ele>735.3333333333334</ele><time>2026-05-01T14:32:37.996Z</time></trkpt><trkpt lat="46.2489592" lon="8.3183341"><ele>735.1666666666666</ele><time>2026-05-01T14:32:38.994Z</time></trkpt><trkpt lat="46.2488694" lon="8.3183549"><ele>735.0</ele><time>2026-05-01T14:32:39.997Z</time></trkpt><trkpt lat="46.2487724" lon="8.3183782"><ele>733.0</ele><time>2026-05-01T14:32:40.996Z</time></trkpt><trkpt lat="46.2486732" lon="8.3184018"><ele>731.0</ele><time>2026-05-01T14:32:41.998Z</time></trkpt><trkpt lat="46.2485703" lon="8.3184126"><ele>729.0</ele><time>2026-05-01T14:32:42.999Z</time></trkpt><trkpt lat="46.2484668" lon="8.3184226"><ele>727.0</ele><time>2026-05-01T14:32:44.008Z</time></trkpt><trkpt lat="46.2483642" lon="8.3184483"><ele>725.0</ele><time>2026-05-01T14:32:45.004Z</time></trkpt><trkpt lat="46.2482626" lon="8.3184767"><ele>725.0</ele><time>2026-05-01T14:32:46.008Z</time></trkpt><trkpt lat="46.2481695" lon="8.3185375"><ele>725.0</ele><time>2026-05-01T14:32:47.003Z</time></trkpt><trkpt lat="46.2480784" lon="8.3186095"><ele>725.0</ele><time>2026-05-01T14:32:48.007Z</time></trkpt><trkpt lat="46.2479914" lon="8.318683"><ele>725.0</ele><time>2026-05-01T14:32:49.003Z</time></trkpt><trkpt lat="46.2479039" lon="8.3187591"><ele>725.0</ele><time>2026-05-01T14:32:50.004Z</time></trkpt><trkpt lat="46.2478236" lon="8.3188359"><ele>724.8333333333333</ele><time>2026-05-01T14:32:51.002Z</time></trkpt><trkpt lat="46.2477525" lon="8.3189116"><ele>724.6666666666666</ele><time>2026-05-01T14:32:52.004Z</time></trkpt><trkpt lat="46.2476844" lon="8.3189806"><ele>724.5</ele><time>2026-05-01T14:32:52.999Z</time></trkpt><trkpt lat="46.2476214" lon="8.3190513"><ele>724.3333333333334</ele><time>2026-05-01T14:32:53.988Z</time></trkpt><trkpt lat="46.247573" lon="8.3191109"><ele>724.1666666666667</ele><time>2026-05-01T14:32:54.989Z</time></trkpt><trkpt lat="46.2475145" lon="8.3192216"><ele>724.0</ele><time>2026-05-01T14:32:56.986Z</time></trkpt><trkpt lat="46.2474323" lon="8.3191961"><ele>724.0</ele><time>2026-05-01T14:33:08.992Z</time></trkpt><trkpt lat="46.2473864" lon="8.3190809"><ele>724.0</ele><time>2026-05-01T14:33:10.996Z</time></trkpt><trkpt lat="46.2473479" lon="8.318936"><ele>724.0</ele><time>2026-05-01T14:33:12.99Z</time></trkpt><trkpt lat="46.2472809" lon="8.3188108"><ele>724.0</ele><time>2026-05-01T14:33:14.997Z</time></trkpt><trkpt lat="46.2472146" lon="8.3187304"><ele>724.0</ele><time>2026-05-01T14:33:16.994Z</time></trkpt><trkpt lat="46.2471526" lon="8.3187098"><ele>723.5</ele><time>2026-05-01T14:33:19.001Z</time></trkpt><trkpt lat="46.2470834" lon="8.3187015"><ele>723.0</ele><time>2026-05-01T14:33:20.994Z</time></trkpt><trkpt lat="46.2470038" lon="8.3187362"><ele>722.5</ele><time>2026-05-01T14:33:22.998Z</time></trkpt><trkpt lat="46.2469098" lon="8.3187855"><ele>722.0</ele><time>2026-05-01T14:33:24.995Z</time></trkpt><trkpt lat="46.2468206" lon="8.3188327"><ele>721.5</ele><time>2026-05-01T14:33:27.002Z</time></trkpt><trkpt lat="46.2467298" lon="8.3188713"><ele>721.0</ele><time>2026-05-01T14:33:28.997Z</time></trkpt><trkpt lat="46.2466374" lon="8.3189245"><ele>721.0</ele><time>2026-05-01T14:33:31Z</time></trkpt><trkpt lat="46.246552" lon="8.3189459"><ele>721.0</ele><time>2026-05-01T14:33:32.999Z</time></trkpt><trkpt lat="46.2464874" lon="8.3189617"><ele>721.0</ele><time>2026-05-01T14:33:34.994Z</time></trkpt><trkpt lat="46.2464217" lon="8.3190148"><ele>721.0</ele><time>2026-05-01T14:33:36.99Z</time></trkpt><trkpt lat="46.246344" lon="8.3190441"><ele>721.0</ele><time>2026-05-01T14:33:38.994Z</time></trkpt><trkpt lat="46.246283" lon="8.3190983"><ele>721.0</ele><time>2026-05-01T14:33:40.99Z</time></trkpt><trkpt lat="46.2461891" lon="8.3191741"><ele>722.3333333333334</ele><time>2026-05-01T14:33:42.996Z</time></trkpt><trkpt lat="46.2460964" lon="8.3192535"><ele>723.6666666666667</ele><time>2026-05-01T14:33:44.994Z</time></trkpt><trkpt lat="46.2460343" lon="8.319269"><ele>725.0</ele><time>2026-05-01T14:33:45.991Z</time></trkpt><trkpt lat="46.2459208" lon="8.3193703"><ele>726.3333333333334</ele><time>2026-05-01T14:33:48.001Z</time></trkpt><trkpt lat="46.2458582" lon="8.3194076"><ele>727.6666666666666</ele><time>2026-05-01T14:33:49.009Z</time></trkpt><trkpt lat="46.2457999" lon="8.3194505"><ele>729.0</ele><time>2026-05-01T14:33:49.998Z</time></trkpt><trkpt lat="46.2457358" lon="8.319491"><ele>729.0</ele><time>2026-05-01T14:33:51.002Z</time></trkpt><trkpt lat="46.2456726" lon="8.3195241"><ele>729.0</ele><time>2026-05-01T14:33:52Z</time></trkpt><trkpt lat="46.245609" lon="8.3195512"><ele>729.0</ele><time>2026-05-01T14:33:52.998Z</time></trkpt><trkpt lat="46.245536" lon="8.3195817"><ele>729.0</ele><time>2026-05-01T14:33:53.994Z</time></trkpt><trkpt lat="46.245455" lon="8.3195987"><ele>729.0</ele><time>2026-05-01T14:33:54.99Z</time></trkpt><trkpt lat="46.2453708" lon="8.3196039"><ele>729.0</ele><time>2026-05-01T14:33:55.99Z</time></trkpt><trkpt lat="46.2452848" lon="8.3196087"><ele>729.8333333333334</ele><time>2026-05-01T14:33:56.988Z</time></trkpt><trkpt lat="46.2451978" lon="8.3196178"><ele>730.6666666666666</ele><time>2026-05-01T14:33:57.996Z</time></trkpt><trkpt lat="46.2451172" lon="8.3196213"><ele>731.5</ele><time>2026-05-01T14:33:58.991Z</time></trkpt><trkpt lat="46.2450351" lon="8.3196049"><ele>732.3333333333333</ele><time>2026-05-01T14:33:59.995Z</time></trkpt><trkpt lat="46.2449573" lon="8.3195994"><ele>733.1666666666666</ele><time>2026-05-01T14:34:00.994Z</time></trkpt><trkpt lat="46.2448891" lon="8.3196038"><ele>734.0</ele><time>2026-05-01T14:34:01.994Z</time></trkpt><trkpt lat="46.2447914" lon="8.3196082"><ele>734.4000000000001</ele><time>2026-05-01T14:34:03.992Z</time></trkpt><trkpt lat="46.2446735" lon="8.3196388"><ele>734.8</ele><time>2026-05-01T14:34:05.991Z</time></trkpt><trkpt lat="46.2445728" lon="8.3196772"><ele>735.2</ele><time>2026-05-01T14:34:07.994Z</time></trkpt><trkpt lat="46.2444603" lon="8.3196939"><ele>735.5999999999999</ele><time>2026-05-01T14:34:09.99Z</time></trkpt><trkpt lat="46.2443555" lon="8.3196994"><ele>736.0</ele><time>2026-05-01T14:34:11.988Z</time></trkpt><trkpt lat="46.2442414" lon="8.3196983"><ele>736.0</ele><time>2026-05-01T14:34:13.998Z</time></trkpt><trkpt lat="46.2441598" lon="8.3197016"><ele>736.0</ele><time>2026-05-01T14:34:15.99Z</time></trkpt><trkpt lat="46.2440863" lon="8.3197067"><ele>736.0</ele><time>2026-05-01T14:34:19Z</time></trkpt><trkpt lat="46.2439995" lon="8.3196965"><ele>736.0</ele><time>2026-05-01T14:34:21.994Z</time></trkpt><trkpt lat="46.2439389" lon="8.3197244"><ele>736.0</ele><time>2026-05-01T14:34:25.003Z</time></trkpt><trkpt lat="46.243996" lon="8.3197638"><ele>736.0</ele><time>2026-05-01T14:34:34.999Z</time></trkpt><trkpt lat="46.2439376" lon="8.3197995"><ele>736.0</ele><time>2026-05-01T14:34:46.995Z</time></trkpt><trkpt lat="46.2438289" lon="8.3198167"><ele>730.6666666666667</ele><time>2026-05-01T14:34:48.987Z</time></trkpt><trkpt lat="46.2437511" lon="8.3198409"><ele>725.3333333333334</ele><time>2026-05-01T14:34:49.99Z</time></trkpt><trkpt lat="46.2436704" lon="8.3198598"><ele>720.0</ele><time>2026-05-01T14:34:50.992Z</time></trkpt><trkpt lat="46.2435834" lon="8.3198978"><ele>714.6666666666666</ele><time>2026-05-01T14:34:52.991Z</time></trkpt><trkpt lat="46.2435124" lon="8.3199184"><ele>709.3333333333333</ele><time>2026-05-01T14:34:55.998Z</time></trkpt><trkpt lat="46.2434619" lon="8.3198603"><ele>704.0</ele><time>2026-05-01T14:35:01.994Z</time></trkpt><trkpt lat="46.2434106" lon="8.319806"><ele>704.0</ele><time>2026-05-01T14:35:05.997Z</time></trkpt><trkpt lat="46.2433403" lon="8.3197568"><ele>704.0</ele><time>2026-05-01T14:35:09.994Z</time></trkpt><trkpt lat="46.2432561" lon="8.3197553"><ele>704.0</ele><time>2026-05-01T14:35:13Z</time></trkpt><trkpt lat="46.2431677" lon="8.3197912"><ele>704.0</ele><time>2026-05-01T14:35:16.003Z</time></trkpt><trkpt lat="46.2430977" lon="8.3197987"><ele>704.0</ele><time>2026-05-01T14:35:18.997Z</time></trkpt><trkpt lat="46.2430212" lon="8.3197315"><ele>704.0</ele><time>2026-05-01T14:35:22.995Z</time></trkpt><trkpt lat="46.2429576" lon="8.3196755"><ele>706.1666666666666</ele><time>2026-05-01T14:35:24.997Z</time></trkpt><trkpt lat="46.2428957" lon="8.3195814"><ele>708.3333333333333</ele><time>2026-05-01T14:35:26.998Z</time></trkpt><trkpt lat="46.2428288" lon="8.3195596"><ele>710.5</ele><time>2026-05-01T14:35:28.995Z</time></trkpt><trkpt lat="46.2428056" lon="8.3194717"><ele>712.6666666666666</ele><time>2026-05-01T14:35:32.992Z</time></trkpt><trkpt lat="46.2427581" lon="8.3193981"><ele>714.8333333333334</ele><time>2026-05-01T14:36:21.001Z</time></trkpt><trkpt lat="46.2427095" lon="8.3194957"><ele>717.0</ele><time>2026-05-01T14:36:26.002Z</time></trkpt><trkpt lat="46.2427567" lon="8.3195771"><ele>717.0</ele><time>2026-05-01T14:36:29.004Z</time></trkpt><trkpt lat="46.2428434" lon="8.3196244"><ele>717.0</ele><time>2026-05-01T14:36:32.007Z</time></trkpt><trkpt lat="46.2429094" lon="8.319645"><ele>717.0</ele><time>2026-05-01T14:36:34.001Z</time></trkpt><trkpt lat="46.2429763" lon="8.3197042"><ele>717.0</ele><time>2026-05-01T14:36:37.006Z</time></trkpt><trkpt lat="46.2430733" lon="8.3197358"><ele>717.0</ele><time>2026-05-01T14:36:40.001Z</time></trkpt><trkpt lat="46.243138" lon="8.3197501"><ele>717.0</ele><time>2026-05-01T14:36:41.997Z</time></trkpt><trkpt lat="46.2432149" lon="8.3197776"><ele>714.8333333333334</ele><time>2026-05-01T14:36:44.002Z</time></trkpt><trkpt lat="46.2432974" lon="8.319818"><ele>712.6666666666666</ele><time>2026-05-01T14:36:46Z</time></trkpt><trkpt lat="46.2433902" lon="8.3198454"><ele>710.5</ele><time>2026-05-01T14:36:48.01Z</time></trkpt><trkpt lat="46.243453" lon="8.319852"><ele>708.3333333333333</ele><time>2026-05-01T14:36:50Z</time></trkpt><trkpt lat="46.2435227" lon="8.3198148"><ele>706.1666666666666</ele><time>2026-05-01T14:36:54.005Z</time></trkpt><trkpt lat="46.2435779" lon="8.3197554"><ele>704.0</ele><time>2026-05-01T14:36:58.009Z</time></trkpt><trkpt lat="46.2436421" lon="8.3197166"><ele>704.6666666666666</ele><time>2026-05-01T14:37:02.009Z</time></trkpt><trkpt lat="46.2437072" lon="8.319686"><ele>705.3333333333333</ele><time>2026-05-01T14:37:06.994Z</time></trkpt><trkpt lat="46.2437769" lon="8.3197149"><ele>706.0</ele><time>2026-05-01T14:37:10.008Z</time></trkpt><trkpt lat="46.243854" lon="8.3196878"><ele>706.6666666666666</ele><time>2026-05-01T14:37:13.007Z</time></trkpt><trkpt lat="46.2439571" lon="8.3196774"><ele>707.3333333333334</ele><time>2026-05-01T14:37:19.01Z</time></trkpt><trkpt lat="46.2440643" lon="8.3197285"><ele>708.0</ele><time>2026-05-01T14:37:21.01Z</time></trkpt><trkpt lat="46.2441311" lon="8.3197482"><ele>708.0</ele><time>2026-05-01T14:37:22.003Z</time></trkpt><trkpt lat="46.244213" lon="8.31975"><ele>708.0</ele><time>2026-05-01T14:37:23.003Z</time></trkpt><trkpt lat="46.2442951" lon="8.3197532"><ele>708.0</ele><time>2026-05-01T14:37:24.005Z</time></trkpt><trkpt lat="46.2443776" lon="8.3197772"><ele>708.0</ele><time>2026-05-01T14:37:26.008Z</time></trkpt><trkpt lat="46.2444497" lon="8.3197681"><ele>708.0</ele><time>2026-05-01T14:37:28.005Z</time></trkpt><trkpt lat="46.2445493" lon="8.3197292"><ele>708.0</ele><time>2026-05-01T14:37:30.008Z</time></trkpt><trkpt lat="46.2446248" lon="8.3197323"><ele>712.3333333333334</ele><time>2026-05-01T14:37:32.006Z</time></trkpt><trkpt lat="46.2446859" lon="8.3196756"><ele>716.6666666666666</ele><time>2026-05-01T14:37:35.01Z</time></trkpt><trkpt lat="46.2447585" lon="8.319661"><ele>721.0</ele><time>2026-05-01T14:37:38.005Z</time></trkpt><trkpt lat="46.2448401" lon="8.3196557"><ele>725.3333333333333</ele><time>2026-05-01T14:37:40.007Z</time></trkpt><trkpt lat="46.2449415" lon="8.3196542"><ele>729.6666666666666</ele><time>2026-05-01T14:37:42.005Z</time></trkpt><trkpt lat="46.2450582" lon="8.3196807"><ele>734.0</ele><time>2026-05-01T14:37:44.023Z</time></trkpt><trkpt lat="46.245167" lon="8.319678"><ele>734.0</ele><time>2026-05-01T14:37:46.011Z</time></trkpt><trkpt lat="46.2452496" lon="8.3196573"><ele>734.0</ele><time>2026-05-01T14:37:48.017Z</time></trkpt><trkpt lat="46.2453222" lon="8.3196076"><ele>734.0</ele><time>2026-05-01T14:37:51.015Z</time></trkpt><trkpt lat="46.2453986" lon="8.3195861"><ele>734.0</ele><time>2026-05-01T14:37:54.015Z</time></trkpt><trkpt lat="46.2454792" lon="8.3195385"><ele>734.0</ele><time>2026-05-01T14:37:57.013Z</time></trkpt><trkpt lat="46.2455623" lon="8.3194716"><ele>734.0</ele><time>2026-05-01T14:38:00.02Z</time></trkpt><trkpt lat="46.2456246" lon="8.3194129"><ele>733.1666666666666</ele><time>2026-05-01T14:38:02.017Z</time></trkpt><trkpt lat="46.2456823" lon="8.3193701"><ele>732.3333333333333</ele><time>2026-05-01T14:38:04.008Z</time></trkpt><trkpt lat="46.2457331" lon="8.3193137"><ele>731.5</ele><time>2026-05-01T14:38:06.006Z</time></trkpt><trkpt lat="46.2458" lon="8.3192535"><ele>730.6666666666666</ele><time>2026-05-01T14:38:08.001Z</time></trkpt><trkpt lat="46.2458808" lon="8.3191784"><ele>729.8333333333334</ele><time>2026-05-01T14:38:10.007Z</time></trkpt><trkpt lat="46.2459491" lon="8.3191506"><ele>729.0</ele><time>2026-05-01T14:38:22.009Z</time></trkpt><trkpt lat="46.2460269" lon="8.3191413"><ele>729.0</ele><time>2026-05-01T14:38:24.001Z</time></trkpt><trkpt lat="46.2461369" lon="8.3190645"><ele>729.0</ele><time>2026-05-01T14:38:26.003Z</time></trkpt><trkpt lat="46.2462142" lon="8.3190178"><ele>729.0</ele><time>2026-05-01T14:38:27.996Z</time></trkpt><trkpt lat="46.2463106" lon="8.3189863"><ele>729.0</ele><time>2026-05-01T14:38:30.007Z</time></trkpt><trkpt lat="46.2463918" lon="8.3189338"><ele>729.0</ele><time>2026-05-01T14:38:32.006Z</time></trkpt><trkpt lat="46.2464696" lon="8.3188867"><ele>730.3333333333334</ele><time>2026-05-01T14:38:34.006Z</time></trkpt><trkpt lat="46.2465534" lon="8.3188222"><ele>731.6666666666666</ele><time>2026-05-01T14:38:37.004Z</time></trkpt><trkpt lat="46.2466329" lon="8.3187714"><ele>733.0</ele><time>2026-05-01T14:38:40.014Z</time></trkpt><trkpt lat="46.2467115" lon="8.318767"><ele>734.3333333333333</ele><time>2026-05-01T14:38:43.016Z</time></trkpt><trkpt lat="46.2467903" lon="8.318759"><ele>735.6666666666666</ele><time>2026-05-01T14:38:45.012Z</time></trkpt><trkpt lat="46.2468691" lon="8.318738"><ele>737.0</ele><time>2026-05-01T14:38:47.009Z</time></trkpt><trkpt lat="46.2469646" lon="8.3187232"><ele>737.0</ele><time>2026-05-01T14:38:49.012Z</time></trkpt><trkpt lat="46.2470771" lon="8.3187334"><ele>737.0</ele><time>2026-05-01T14:38:51.006Z</time></trkpt><trkpt lat="46.2471503" lon="8.3187828"><ele>737.0</ele><time>2026-05-01T14:38:53.011Z</time></trkpt><trkpt lat="46.2472076" lon="8.318872"><ele>737.0</ele><time>2026-05-01T14:38:56.006Z</time></trkpt><trkpt lat="46.2472674" lon="8.3189724"><ele>737.0</ele><time>2026-05-01T14:38:58.992Z</time></trkpt><trkpt lat="46.2473298" lon="8.3190565"><ele>734.8333333333333</ele><time>2026-05-01T14:39:01.002Z</time></trkpt><trkpt lat="46.2473788" lon="8.3191333"><ele>732.6666666666666</ele><time>2026-05-01T14:39:02.996Z</time></trkpt><trkpt lat="46.2474822" lon="8.3191696"><ele>730.5</ele><time>2026-05-01T14:41:03.994Z</time></trkpt><trkpt lat="46.2475146" lon="8.3193101"><ele>728.3333333333334</ele><time>2026-05-01T14:41:11.995Z</time></trkpt><trkpt lat="46.2475827" lon="8.3192427"><ele>726.1666666666667</ele><time>2026-05-01T14:41:49.005Z</time></trkpt><trkpt lat="46.2476201" lon="8.3191649"><ele>724.0</ele><time>2026-05-01T14:41:51.007Z</time></trkpt><trkpt lat="46.247649" lon="8.3190708"><ele>724.0</ele><time>2026-05-01T14:41:53.005Z</time></trkpt><trkpt lat="46.2476989" lon="8.3189789"><ele>724.0</ele><time>2026-05-01T14:41:55.003Z</time></trkpt><trkpt lat="46.2477419" lon="8.3189085"><ele>724.0</ele><time>2026-05-01T14:41:57.011Z</time></trkpt><trkpt lat="46.2478071" lon="8.3188289"><ele>724.0</ele><time>2026-05-01T14:42:00.012Z</time></trkpt><trkpt lat="46.247872" lon="8.3187313"><ele>724.0</ele><time>2026-05-01T14:42:02.998Z</time></trkpt><trkpt lat="46.2479326" lon="8.318671"><ele>724.0</ele><time>2026-05-01T14:42:04.999Z</time></trkpt><trkpt lat="46.2480097" lon="8.318613"><ele>724.1666666666667</ele><time>2026-05-01T14:42:07.005Z</time></trkpt><trkpt lat="46.2480894" lon="8.3185525"><ele>724.3333333333334</ele><time>2026-05-01T14:42:09.008Z</time></trkpt><trkpt lat="46.2481686" lon="8.3184934"><ele>724.5</ele><time>2026-05-01T14:42:11.009Z</time></trkpt><trkpt lat="46.2482426" lon="8.3184424"><ele>724.6666666666666</ele><time>2026-05-01T14:42:13.007Z</time></trkpt><trkpt lat="46.2483254" lon="8.3183968"><ele>724.8333333333333</ele><time>2026-05-01T14:42:15.007Z</time></trkpt><trkpt lat="46.2484112" lon="8.3183662"><ele>725.0</ele><time>2026-05-01T14:42:17.014Z</time></trkpt><trkpt lat="46.248505" lon="8.318346"><ele>725.0</ele><time>2026-05-01T14:42:19.012Z</time></trkpt><trkpt lat="46.2485941" lon="8.318327"><ele>725.0</ele><time>2026-05-01T14:42:21.008Z</time></trkpt><trkpt lat="46.2486845" lon="8.3182977"><ele>725.0</ele><time>2026-05-01T14:42:23.014Z</time></trkpt><trkpt lat="46.2487723" lon="8.3182739"><ele>725.0</ele><time>2026-05-01T14:42:25.011Z</time></trkpt><trkpt lat="46.248857" lon="8.3182548"><ele>725.0</ele><time>2026-05-01T14:42:27.01Z</time></trkpt><trkpt lat="46.2489451" lon="8.3182206"><ele>725.0</ele><time>2026-05-01T14:42:29.009Z</time></trkpt><trkpt lat="46.2490196" lon="8.3181902"><ele>726.6666666666666</ele><time>2026-05-01T14:42:31.01Z</time></trkpt><trkpt lat="46.2490769" lon="8.3181275"><ele>728.3333333333333</ele><time>2026-05-01T14:42:33.005Z</time></trkpt><trkpt lat="46.2491032" lon="8.318019"><ele>730.0</ele><time>2026-05-01T14:42:35.008Z</time></trkpt><trkpt lat="46.2490996" lon="8.3178893"><ele>731.6666666666666</ele><time>2026-05-01T14:42:37.008Z</time></trkpt><trkpt lat="46.2490939" lon="8.3177667"><ele>733.3333333333334</ele><time>2026-05-01T14:42:39.007Z</time></trkpt><trkpt lat="46.2490929" lon="8.3176368"><ele>735.0</ele><time>2026-05-01T14:42:41.009Z</time></trkpt><trkpt lat="46.2490896" lon="8.3175137"><ele>735.1666666666666</ele><time>2026-05-01T14:42:43.011Z</time></trkpt><trkpt lat="46.2490697" lon="8.3174029"><ele>735.3333333333334</ele><time>2026-05-01T14:42:45.004Z</time></trkpt><trkpt lat="46.249029" lon="8.3173099"><ele>735.5</ele><time>2026-05-01T14:42:47.002Z</time></trkpt><trkpt lat="46.2489824" lon="8.3172109"><ele>735.6666666666667</ele><time>2026-05-01T14:42:48.997Z</time></trkpt><trkpt lat="46.2489273" lon="8.3171243"><ele>735.8333333333334</ele><time>2026-05-01T14:42:50.997Z</time></trkpt><trkpt lat="46.2488742" lon="8.3170286"><ele>736.0</ele><time>2026-05-01T14:42:52.995Z</time></trkpt><trkpt lat="46.2488303" lon="8.316925"><ele>736.8333333333334</ele><time>2026-05-01T14:42:54.998Z</time></trkpt><trkpt lat="46.2487726" lon="8.3168247"><ele>737.6666666666667</ele><time>2026-05-01T14:42:57.004Z</time></trkpt><trkpt lat="46.2487265" lon="8.3167225"><ele>738.5</ele><time>2026-05-01T14:42:59.005Z</time></trkpt><trkpt lat="46.24868" lon="8.3166181"><ele>739.3333333333334</ele><time>2026-05-01T14:43:01.015Z</time></trkpt><trkpt lat="46.2486412" lon="8.3165072"><ele>740.1666666666666</ele><time>2026-05-01T14:43:03.009Z</time></trkpt><trkpt lat="46.2486031" lon="8.3163828"><ele>741.0</ele><time>2026-05-01T14:43:05.006Z</time></trkpt><trkpt lat="46.24858" lon="8.3162695"><ele>742.1666666666666</ele><time>2026-05-01T14:43:07.004Z</time></trkpt><trkpt lat="46.2485804" lon="8.3161457"><ele>743.3333333333334</ele><time>2026-05-01T14:43:09.006Z</time></trkpt><trkpt lat="46.2485807" lon="8.316015"><ele>744.5</ele><time>2026-05-01T14:43:11.003Z</time></trkpt><trkpt lat="46.2485783" lon="8.3158901"><ele>745.6666666666667</ele><time>2026-05-01T14:43:13.004Z</time></trkpt><trkpt lat="46.2485962" lon="8.3157672"><ele>746.8333333333334</ele><time>2026-05-01T14:43:14.997Z</time></trkpt><trkpt lat="46.2486317" lon="8.3156383"><ele>748.0</ele><time>2026-05-01T14:43:16.999Z</time></trkpt><trkpt lat="46.248679" lon="8.3155158"><ele>748.3333333333334</ele><time>2026-05-01T14:43:18.997Z</time></trkpt><trkpt lat="46.2487251" lon="8.315409"><ele>748.6666666666667</ele><time>2026-05-01T14:43:21.007Z</time></trkpt><trkpt lat="46.2487744" lon="8.3153096"><ele>749.0</ele><time>2026-05-01T14:43:23.011Z</time></trkpt><trkpt lat="46.2488284" lon="8.3152147"><ele>749.3333333333334</ele><time>2026-05-01T14:43:25.01Z</time></trkpt><trkpt lat="46.2488778" lon="8.3151264"><ele>749.6666666666666</ele><time>2026-05-01T14:43:27.014Z</time></trkpt><trkpt lat="46.2489258" lon="8.3150349"><ele>750.0</ele><time>2026-05-01T14:43:29.007Z</time></trkpt><trkpt lat="46.2489627" lon="8.3149441"><ele>750.0</ele><time>2026-05-01T14:43:31.023Z</time></trkpt><trkpt lat="46.2490082" lon="8.3148526"><ele>750.0</ele><time>2026-05-01T14:43:33.007Z</time></trkpt><trkpt lat="46.2490438" lon="8.3147691"><ele>750.0</ele><time>2026-05-01T14:43:35.007Z</time></trkpt><trkpt lat="46.2490711" lon="8.314678"><ele>750.0</ele><time>2026-05-01T14:43:37.004Z</time></trkpt><trkpt lat="46.2490738" lon="8.3145442"><ele>750.0</ele><time>2026-05-01T14:43:39.999Z</time></trkpt><trkpt lat="46.2490437" lon="8.3144462"><ele>750.0</ele><time>2026-05-01T14:43:42.002Z</time></trkpt><trkpt lat="46.2489814" lon="8.3143759"><ele>754.1666666666666</ele><time>2026-05-01T14:43:44.013Z</time></trkpt><trkpt lat="46.248902" lon="8.3143666"><ele>758.3333333333333</ele><time>2026-05-01T14:43:46.005Z</time></trkpt><trkpt lat="46.2488275" lon="8.314375"><ele>762.5</ele><time>2026-05-01T14:43:48.007Z</time></trkpt><trkpt lat="46.2487447" lon="8.3144045"><ele>766.6666666666666</ele><time>2026-05-01T14:43:50.001Z</time></trkpt><trkpt lat="46.2486682" lon="8.3144344"><ele>770.8333333333333</ele><time>2026-05-01T14:43:52.005Z</time></trkpt><trkpt lat="46.2485847" lon="8.3144513"><ele>775.0</ele><time>2026-05-01T14:43:54.003Z</time></trkpt><trkpt lat="46.2485115" lon="8.3144698"><ele>774.9999999999999</ele><time>2026-05-01T14:43:56Z</time></trkpt><trkpt lat="46.2484435" lon="8.3144861"><ele>775.0</ele><time>2026-05-01T14:43:58.003Z</time></trkpt><trkpt lat="46.2483786" lon="8.3145252"><ele>775.0</ele><time>2026-05-01T14:44:00.003Z</time></trkpt><trkpt lat="46.2482983" lon="8.3145537"><ele>775.0</ele><time>2026-05-01T14:44:02.001Z</time></trkpt><trkpt lat="46.248237" lon="8.3145908"><ele>775.0</ele><time>2026-05-01T14:44:03.999Z</time></trkpt><trkpt lat="46.248174" lon="8.3146326"><ele>774.9999999999999</ele><time>2026-05-01T14:44:05.997Z</time></trkpt><trkpt lat="46.2481134" lon="8.3146699"><ele>775.0</ele><time>2026-05-01T14:44:07.989Z</time></trkpt><trkpt lat="46.24805" lon="8.3147584"><ele>775.1666666666666</ele><time>2026-05-01T14:44:10.985Z</time></trkpt><trkpt lat="46.2480036" lon="8.3148219"><ele>775.3333333333333</ele><time>2026-05-01T14:44:13Z</time></trkpt><trkpt lat="46.2479474" lon="8.314876"><ele>775.5</ele><time>2026-05-01T14:44:14.996Z</time></trkpt><trkpt lat="46.2478977" lon="8.3149394"><ele>775.6666666666667</ele><time>2026-05-01T14:44:17Z</time></trkpt><trkpt lat="46.2478342" lon="8.3150059"><ele>775.8333333333334</ele><time>2026-05-01T14:44:18.999Z</time></trkpt><trkpt lat="46.2477468" lon="8.3150552"><ele>776.0</ele><time>2026-05-01T14:44:21.004Z</time></trkpt><trkpt lat="46.2476487" lon="8.3150915"><ele>776.0000000000001</ele><time>2026-05-01T14:44:23.012Z</time></trkpt><trkpt lat="46.2475728" lon="8.3151315"><ele>776.0</ele><time>2026-05-01T14:44:25.011Z</time></trkpt><trkpt lat="46.2474911" lon="8.3151709"><ele>776.0</ele><time>2026-05-01T14:44:27.008Z</time></trkpt><trkpt lat="46.2474186" lon="8.3152042"><ele>776.0</ele><time>2026-05-01T14:44:29.002Z</time></trkpt><trkpt lat="46.2473485" lon="8.3152431"><ele>776.0000000000001</ele><time>2026-05-01T14:44:31.005Z</time></trkpt><trkpt lat="46.2472744" lon="8.3152601"><ele>776.0</ele><time>2026-05-01T14:44:32.998Z</time></trkpt><trkpt lat="46.2471984" lon="8.3152894"><ele>776.6666666666667</ele><time>2026-05-01T14:44:35Z</time></trkpt><trkpt lat="46.2471332" lon="8.3153416"><ele>777.3333333333334</ele><time>2026-05-01T14:44:37Z</time></trkpt><trkpt lat="46.2470662" lon="8.3153866"><ele>778.0</ele><time>2026-05-01T14:44:39.004Z</time></trkpt><trkpt lat="46.2469956" lon="8.3154403"><ele>778.6666666666667</ele><time>2026-05-01T14:44:41.002Z</time></trkpt><trkpt lat="46.2469328" lon="8.3154887"><ele>779.3333333333334</ele><time>2026-05-01T14:44:43.006Z</time></trkpt><trkpt lat="46.2468674" lon="8.3155566"><ele>780.0</ele><time>2026-05-01T14:44:45.01Z</time></trkpt><trkpt lat="46.2467937" lon="8.3156239"><ele>780.0</ele><time>2026-05-01T14:44:47.007Z</time></trkpt><trkpt lat="46.2467317" lon="8.3156976"><ele>780.0</ele><time>2026-05-01T14:44:49.016Z</time></trkpt><trkpt lat="46.246675" lon="8.3157809"><ele>780.0</ele><time>2026-05-01T14:44:51.013Z</time></trkpt><trkpt lat="46.2466227" lon="8.3158673"><ele>780.0</ele><time>2026-05-01T14:44:53.004Z</time></trkpt><trkpt lat="46.2465879" lon="8.3159611"><ele>780.0</ele><time>2026-05-01T14:44:55.007Z</time></trkpt><trkpt lat="46.2465602" lon="8.3160576"><ele>780.0</ele><time>2026-05-01T14:44:57.009Z</time></trkpt><trkpt lat="46.2465344" lon="8.3161741"><ele>780.0</ele><time>2026-05-01T14:44:59.003Z</time></trkpt><trkpt lat="46.2465139" lon="8.316301"><ele>780.0</ele><time>2026-05-01T14:45:01.011Z</time></trkpt><trkpt lat="46.2464924" lon="8.3164413"><ele>780.0</ele><time>2026-05-01T14:45:03.012Z</time></trkpt><trkpt lat="46.2464646" lon="8.3165673"><ele>780.0</ele><time>2026-05-01T14:45:05.01Z</time></trkpt><trkpt lat="46.2464183" lon="8.3166762"><ele>780.0</ele><time>2026-05-01T14:45:07.006Z</time></trkpt><trkpt lat="46.2463518" lon="8.3167373"><ele>780.0</ele><time>2026-05-01T14:45:09.008Z</time></trkpt><trkpt lat="46.2462916" lon="8.3166781"><ele>781.3333333333334</ele><time>2026-05-01T14:45:11.013Z</time></trkpt><trkpt lat="46.2462618" lon="8.3165544"><ele>782.6666666666667</ele><time>2026-05-01T14:45:13.01Z</time></trkpt><trkpt lat="46.2462675" lon="8.3164267"><ele>784.0</ele><time>2026-05-01T14:45:15.009Z</time></trkpt><trkpt lat="46.2462628" lon="8.3165309"><ele>785.3333333333334</ele><time>2026-05-01T14:45:21.011Z</time></trkpt><trkpt lat="46.2462471" lon="8.3166207"><ele>786.6666666666667</ele><time>2026-05-01T14:45:23.015Z</time></trkpt><trkpt lat="46.2462804" lon="8.3167041"><ele>788.0</ele><time>2026-05-01T14:45:27.007Z</time></trkpt><trkpt lat="46.2462408" lon="8.3165795"><ele>788.0000000000001</ele><time>2026-05-01T14:45:49.003Z</time></trkpt><trkpt lat="46.2462382" lon="8.3164633"><ele>788.0</ele><time>2026-05-01T14:45:51.006Z</time></trkpt><trkpt lat="46.2462532" lon="8.3163354"><ele>788.0</ele><time>2026-05-01T14:45:53.004Z</time></trkpt><trkpt lat="46.2462593" lon="8.3162012"><ele>788.0</ele><time>2026-05-01T14:45:54.998Z</time></trkpt><trkpt lat="46.2462569" lon="8.3160751"><ele>788.0000000000001</ele><time>2026-05-01T14:45:57.003Z</time></trkpt><trkpt lat="46.2462383" lon="8.3159654"><ele>788.0</ele><time>2026-05-01T14:45:59.005Z</time></trkpt><trkpt lat="46.2462076" lon="8.3158646"><ele>788.3333333333334</ele><time>2026-05-01T14:46:01.01Z</time></trkpt><trkpt lat="46.246177" lon="8.3157563"><ele>788.6666666666667</ele><time>2026-05-01T14:46:03Z</time></trkpt><trkpt lat="46.24614" lon="8.3156459"><ele>789.0</ele><time>2026-05-01T14:46:05.008Z</time></trkpt><trkpt lat="46.2461133" lon="8.3155323"><ele>789.3333333333333</ele><time>2026-05-01T14:46:07.008Z</time></trkpt><trkpt lat="46.246106" lon="8.3154093"><ele>789.6666666666666</ele><time>2026-05-01T14:46:09.007Z</time></trkpt><trkpt lat="46.2461044" lon="8.3152863"><ele>790.0</ele><time>2026-05-01T14:46:11.006Z</time></trkpt><trkpt lat="46.246117" lon="8.3151769"><ele>789.9999999999999</ele><time>2026-05-01T14:46:13.002Z</time></trkpt><trkpt lat="46.246142" lon="8.3150669"><ele>790.0</ele><time>2026-05-01T14:46:15.01Z</time></trkpt><trkpt lat="46.246165" lon="8.3149557"><ele>790.0</ele><time>2026-05-01T14:46:17.014Z</time></trkpt><trkpt lat="46.2461802" lon="8.3148402"><ele>790.0</ele><time>2026-05-01T14:46:19.016Z</time></trkpt><trkpt lat="46.2461814" lon="8.3147309"><ele>789.9999999999999</ele><time>2026-05-01T14:46:21.012Z</time></trkpt><trkpt lat="46.2461679" lon="8.3146164"><ele>790.0</ele><time>2026-05-01T14:46:23.019Z</time></trkpt><trkpt lat="46.2461383" lon="8.3145053"><ele>790.8333333333333</ele><time>2026-05-01T14:46:25.015Z</time></trkpt><trkpt lat="46.2460922" lon="8.3144114"><ele>791.6666666666666</ele><time>2026-05-01T14:46:27.013Z</time></trkpt><trkpt lat="46.2460236" lon="8.3143306"><ele>792.5</ele><time>2026-05-01T14:46:29.014Z</time></trkpt><trkpt lat="46.2459365" lon="8.3142839"><ele>793.3333333333333</ele><time>2026-05-01T14:46:31.02Z</time></trkpt><trkpt lat="46.245847" lon="8.3142701"><ele>794.1666666666666</ele><time>2026-05-01T14:46:33.012Z</time></trkpt><trkpt lat="46.2457585" lon="8.3142551"><ele>795.0</ele><time>2026-05-01T14:46:35.012Z</time></trkpt><trkpt lat="46.2456622" lon="8.3142292"><ele>795.8</ele><time>2026-05-01T14:46:37.014Z</time></trkpt><trkpt lat="46.2455602" lon="8.3142032"><ele>796.6</ele><time>2026-05-01T14:46:39.015Z</time></trkpt><trkpt lat="46.2454631" lon="8.3141654"><ele>797.4000000000001</ele><time>2026-05-01T14:46:41.01Z</time></trkpt><trkpt lat="46.2453631" lon="8.3141296"><ele>798.2</ele><time>2026-05-01T14:46:43.014Z</time></trkpt><trkpt lat="46.2452623" lon="8.3140995"><ele>799.0</ele><time>2026-05-01T14:46:45.012Z</time></trkpt><trkpt lat="46.2451541" lon="8.3140789"><ele>799.0</ele><time>2026-05-01T14:46:47.012Z</time></trkpt><trkpt lat="46.2450461" lon="8.3140561"><ele>799.0</ele><time>2026-05-01T14:46:49.012Z</time></trkpt><trkpt lat="46.2449412" lon="8.3140391"><ele>799.0</ele><time>2026-05-01T14:46:51.005Z</time></trkpt><trkpt lat="46.2448354" lon="8.3140433"><ele>799.0</ele><time>2026-05-01T14:46:53.006Z</time></trkpt><trkpt lat="46.2447377" lon="8.3140705"><ele>799.0</ele><time>2026-05-01T14:46:54.998Z</time></trkpt><trkpt lat="46.2446385" lon="8.3141251"><ele>799.2</ele><time>2026-05-01T14:46:57.002Z</time></trkpt><trkpt lat="46.2445375" lon="8.3141823"><ele>799.4000000000001</ele><time>2026-05-01T14:46:59.006Z</time></trkpt><trkpt lat="46.2444329" lon="8.3141768"><ele>799.6</ele><time>2026-05-01T14:47:01.009Z</time></trkpt><trkpt lat="46.2443346" lon="8.3141508"><ele>799.8</ele><time>2026-05-01T14:47:03.002Z</time></trkpt><trkpt lat="46.2442455" lon="8.3141193"><ele>800.0</ele><time>2026-05-01T14:47:05.001Z</time></trkpt><trkpt lat="46.2441505" lon="8.3140829"><ele>800.0</ele><time>2026-05-01T14:47:07.004Z</time></trkpt><trkpt lat="46.2440528" lon="8.3140601"><ele>800.0</ele><time>2026-05-01T14:47:09.002Z</time></trkpt><trkpt lat="46.2439566" lon="8.3140685"><ele>800.0</ele><time>2026-05-01T14:47:11Z</time></trkpt><trkpt lat="46.243865" lon="8.3141149"><ele>800.0</ele><time>2026-05-01T14:47:13.005Z</time></trkpt><trkpt lat="46.2437713" lon="8.3141689"><ele>800.0</ele><time>2026-05-01T14:47:15.008Z</time></trkpt><trkpt lat="46.2436834" lon="8.3142049"><ele>801.8333333333334</ele><time>2026-05-01T14:47:17.007Z</time></trkpt><trkpt lat="46.2436008" lon="8.3142416"><ele>803.6666666666667</ele><time>2026-05-01T14:47:19.01Z</time></trkpt><trkpt lat="46.2435218" lon="8.3142863"><ele>805.5</ele><time>2026-05-01T14:47:21.01Z</time></trkpt><trkpt lat="46.2434444" lon="8.3143208"><ele>807.3333333333333</ele><time>2026-05-01T14:47:23.007Z</time></trkpt><trkpt lat="46.2433653" lon="8.3143441"><ele>809.1666666666666</ele><time>2026-05-01T14:47:25.009Z</time></trkpt><trkpt lat="46.2432811" lon="8.3143694"><ele>811.0</ele><time>2026-05-01T14:47:27.013Z</time></trkpt><trkpt lat="46.2431946" lon="8.3143954"><ele>811.8333333333333</ele><time>2026-05-01T14:47:29.006Z</time></trkpt><trkpt lat="46.2431081" lon="8.3144163"><ele>812.6666666666666</ele><time>2026-05-01T14:47:31.016Z</time></trkpt><trkpt lat="46.2430232" lon="8.3144254"><ele>813.5</ele><time>2026-05-01T14:47:33.011Z</time></trkpt><trkpt lat="46.2429372" lon="8.3144276"><ele>814.3333333333333</ele><time>2026-05-01T14:47:35.013Z</time></trkpt><trkpt lat="46.2428454" lon="8.3144363"><ele>815.1666666666666</ele><time>2026-05-01T14:47:37.012Z</time></trkpt><trkpt lat="46.2427577" lon="8.314441"><ele>816.0</ele><time>2026-05-01T14:47:39.002Z</time></trkpt><trkpt lat="46.2426826" lon="8.3144533"><ele>816.0</ele><time>2026-05-01T14:47:41.007Z</time></trkpt><trkpt lat="46.2426081" lon="8.3144553"><ele>816.0</ele><time>2026-05-01T14:47:43.01Z</time></trkpt><trkpt lat="46.2425317" lon="8.3144422"><ele>816.0</ele><time>2026-05-01T14:47:45.012Z</time></trkpt><trkpt lat="46.2424583" lon="8.3144228"><ele>816.0</ele><time>2026-05-01T14:47:47.01Z</time></trkpt><trkpt lat="46.2423853" lon="8.3143876"><ele>816.0</ele><time>2026-05-01T14:47:49.017Z</time></trkpt><trkpt lat="46.2423169" lon="8.3143431"><ele>816.0</ele><time>2026-05-01T14:47:51.007Z</time></trkpt><trkpt lat="46.2422419" lon="8.3143086"><ele>815.8333333333334</ele><time>2026-05-01T14:47:53.011Z</time></trkpt><trkpt lat="46.2421707" lon="8.3142661"><ele>815.6666666666667</ele><time>2026-05-01T14:47:55.007Z</time></trkpt><trkpt lat="46.2421032" lon="8.314221"><ele>815.5</ele><time>2026-05-01T14:47:57.006Z</time></trkpt><trkpt lat="46.2420371" lon="8.3141693"><ele>815.3333333333334</ele><time>2026-05-01T14:47:59.009Z</time></trkpt><trkpt lat="46.2419626" lon="8.3141198"><ele>815.1666666666667</ele><time>2026-05-01T14:48:01.02Z</time></trkpt><trkpt lat="46.2418961" lon="8.3140732"><ele>815.0</ele><time>2026-05-01T14:48:03.013Z</time></trkpt><trkpt lat="46.2418345" lon="8.3140108"><ele>815.0</ele><time>2026-05-01T14:48:05.013Z</time></trkpt><trkpt lat="46.2417789" lon="8.3139419"><ele>815.0</ele><time>2026-05-01T14:48:07.015Z</time></trkpt><trkpt lat="46.2417309" lon="8.3138624"><ele>815.0</ele><time>2026-05-01T14:48:09.013Z</time></trkpt><trkpt lat="46.2416735" lon="8.3137844"><ele>815.0</ele><time>2026-05-01T14:48:11.01Z</time></trkpt><trkpt lat="46.2416204" lon="8.3137054"><ele>815.0</ele><time>2026-05-01T14:48:13.005Z</time></trkpt><trkpt lat="46.241567" lon="8.3136428"><ele>815.0</ele><time>2026-05-01T14:48:15.012Z</time></trkpt><trkpt lat="46.2415128" lon="8.3135693"><ele>815.0</ele><time>2026-05-01T14:48:17.02Z</time></trkpt><trkpt lat="46.2414587" lon="8.3135203"><ele>816.3333333333334</ele><time>2026-05-01T14:48:19.014Z</time></trkpt><trkpt lat="46.2414696" lon="8.3134099"><ele>817.6666666666667</ele><time>2026-05-01T14:48:24Z</time></trkpt><trkpt lat="46.2415662" lon="8.313373"><ele>819.0</ele><time>2026-05-01T14:48:27.005Z</time></trkpt><trkpt lat="46.2416294" lon="8.3133301"><ele>820.3333333333333</ele><time>2026-05-01T14:48:29.004Z</time></trkpt><trkpt lat="46.2416972" lon="8.3132375"><ele>821.6666666666666</ele><time>2026-05-01T14:48:32.006Z</time></trkpt><trkpt lat="46.2417558" lon="8.3131695"><ele>823.0</ele><time>2026-05-01T14:48:34.005Z</time></trkpt><trkpt lat="46.2418152" lon="8.3131109"><ele>825.3333333333333</ele><time>2026-05-01T14:48:36.006Z</time></trkpt><trkpt lat="46.2418824" lon="8.3130602"><ele>827.6666666666666</ele><time>2026-05-01T14:48:38.003Z</time></trkpt><trkpt lat="46.2419625" lon="8.3130075"><ele>830.0</ele><time>2026-05-01T14:48:41.008Z</time></trkpt><trkpt lat="46.2420031" lon="8.3129159"><ele>832.3333333333333</ele><time>2026-05-01T14:48:44.001Z</time></trkpt><trkpt lat="46.241994" lon="8.3128185"><ele>834.6666666666666</ele><time>2026-05-01T14:48:45.999Z</time></trkpt><trkpt lat="46.2420746" lon="8.3128321"><ele>837.0</ele><time>2026-05-01T14:49:08.007Z</time></trkpt><trkpt lat="46.2421264" lon="8.3128967"><ele>837.0</ele><time>2026-05-01T14:49:10.996Z</time></trkpt></trkseg></trk></gpx>